[[{"header":{"parameterUnit":"m.s-1","parameterCategory":1,"la1":30.6,"la2":28.766,"lo1":-90.7593,"lo2":-88.6598,"dy":0.0162,"dx":0.0183,"nx":116,"ny":114,"refTime":"2023-06-28T06:00:00:Z","depth":0,"parameterNumber":2,"parameterNumberName":"U-component_of_WINDS"},"data":[0.0,0.0,0.0,0.0,0.0,0.0,0.0,0.0,0.0,0.0,0.0,0.0,0.0,0.0,0.0,0.0,0.0,0.0,0.0,0.0,0.0,0.0,0.0,0.0,0.0,0.0,0.0,0.0,0.0,0.0,0.0,0.0,0.0,0.0,0.0,0.0,0.0,0.0,0.0,0.0,0.0,0.0,0.0,0.0,0.0,0.0,0.0,0.0,0.0,0.0,0.0,0.0,0.0,0.0,0.0,0.0,0.0,0.0,0.0,0.0,0.0,0.0,0.0,0.0,0.0,0.0,0.0,0.0,0.0,0.0,0.0,0.0,0.0,0.0,0.0,0.0,0.0,0.0,0.0,0.0,0.0,0.0,0.0,0.0,0.0,0.0,0.0,0.0,0.0,0.0,0.0,0.0,0.0,0.0,0.0,0.0,0.0,0.0,0.0,0.0,0.0,0.0,0.0,0.0,0.0,0.0,0.0,0.0,0.0,0.0,0.0,0.0,0.0,0.0,0.0,0.0,0.0,0.0,0.0,0.0,0.0,0.0,0.0,0.0,0.0,0.0,0.0,0.0,0.0,0.0,0.0,0.0,0.0,0.0,0.0,0.0,0.0,0.0,0.0,0.0,0.0,0.0,0.0,0.0,0.0,0.0,0.0,0.0,0.0,0.0,0.0,0.0,0.0,0.0,0.0,0.0,0.0,0.0,0.0,0.0,0.0,0.0,0.0,0.0,0.0,0.0,0.0,0.0,0.0,0.0,0.0,0.0,0.0,0.0,0.0,0.0,0.0,0.0,0.0,0.0,0.0,0.0,0.0,0.0,0.0,0.0,0.0,0.0,0.0,0.0,0.0,0.0,0.0,0.0,0.0,0.0,0.0,0.0,0.0,0.0,0.0,0.0,0.0,0.0,0.0,0.0,0.0,0.0,0.0,0.0,0.0,0.0,0.0,0.0,0.0,0.0,0.0,0.0,0.0,0.0,0.0,0.0,0.0,0.0,0.0,0.0,0.0,0.0,0.0,0.0,0.0,0.0,0.0,0.0,0.0,0.0,0.0,0.0,0.0,0.0,0.0,0.0,0.0,0.0,0.0,0.0,0.0,0.0,0.0,0.0,0.0,0.0,0.0,0.0,0.0,0.0,0.0,0.0,0.0,0.0,0.0,0.0,0.0,0.0,0.0,0.0,0.0,0.0,0.0,0.0,0.0,0.0,0.0,0.0,0.0,0.0,0.0,0.0,0.0,0.0,0.0,0.0,0.0,0.0,0.0,0.0,0.0,0.0,0.0,0.0,0.0,0.0,0.0,0.0,0.0,0.0,0.0,0.0,0.0,0.0,0.0,0.0,0.0,0.0,0.0,0.0,0.0,0.0,0.0,0.0,0.0,0.0,0.0,0.0,0.0,0.0,0.0,0.0,0.0,0.0,0.0,0.0,0.0,0.0,0.0,0.0,0.0,0.0,0.0,0.0,0.0,0.0,0.0,0.0,0.0,0.0,0.0,0.0,0.0,0.0,0.0,0.0,0.0,0.0,0.0,0.0,0.0,0.0,0.0,0.0,0.0,0.0,0.0,0.0,0.0,0.0,0.0,0.0,0.0,0.0,0.0,0.0,0.0,0.0,0.0,0.0,0.0,0.0,0.0,0.0,0.0,0.0,0.0,0.0,0.0,0.0,0.0,0.0,0.0,0.0,0.0,0.0,0.0,0.0,0.0,0.0,0.0,0.0,0.0,0.0,0.0,0.0,0.0,0.0,0.0,0.0,0.0,0.0,0.0,0.0,0.0,0.0,0.0,0.0,0.0,0.0,0.0,0.0,0.0,0.0,0.0,0.0,0.0,0.0,0.0,0.0,0.0,0.0,0.0,0.0,0.0,0.0,0.0,0.0,0.0,0.0,0.0,0.0,0.0,0.0,0.0,0.0,0.0,0.0,0.0,0.0,0.0,0.0,0.0,0.0,0.0,0.0,0.0,0.0,0.0,0.0,0.0,0.0,0.0,0.0,0.0,0.0,0.0,0.0,0.0,0.0,0.0,0.0,0.0,0.0,0.0,0.0,0.0,0.0,0.0,0.0,0.0,0.0,0.0,0.0,0.0,0.0,0.0,0.0,0.0,0.0,0.0,0.0,0.0,0.0,0.0,0.0,0.0,0.0,0.0,0.0,0.0,0.0,0.0,0.0,0.0,0.0,0.0,0.0,0.0,0.0,0.0,0.0,0.0,0.0,0.0,0.0,0.0,0.0,0.0,0.0,0.0,0.0,0.0,0.0,0.0,0.0,0.0,0.0,0.0,0.0,0.0,0.0,0.0,0.0,0.0,0.0,0.0,0.0,0.0,0.0,0.0,0.0,0.0,0.0,0.0,0.0,0.0,0.0,0.0,0.0,0.0,0.0,0.0,0.0,0.0,0.0,0.0,0.0,0.0,0.0,0.0,0.0,0.0,0.0,0.0,0.0,0.0,0.0,0.0,0.0,0.0,0.0,0.0,0.0,0.0,0.0,0.0,0.0,0.0,0.0,0.0,0.0,0.0,0.0,0.0,0.0,0.0,0.0,0.0,0.0,0.0,0.0,0.0,0.0,0.0,0.0,0.0,0.0,0.0,0.0,0.0,0.0,0.0,0.0,0.0,0.0,0.0,0.0,0.0,0.0,0.0,0.0,0.0,0.0,0.0,0.0,0.0,0.0,0.0,0.0,0.0,0.0,0.0,0.0,0.0,0.0,0.0,0.0,0.0,0.0,0.0,0.0,0.0,0.0,0.0,0.0,0.0,0.0,0.0,0.0,0.0,0.0,0.0,0.0,0.0,0.0,0.0,0.0,0.0,0.0,0.0,0.0,0.0,0.0,0.0,0.0,0.0,0.0,0.0,0.0,0.0,0.0,0.0,0.0,0.0,0.0,0.0,0.0,0.0,0.0,0.0,0.0,0.0,0.0,0.0,0.0,0.0,0.0,0.0,0.0,0.0,0.0,0.0,0.0,0.0,0.0,0.0,0.0,0.0,0.0,0.0,0.0,0.0,0.0,0.0,0.0,0.0,0.0,0.0,0.0,0.0,0.0,0.0,0.0,0.0,0.0,0.0,0.0,0.0,0.0,0.0,0.0,0.0,0.0,0.0,0.0,0.0,0.0,0.0,0.0,0.0,0.0,0.0,0.0,0.0,0.0,0.0,0.0,0.0,0.0,0.0,0.0,0.0,0.0,0.0,0.0,0.0,0.0,0.0,0.0,0.0,0.0,0.0,0.0,0.0,0.0,0.0,0.0,0.0,0.0,0.0,0.0,0.0,0.0,0.0,0.0,0.0,0.0,0.0,0.0,0.0,0.0,0.0,0.0,0.0,0.0,0.0,0.0,0.0,0.0,0.0,0.0,0.0,0.0,0.0,0.0,0.0,0.0,0.0,0.0,0.0,0.0,0.0,0.0,0.0,0.0,0.0,0.0,0.0,0.0,0.0,0.0,0.0,0.0,0.0,0.0,0.0,0.0,0.0,0.0,0.0,0.0,0.0,0.0,0.0,0.0,0.0,0.0,0.0,0.0,0.0,0.0,0.0,0.0,0.0,0.0,0.0,0.0,0.0,0.0,0.0,0.0,0.0,0.0,0.0,0.0,0.0,0.0,0.0,0.0,0.0,0.0,0.0,0.0,0.0,0.0,0.0,0.0,0.0,0.0,0.0,0.0,0.0,0.0,0.0,0.0,0.0,0.0,0.0,0.0,0.0,0.0,0.0,0.0,0.0,0.0,0.0,0.0,0.0,0.0,0.0,0.0,0.0,0.0,0.0,0.0,0.0,0.0,0.0,0.0,0.0,0.0,0.0,0.0,0.0,0.0,0.0,0.0,0.0,0.0,0.0,0.0,0.0,0.0,0.0,0.0,0.0,0.0,0.0,0.0,0.0,0.0,0.0,0.0,0.0,0.0,0.0,0.0,0.0,0.0,0.0,0.0,0.0,0.0,0.0,0.0,0.0,0.0,0.0,0.0,0.0,0.0,0.0,0.0,0.0,0.0,0.0,0.0,0.0,0.0,0.0,0.0,0.0,0.0,0.0,0.0,0.0,0.0,0.0,0.0,0.0,0.0,0.0,0.0,0.0,0.0,0.0,0.0,0.0,0.0,0.0,0.0,0.0,0.0,0.0,0.0,0.0,0.0,0.0,0.0,0.0,0.0,0.0,0.0,0.0,0.0,0.0,0.0,0.0,0.0,0.0,0.0,0.0,0.0,0.0,0.0,0.0,0.0,0.0,0.0,0.0,0.0,0.0,0.0,0.0,0.0,0.0,0.0,0.0,0.0,0.0,0.0,0.0,0.0,0.0,0.0,0.0,0.0,0.0,0.0,0.0,0.0,0.0,0.0,0.0,0.0,0.0,0.0,0.0,0.0,0.0,0.0,0.0,0.0,0.0,0.0,0.0,0.0,0.0,0.0,0.0,0.0,0.0,0.0,0.0,0.0,0.0,0.0,0.0,0.0,0.0,0.0,0.0,0.0,0.0,0.0,0.0,0.0,0.0,0.0,0.0,0.0,0.0,0.0,0.0,0.0,0.0,0.0,0.0,0.0,0.0,0.0,0.0,0.0,0.0,0.0,0.0,0.0,0.0,0.0,0.0,0.0,0.0,0.0,0.0,0.0,0.0,0.0,0.0,0.0,0.0,0.0,0.0,0.0,0.0,0.0,0.0,0.0,0.0,0.0,0.0,0.0,0.0,0.0,0.0,0.0,0.0,0.0,0.0,0.0,0.0,0.0,0.0,0.0,0.0,0.0,0.0,0.0,0.0,0.0,0.0,0.0,0.0,0.0,0.0,0.0,0.0,0.0,0.0,0.0,0.0,0.0,0.0,0.0,0.0,0.0,0.0,0.0,0.0,0.0,0.0,0.0,0.0,0.0,0.0,0.0,0.0,0.0,0.0,0.0,0.0,0.0,0.0,0.0,0.0,0.0,0.0,0.0,0.0,0.0,0.0,0.0,0.0,0.0,0.0,0.0,0.0,0.0,0.0,0.0,0.0,0.0,0.0,0.0,0.0,0.0,0.0,0.0,0.0,0.0,0.0,0.0,0.0,0.0,0.0,0.0,0.0,0.0,0.0,0.0,0.0,0.0,0.0,0.0,0.0,0.0,0.0,0.0,0.0,0.0,0.0,0.0,0.0,0.0,0.0,0.0,0.0,0.0,0.0,0.0,0.0,0.0,0.0,0.0,0.0,0.0,0.0,0.0,0.0,0.0,0.0,0.0,0.0,0.0,0.0,0.0,0.0,0.0,0.0,0.0,0.0,0.0,0.0,0.0,0.0,0.0,0.0,0.0,0.0,0.0,0.0,0.0,0.0,0.0,0.0,0.0,0.0,0.0,0.0,0.0,0.0,0.0,0.0,0.0,0.0,0.0,0.0,0.0,0.0,0.0,0.0,0.0,0.0,0.0,0.0,0.0,0.0,0.0,0.0,0.0,0.0,0.0,0.0,0.0,0.0,0.0,0.0,0.0,0.0,0.0,0.0,0.0,0.0,0.0,0.0,0.0,0.0,0.0,0.0,0.0,0.0,0.0,0.0,0.0,0.0,0.0,0.0,0.0,0.0,0.0,0.0,0.0,0.0,0.0,0.0,0.0,0.0,0.0,0.0,0.0,0.0,0.0,0.0,0.0,0.0,0.0,0.0,0.0,0.0,0.0,0.0,0.0,0.0,0.0,0.0,0.0,0.0,0.0,0.0,0.0,0.0,0.0,0.0,0.0,0.0,0.0,0.0,0.0,0.0,0.0,0.0,0.0,0.0,0.0,0.0,0.0,0.0,0.0,0.0,0.0,0.0,0.0,0.0,0.0,0.0,0.0,0.0,0.0,0.0,0.0,0.0,0.0,0.0,0.0,0.0,0.0,0.0,0.0,0.0,0.0,0.0,0.0,0.0,0.0,0.0,0.0,0.0,0.0,0.0,0.0,0.0,0.0,0.0,0.0,0.0,0.0,0.0,0.0,0.0,0.0,0.0,0.0,0.0,0.0,0.0,0.0,0.0,0.0,0.0,0.0,0.0,0.0,0.0,0.0,0.0,0.0,0.0,0.0,0.0,0.0,0.0,0.0,0.0,0.0,0.0,0.0,0.0,0.0,0.0,0.0,0.0,0.0,0.0,0.0,-1.6413,0.0,0.0,0.0,0.0,0.0,0.0,0.0,0.0,0.0,0.0,0.0,0.0,0.0,0.0,0.0,0.0,0.0,0.0,0.0,0.0,0.0,0.0,0.0,0.0,0.0,0.0,0.0,0.0,0.0,0.0,0.0,0.0,0.0,0.0,0.0,0.0,0.0,0.0,0.0,0.0,0.0,0.0,0.0,0.0,0.0,0.0,0.0,0.0,0.0,0.0,0.0,0.0,0.0,0.0,0.0,0.0,0.0,0.0,0.0,0.0,0.0,0.0,0.0,0.0,0.0,0.0,0.0,0.0,0.0,0.0,0.0,0.0,0.0,0.0,0.0,0.0,0.0,0.0,0.0,0.0,0.0,0.0,0.0,0.0,0.0,0.0,0.0,0.0,0.0,0.0,0.0,0.0,0.0,0.0,0.0,0.0,0.0,0.0,0.0,0.0,0.0,0.0,0.0,0.0,0.0,0.0,0.0,0.0,0.0,0.0,0.0,0.0,0.0,0.0,0.0,0.0,-1.6612,0.0,0.0,0.0,0.0,0.0,0.0,0.0,0.0,0.0,0.0,0.0,0.0,0.0,0.0,0.0,0.0,0.0,0.0,0.0,0.0,0.0,0.0,0.0,0.0,0.0,0.0,0.0,0.0,0.0,0.0,0.0,0.0,0.0,0.0,0.0,0.0,0.0,0.0,0.0,0.0,0.0,0.0,0.0,0.0,0.0,0.0,0.0,0.0,0.0,0.0,0.0,0.0,0.0,0.0,0.0,0.0,0.0,0.0,0.0,0.0,0.0,0.0,0.0,0.0,0.0,0.0,0.0,0.0,0.0,0.0,0.0,0.0,0.0,0.0,0.0,0.0,0.0,0.0,0.0,0.0,0.0,0.0,0.0,0.0,0.0,0.0,0.0,0.0,0.0,0.0,0.0,0.0,0.0,0.0,0.0,0.0,0.0,0.0,0.0,0.0,0.0,0.0,0.0,0.0,0.0,0.0,0.0,0.0,-2.0532,-2.1211,-2.1321,-2.1793,-2.2047,-2.1898,-1.9239,-1.8235,-1.833,-1.6095,0.0,0.0,0.0,0.0,0.0,0.0,0.0,0.0,0.0,0.0,0.0,0.0,0.0,0.0,0.0,0.0,0.0,0.0,0.0,0.0,0.0,0.0,0.0,0.0,0.0,0.0,0.0,0.0,0.0,0.0,0.0,0.0,0.0,0.0,0.0,0.0,0.0,0.0,0.0,0.0,0.0,0.0,0.0,0.0,0.0,0.0,0.0,0.0,0.0,0.0,0.0,0.0,0.0,0.0,0.0,0.0,0.0,0.0,0.0,0.0,0.0,0.0,0.0,0.0,0.0,0.0,0.0,0.0,0.0,0.0,0.0,0.0,0.0,0.0,0.0,0.0,0.0,0.0,0.0,0.0,0.0,0.0,0.0,0.0,0.0,0.0,-1.3313,-1.3907,0.0,0.0,0.0,0.0,0.0,0.0,0.0,0.0,0.0,0.0,0.0,0.0,0.0,-1.8538,-2.0615,-2.1472,-2.2114,-2.256,-2.3771,-2.4136,-2.3676,-2.4244,-2.453,-2.4462,-2.3038,0.0,-2.0793,-1.9204,0.0,0.0,0.0,0.0,0.0,0.0,0.0,0.0,0.0,0.0,0.0,0.0,0.0,0.0,0.0,0.0,0.0,0.0,0.0,0.0,0.0,0.0,0.0,0.0,0.0,0.0,0.0,0.0,0.0,0.0,0.0,0.0,0.0,0.0,0.0,0.0,0.0,0.0,0.0,0.0,0.0,0.0,0.0,0.0,0.0,0.0,0.0,0.0,0.0,0.0,0.0,0.0,0.0,0.0,0.0,0.0,0.0,0.0,0.0,0.0,0.0,0.0,0.0,0.0,0.0,0.0,0.0,0.0,0.0,0.0,0.0,0.0,0.0,0.0,0.0,0.0,0.0,0.0,0.0,0.0,0.0,0.0,0.0,0.0,0.0,-1.2847,-1.3825,-1.4446,-1.4158,-1.3641,0.0,0.0,0.0,0.0,0.0,0.0,0.0,0.0,0.0,-1.9724,-2.0258,-2.1407,-2.3418,-2.4062,-2.5037,-2.6253,-2.6769,-2.7054,-2.7135,-2.7393,-2.7339,-2.6972,-2.6117,-2.5263,-2.4177,-2.1183,-1.9557,-1.8859,0.0,0.0,0.0,0.0,-1.5581,-1.5745,0.0,0.0,0.0,0.0,0.0,0.0,0.0,0.0,0.0,0.0,0.0,0.0,0.0,0.0,0.0,-0.8547,0.0,0.0,0.0,0.0,0.0,0.0,0.0,0.0,0.0,0.0,0.0,0.0,0.0,0.0,0.0,0.0,0.0,0.0,0.0,0.0,0.0,0.0,0.0,0.0,0.0,0.0,0.0,0.0,0.0,0.0,0.0,0.0,0.0,0.0,0.0,0.0,0.0,0.0,0.0,0.0,0.0,0.0,0.0,0.0,0.0,0.0,0.0,0.0,0.0,0.0,0.0,0.0,0.0,0.0,0.0,0.0,0.0,0.0,0.0,0.0,0.0,-1.3704,-1.4658,-1.5071,-1.522,-1.4935,0.0,0.0,0.0,0.0,0.0,0.0,-1.8858,-1.9542,-2.0838,-2.2919,-2.3516,-2.4593,-2.6182,-2.6762,-2.7718,-2.9062,-2.9062,-2.9197,-2.9482,-2.9482,-2.9157,-2.856,-2.8125,-2.7596,-2.6769,-2.316,-2.1089,-2.0167,-1.9418,-1.8545,-1.7676,-1.7598,-1.7706,-1.79,0.0,0.0,0.0,0.0,0.0,0.0,0.0,0.0,0.0,0.0,0.0,0.0,0.0,0.0,-0.9929,-0.9834,-0.9843,-0.9587,0.0,0.0,0.0,0.0,0.0,0.0,0.0,0.0,0.0,0.0,0.0,0.0,0.0,0.0,0.0,0.0,0.0,0.0,0.0,0.0,0.0,0.0,0.0,0.0,0.0,0.0,0.0,0.0,0.0,0.0,0.0,0.0,0.0,0.0,0.0,0.0,0.0,0.0,0.0,0.0,0.0,0.0,0.0,0.0,0.0,0.0,0.0,0.0,0.0,0.0,0.0,0.0,0.0,0.0,0.0,0.0,0.0,0.0,0.0,0.0,0.0,-1.6031,-1.7761,0.0,0.0,0.0,0.0,-1.7174,-1.8236,-1.9877,-2.2154,-2.2819,-2.4397,-2.7091,-2.759,-2.8372,-2.9544,-2.9956,-3.0228,-3.031,-3.031,-3.0025,-2.9482,-2.9482,-2.9157,-2.8587,-2.856,-2.8207,-2.7515,-2.5575,-2.4041,-2.2823,-2.0858,-1.9793,-1.9329,-1.9745,-1.9918,-2.0199,0.0,0.0,0.0,0.0,0.0,0.0,0.0,0.0,0.0,0.0,0.0,0.0,0.0,-1.0316,-1.1138,-1.1563,-1.194,-1.17,-1.0483,0.0,0.0,0.0,0.0,0.0,0.0,0.0,0.0,0.0,0.0,0.0,0.0,0.0,0.0,0.0,0.0,0.0,0.0,0.0,0.0,0.0,0.0,0.0,0.0,0.0,0.0,0.0,0.0,0.0,0.0,0.0,0.0,0.0,0.0,0.0,0.0,0.0,0.0,0.0,0.0,0.0,0.0,0.0,0.0,0.0,0.0,0.0,0.0,0.0,0.0,0.0,0.0,0.0,0.0,0.0,0.0,0.0,0.0,0.0,0.0,-1.8509,-1.9814,0.0,-1.9156,-1.9291,-1.986,-2.0938,-2.271,-2.4651,-2.6764,-2.7102,-2.7832,-2.9298,-2.9122,-2.9528,-3.0539,-3.0304,-3.0632,-3.1544,-3.1151,-3.0866,-3.0635,-3.0256,-2.974,-2.9143,-2.8763,-2.8478,-2.8234,-2.7583,-2.6375,-2.4842,-2.369,-2.3163,-2.2999,-2.3013,-2.3012,-2.3061,0.0,0.0,0.0,0.0,0.0,0.0,0.0,0.0,0.0,0.0,0.0,-0.951,-1.0163,-1.1529,-1.2561,-1.3149,-1.3393,-1.2925,-1.1463,0.0,0.0,0.0,0.0,0.0,0.0,0.0,0.0,0.0,0.0,0.0,0.0,0.0,0.0,0.0,0.0,0.0,0.0,0.0,0.0,0.0,0.0,0.0,-0.7238,0.0,0.0,0.0,0.0,0.0,0.0,0.0,0.0,0.0,0.0,0.0,0.0,0.0,0.0,0.0,0.0,0.0,0.0,0.0,0.0,0.0,0.0,0.0,0.0,0.0,0.0,0.0,0.0,0.0,0.0,0.0,0.0,0.0,0.0,0.0,-1.9533,-2.0493,-2.2017,-2.2635,-2.1973,-2.2264,-2.3153,-2.4735,-2.6516,-2.8323,-3.0038,-3.0333,-3.0668,-3.1123,-3.0842,-3.0976,-3.1669,-3.1213,-3.1451,-3.238,-3.187,-3.1585,-3.1572,-3.0975,-3.0486,-3.0052,-2.9455,-2.9211,-2.9184,-2.898,-2.818,-2.7026,-2.6226,-2.5792,-2.5632,-2.5507,-2.5578,-2.5563,0.0,0.0,0.0,0.0,0.0,0.0,0.0,0.0,0.0,0.0,-0.9295,-1.0199,-1.0869,-1.2757,-1.4148,-1.4506,-1.3879,-1.3013,-1.1751,0.0,0.0,0.0,0.0,0.0,0.0,0.0,0.0,0.0,0.0,0.0,0.0,0.0,0.0,0.0,0.0,0.0,0.0,0.0,0.0,0.0,0.0,0.0,-0.8051,0.0,0.0,0.0,0.0,0.0,0.0,0.0,0.0,0.0,0.0,0.0,0.0,0.0,0.0,0.0,0.0,0.0,0.0,0.0,0.0,0.0,0.0,0.0,0.0,0.0,0.0,0.0,0.0,0.0,0.0,0.0,0.0,0.0,-1.7568,-2.032,-2.2204,-2.2112,-2.4415,-2.5561,-2.4454,-2.5354,-2.6712,-2.8387,-2.9484,-3.0589,-3.1811,-3.2437,-3.2725,-3.2725,-3.2935,-3.2988,-3.2988,-3.2791,-3.2724,-3.271,-3.2367,-3.2182,-3.2155,-3.1572,-3.13,-3.126,-3.0663,-3.0405,-3.0364,-2.974,-2.9482,-2.936,-2.8193,-2.7379,-2.6877,-2.7124,-2.744,-2.7581,0.0,0.0,0.0,0.0,0.0,0.0,0.0,0.0,0.0,0.0,-0.9573,-1.0632,-1.2035,-1.3376,-1.441,-1.5068,-1.4079,-1.302,-1.1774,0.0,0.0,0.0,0.0,0.0,0.0,0.0,0.0,0.0,0.0,0.0,0.0,0.0,0.0,0.0,0.0,0.0,0.0,0.0,0.0,0.0,0.0,0.0,-0.9346,0.0,0.0,0.0,0.0,0.0,0.0,0.0,0.0,0.0,0.0,0.0,0.0,0.0,0.0,0.0,0.0,0.0,0.0,0.0,0.0,0.0,0.0,0.0,0.0,0.0,0.0,0.0,0.0,0.0,0.0,0.0,0.0,-2.0536,-2.0636,-2.2681,-2.486,-2.6682,-2.7883,-2.8396,-2.8032,-2.8014,-2.8903,-3.1189,-3.1204,-3.2129,-3.4249,-3.3705,-3.3352,-3.3352,-3.3146,-3.3066,-3.3223,-3.2894,-3.2826,-3.2962,-3.2453,-3.2182,-3.2155,-3.1572,-3.13,-3.126,-3.0663,-3.0405,-3.0364,-2.974,-2.9482,-2.9401,-2.8641,-2.8248,-2.8107,-2.7893,-2.7523,-2.7074,0.0,0.0,0.0,0.0,0.0,0.0,0.0,0.0,0.0,0.0,-0.9753,-1.0794,-1.2434,-1.3427,-1.4149,-1.4528,-1.346,-1.2262,-1.1018,0.0,0.0,0.0,0.0,0.0,0.0,0.0,0.0,0.0,0.0,0.0,0.0,0.0,0.0,0.0,0.0,0.0,0.0,0.0,0.0,0.0,0.0,0.0,-1.0518,-0.9682,-0.91,-0.8666,-0.8132,-0.8533,-0.9164,-0.8007,0.0,0.0,0.0,0.0,0.0,0.0,0.0,0.0,0.0,0.0,0.0,0.0,0.0,0.0,0.0,0.0,0.0,0.0,0.0,0.0,0.0,0.0,0.0,0.0,-2.1384,-2.3989,-2.5002,-2.613,-2.7477,-2.9172,-2.9784,-3.0078,-3.0078,-2.9816,-3.0331,-3.1983,-3.2158,-3.2815,-3.4298,-3.4113,-3.3927,-3.3927,-3.375,-3.3633,-3.3794,-3.3474,-3.3426,-3.3567,-3.2881,-3.2671,-3.2888,-3.2046,-3.1789,-3.2006,-3.1409,-3.1151,-3.1083,-3.0228,-2.9876,-2.9781,0.0,0.0,0.0,0.0,-2.8242,-2.7595,0.0,0.0,0.0,0.0,0.0,0.0,0.0,0.0,0.0,0.0,0.0,-1.0686,-1.2256,-1.3119,-1.3569,-1.3454,-1.2358,-1.1211,0.0,0.0,0.0,0.0,0.0,0.0,0.0,0.0,0.0,0.0,0.0,0.0,0.0,0.0,0.0,0.0,0.0,0.0,0.0,0.0,0.0,0.0,0.0,0.0,-1.1576,-1.0811,-1.0258,-0.9838,-0.9417,-0.9256,-0.9159,-0.8908,0.0,0.0,0.0,0.0,0.0,0.0,0.0,0.0,0.0,0.0,0.0,0.0,0.0,0.0,0.0,0.0,0.0,0.0,0.0,0.0,0.0,0.0,0.0,0.0,-2.3981,-2.6963,-2.9624,-2.9872,-2.9904,-3.0395,-3.0766,-3.0974,-3.0974,-3.0974,-3.1185,-3.1711,-3.2559,-3.3101,-3.3145,0.0,0.0,0.0,0.0,-3.4481,-3.4481,-3.4324,-3.4286,-3.4273,-3.3549,-3.3403,-3.381,-3.2752,-3.2535,-3.2928,-3.2399,-3.2141,-3.1992,-3.0866,-3.0337,-3.0093,-2.9021,-2.8587,-2.8651,-2.9289,-2.9133,-2.8563,0.0,0.0,0.0,0.0,0.0,0.0,0.0,0.0,0.0,-0.9215,-0.9338,-0.9941,-1.1696,-1.2409,-1.2825,-1.3104,-1.2153,0.0,0.0,0.0,0.0,0.0,0.0,0.0,0.0,0.0,0.0,0.0,0.0,0.0,0.0,0.0,0.0,0.0,0.0,0.0,0.0,0.0,0.0,0.0,0.0,0.0,-1.2488,-1.2148,-1.1761,-1.1345,-1.0924,-1.1532,-1.2395,-1.1392,-1.1934,-1.28,-1.1614,0.0,0.0,0.0,0.0,0.0,0.0,0.0,0.0,0.0,0.0,0.0,0.0,0.0,0.0,0.0,0.0,0.0,0.0,0.0,0.0,-2.3985,-2.6676,-2.8975,-3.0482,-3.1018,-3.14,-3.1902,-3.1673,-3.1487,-3.1487,-3.1487,-3.1838,-3.2815,-3.3384,-3.391,-3.4297,-3.4834,-3.4894,-3.441,-3.4743,-3.499,-3.499,-3.4821,-3.467,-3.467,-3.4032,0.0,-3.3227,-3.2996,-3.2684,-3.2345,-3.2223,-3.1897,-3.1409,-3.0703,-2.9835,-2.8912,-2.8682,-2.8587,-2.8651,-2.9035,-2.8837,-2.8358,0.0,0.0,0.0,0.0,0.0,0.0,0.0,0.0,0.0,0.0,-0.8863,-0.9228,-1.0308,-1.0753,-1.0944,-1.0944,0.0,0.0,0.0,0.0,0.0,0.0,0.0,0.0,0.0,0.0,0.0,0.0,0.0,0.0,0.0,0.0,0.0,0.0,0.0,0.0,0.0,0.0,0.0,0.0,0.0,0.0,-1.3192,-1.2876,-1.2559,-1.2266,-1.2054,-1.2323,-1.2649,-1.2764,-1.3325,-1.4099,-1.3978,-1.301,-1.1805,0.0,0.0,0.0,0.0,0.0,0.0,0.0,0.0,0.0,0.0,0.0,0.0,0.0,0.0,-1.7455,0.0,0.0,-2.3908,-2.6296,-2.8556,-3.0438,-3.1509,-3.1629,-3.1717,-3.1979,-3.1771,-3.1618,-3.1618,-3.1618,-3.1713,-3.2062,-3.3238,-3.3929,-3.3882,-3.5047,-3.5647,-3.5444,-3.542,-3.5442,-3.5512,-3.5251,-3.5116,-3.5102,-3.46,-3.4082,-3.3498,-3.32,-3.2738,-3.2182,-3.2182,-3.1843,-3.1219,-3.031,-2.9547,-2.8844,-2.8844,-2.8716,-2.8651,-2.9162,-2.9157,-2.8912,0.0,0.0,0.0,0.0,0.0,0.0,0.0,0.0,0.0,0.0,0.0,-0.8589,-0.8997,-0.9142,-0.9088,0.0,0.0,0.0,0.0,0.0,0.0,0.0,0.0,0.0,0.0,0.0,0.0,0.0,0.0,0.0,0.0,0.0,0.0,0.0,0.0,0.0,0.0,0.0,0.0,0.0,0.0,0.0,-1.4062,-1.3519,-1.3117,-1.2819,-1.2781,-1.2252,-1.1827,-1.3495,-1.4119,-1.4527,-1.5899,-1.5756,-1.4764,-1.2977,-1.2683,0.0,0.0,0.0,0.0,0.0,0.0,0.0,0.0,0.0,-1.6936,-1.818,-1.9199,-2.0434,-2.2139,-2.426,-2.6319,-2.8401,-3.0078,-3.132,-3.2132,-3.188,-3.1618,-3.1618,-3.1618,-3.1618,-3.1618,-3.1618,-3.1455,-3.1061,-3.2959,-3.3885,-3.338,-3.5174,-3.6315,-3.6397,-3.6036,-3.5902,-3.5951,-3.572,-3.5588,-3.5467,-3.5033,-3.4516,-3.3856,-3.3335,-3.2738,-3.2169,-3.206,-3.1667,-3.1042,-2.993,-2.9326,-2.9035,-2.9099,-2.8908,-2.878,-2.9477,-2.9679,-2.9718,0.0,0.0,0.0,0.0,0.0,0.0,0.0,0.0,0.0,0.0,0.0,0.0,0.0,0.0,0.0,0.0,0.0,0.0,0.0,0.0,0.0,0.0,0.0,0.0,0.0,0.0,0.0,0.0,0.0,0.0,0.0,0.0,0.0,0.0,0.0,0.0,0.0,0.0,0.0,0.0,0.0,0.0,-1.5613,-1.456,-1.3673,-1.3008,-1.2833,-1.1983,-1.1387,-1.4096,-1.4618,-1.4741,-1.752,-1.7762,-1.6742,-1.566,0.0,-1.3048,-1.1571,-1.1989,-1.2797,-1.2881,-1.4188,-1.6215,0.0,0.0,-2.1168,-2.3258,-2.4718,-2.5968,-2.6804,-2.8187,-2.9584,-3.0729,-3.1391,-3.1743,-3.1647,-3.1662,-3.1618,-3.1618,-3.1618,-3.1618,-3.1618,-3.1618,-3.1607,-3.1542,-3.3505,-3.4451,-3.3897,-3.5758,-3.6658,-3.6123,-3.6492,-3.6385,-3.5951,-3.6289,-3.6239,-3.5629,-3.5113,-3.4516,-3.3856,-3.3335,-3.2738,-3.2155,-3.1612,-3.1056,-3.0459,-2.9767,-2.9195,-2.8716,-2.8972,-2.9099,-2.9099,-2.9803,-3.005,-3.0097,0.0,0.0,0.0,0.0,0.0,0.0,0.0,0.0,0.0,0.0,0.0,0.0,0.0,0.0,0.0,0.0,0.0,0.0,0.0,0.0,0.0,0.0,0.0,0.0,0.0,0.0,0.0,0.0,0.0,0.0,0.0,0.0,0.0,0.0,0.0,0.0,0.0,0.0,0.0,0.0,0.0,0.0,-1.5488,-1.4808,-1.4065,-1.3123,-1.2006,-1.1321,0.0,0.0,-1.3918,-1.4636,-1.7632,-1.7606,-1.6308,-1.5905,-1.4813,0.0,-1.4172,-1.3907,0.0,0.0,-1.7191,-1.8547,-2.2206,-2.2964,-2.3609,-2.6197,-2.7453,-2.8355,-2.9399,-3.0338,-3.1184,0.0,-3.1906,-3.2082,-3.1695,-3.1378,-3.1105,-3.0832,-3.104,-3.1313,-3.1597,-3.1618,-3.1618,-3.1618,-3.3001,-3.3985,-3.4438,-3.5781,-3.6909,-3.75,-3.7435,-3.7317,-3.7322,-3.6874,-3.6469,-3.6225,-3.5628,-3.4855,-3.3856,-3.3688,-3.3064,-3.2155,-3.1544,-3.1151,-3.0853,-2.9876,-2.9583,-2.9647,-2.9491,-2.9665,-2.996,-3.005,-3.0111,-3.0172,0.0,0.0,0.0,0.0,0.0,0.0,0.0,0.0,0.0,0.0,0.0,0.0,0.0,0.0,0.0,0.0,0.0,0.0,0.0,0.0,0.0,0.0,0.0,0.0,0.0,0.0,0.0,0.0,0.0,0.0,0.0,0.0,0.0,0.0,0.0,0.0,0.0,0.0,0.0,0.0,0.0,0.0,-1.5543,-1.4871,-1.4068,-1.3084,-1.1553,-1.0748,0.0,0.0,-1.2311,-1.3142,-1.6115,-1.6179,-1.5242,-1.5389,-1.471,-1.4117,-1.5419,0.0,0.0,-1.871,-2.0135,-2.1595,-2.4498,-2.5362,-2.6119,-2.839,-2.9153,-2.9695,-3.0689,-3.1388,-3.1855,-3.1841,-3.2169,-3.2154,-3.1509,-3.1007,-3.0537,-3.0067,-3.0188,-3.0504,-3.0985,-3.1389,-3.1575,-3.1433,-3.2821,-3.3993,-3.4775,-3.6118,-3.7361,-3.8408,-3.8176,-3.8148,-3.8336,-3.7379,-3.6768,-3.6592,-3.5832,-3.4936,-3.3856,-3.3531,-3.2983,-3.2155,-3.1721,-3.1436,-3.1219,-3.0337,-3.0211,-3.0401,-3.0031,-3.0168,-3.0571,-3.0352,-3.0233,-3.028,0.0,0.0,0.0,0.0,0.0,0.0,0.0,0.0,0.0,0.0,0.0,0.0,0.0,0.0,0.0,0.0,0.0,0.0,0.0,0.0,0.0,0.0,0.0,0.0,0.0,0.0,0.0,0.0,0.0,0.0,0.0,0.0,0.0,0.0,0.0,0.0,0.0,0.0,0.0,0.0,0.0,0.0,-1.6486,-1.4803,-1.3744,-1.291,-1.1815,0.0,0.0,0.0,-0.9894,-0.9809,-1.2541,-1.3539,0.0,-1.4472,-1.3942,0.0,0.0,0.0,-1.7705,-1.9063,-2.2655,-2.5824,-2.5953,-2.7633,-2.9271,-2.9839,-3.0141,-3.0474,-3.0724,-3.1398,-3.1862,-3.1614,-3.2066,-3.2033,-3.1061,-3.0526,-3.0057,-2.9565,-2.9095,-2.9019,0.0,-3.081,-3.1422,-3.0952,-3.3308,-3.4787,-3.4775,-3.6964,-3.82,-3.82,-3.8626,-3.8626,-3.8075,-3.7727,-3.7202,-3.6592,-3.5425,-3.4543,-3.3829,-3.2752,-3.2209,-3.2182,-3.2155,-3.1829,-3.13,-3.126,-3.0907,-3.0392,-3.0415,-3.0502,-3.0481,-3.0557,-3.0568,-3.0582,0.0,0.0,0.0,0.0,0.0,0.0,0.0,0.0,0.0,0.0,0.0,0.0,0.0,0.0,0.0,0.0,0.0,0.0,0.0,0.0,0.0,0.0,0.0,0.0,0.0,0.0,0.0,0.0,0.0,0.0,0.0,0.0,0.0,0.0,0.0,0.0,0.0,0.0,0.0,0.0,0.0,0.0,-1.4992,-1.3725,-1.251,-1.1312,0.0,0.0,0.0,0.0,-0.8626,-0.913,-1.0989,0.0,0.0,-1.1539,-1.2758,-1.4252,-1.6468,0.0,-1.9596,-2.3335,-2.4969,-2.64,-2.9341,-2.965,-2.9725,-3.0799,-2.932,-2.8146,-2.8827,-2.8177,-2.7808,-2.8972,-2.9652,-3.0089,-3.0395,-3.0308,-2.9794,-2.8659,-2.9237,0.0,0.0,0.0,0.0,-3.0865,-3.1727,-3.2845,-3.4166,-3.551,-3.6739,-3.7913,-3.8535,-3.8728,-3.8336,-3.7754,-3.7216,-3.6592,-3.5398,-3.4516,-3.3842,-3.3132,-3.2548,-3.2182,-3.2182,-3.206,-3.1843,-3.1719,-3.1626,-3.1666,-3.1519,-3.1316,-3.1078,-3.168,-3.1516,-3.1055,0.0,0.0,0.0,0.0,0.0,0.0,0.0,0.0,0.0,0.0,0.0,0.0,0.0,0.0,0.0,0.0,0.0,0.0,0.0,0.0,0.0,0.0,0.0,0.0,0.0,0.0,0.0,0.0,0.0,0.0,0.0,0.0,0.0,0.0,0.0,0.0,0.0,0.0,0.0,0.0,0.0,0.0,-1.2662,-1.198,-1.0948,0.0,0.0,0.0,0.0,0.0,0.0,0.0,-0.9619,-0.997,-0.9971,-1.1264,-1.2946,-1.5133,-1.8065,-1.9844,-2.1653,-2.5075,-2.6679,-2.7856,-3.0088,-3.0296,-2.9896,-2.9994,-2.797,-2.6063,-2.585,-2.4956,-2.4682,-2.6249,-2.7216,-2.8189,-2.951,-2.9543,-2.9216,-2.8626,-2.9074,-2.9085,0.0,0.0,0.0,-3.0341,-3.145,-3.2491,-3.3723,-3.5208,-3.6633,-3.7717,-3.8639,-3.883,-3.8423,-3.7826,-3.7121,-3.628,-3.5289,-3.4516,-3.3856,-3.3335,-3.2738,-3.2182,-3.2182,-3.2241,-3.2345,-3.2219,-3.2333,-3.2623,-3.2058,-3.1871,-3.191,-3.204,-3.1744,-3.1246,0.0,0.0,0.0,0.0,0.0,0.0,0.0,0.0,0.0,0.0,0.0,0.0,0.0,0.0,0.0,0.0,0.0,0.0,0.0,0.0,0.0,0.0,0.0,0.0,0.0,0.0,0.0,0.0,0.0,0.0,0.0,0.0,0.0,0.0,0.0,0.0,0.0,0.0,0.0,0.0,0.0,0.0,-0.9808,-0.9784,0.0,0.0,0.0,0.0,0.0,0.0,0.0,0.0,0.0,0.0,-1.2253,-1.3418,-1.453,-1.6071,-1.9255,-2.1677,-2.367,-2.4675,-2.7792,-3.0199,-2.8719,-2.9385,-2.9839,-2.771,-2.5937,-2.4198,0.0,0.0,-2.2573,-2.362,-2.4995,-2.6605,-2.8517,-2.844,-2.8506,0.0,0.0,0.0,0.0,0.0,0.0,-2.9521,0.0,-3.3758,-3.3323,-3.6112,-3.7717,-3.7717,-3.8742,-3.9007,-3.8423,-3.7799,-3.6904,-3.575,-3.5153,-3.457,-3.3896,-3.3376,-3.2779,-3.2223,-3.2182,-3.2372,-3.2704,-3.2704,-3.2988,-3.3213,-3.225,-3.2302,-3.2815,-3.1843,-3.1419,-3.1254,0.0,0.0,0.0,0.0,0.0,0.0,0.0,0.0,0.0,0.0,0.0,0.0,0.0,0.0,0.0,0.0,0.0,0.0,0.0,0.0,0.0,0.0,0.0,0.0,0.0,0.0,0.0,0.0,0.0,0.0,0.0,0.0,0.0,0.0,0.0,0.0,0.0,0.0,0.0,0.0,0.0,0.0,-0.8938,0.0,0.0,0.0,0.0,0.0,0.0,0.0,0.0,0.0,0.0,-1.1398,-1.322,-1.501,-1.6889,-1.9088,-2.2392,-2.3751,-2.5111,-2.8418,-2.8382,-2.8119,-3.0336,-2.8515,-2.6446,-2.652,-2.2827,-1.9574,0.0,0.0,0.0,-2.1946,-2.4616,0.0,-2.903,-2.9805,0.0,-2.9532,0.0,-2.9991,-2.9532,-3.0122,0.0,0.0,-3.1468,-3.2776,-3.373,-3.5101,-3.632,-3.7281,-3.8018,-3.8475,-3.8423,-3.7365,-3.6687,-3.6361,-3.5778,-3.5181,-3.4584,-3.3987,-3.3403,-3.282,-3.2372,-3.2241,-3.2372,-3.2931,-3.3199,-3.3325,-3.3585,-3.3431,-3.3196,-3.3479,-3.2915,-3.1828,0.0,0.0,0.0,0.0,0.0,0.0,0.0,0.0,0.0,0.0,0.0,0.0,0.0,0.0,0.0,0.0,0.0,0.0,0.0,0.0,0.0,0.0,0.0,0.0,0.0,0.0,0.0,0.0,0.0,0.0,0.0,0.0,0.0,0.0,0.0,0.0,0.0,0.0,0.0,0.0,0.0,0.0,0.0,0.0,0.0,0.0,0.0,0.0,0.0,0.0,0.0,-1.1231,-1.228,-1.38,-1.5545,-1.7314,0.0,-2.0966,-2.3954,-2.5225,-2.6396,-2.922,-2.848,-2.7359,-2.8357,-2.6271,-2.381,-2.2302,-1.9334,0.0,0.0,0.0,0.0,0.0,0.0,0.0,-2.8495,-2.9489,-3.0067,0.0,-3.0701,0.0,-3.045,-3.0908,-3.1206,0.0,-3.1661,-3.2449,-3.3296,-3.457,-3.5667,-3.6628,-3.7651,-3.8296,-3.8423,-3.7216,-3.6605,-3.6592,-3.5995,-3.5398,-3.4828,-3.4489,-3.3865,-3.3111,-3.2711,-3.2559,-3.2444,-3.3072,-3.3409,-3.3548,-3.3756,-3.3811,-3.3701,-3.3762,-3.304,-3.206,0.0,0.0,0.0,0.0,0.0,0.0,0.0,0.0,0.0,0.0,0.0,0.0,0.0,0.0,0.0,0.0,0.0,0.0,0.0,0.0,0.0,0.0,0.0,0.0,0.0,0.0,0.0,0.0,0.0,0.0,0.0,0.0,0.0,0.0,0.0,0.0,0.0,0.0,0.0,0.0,0.0,0.0,0.0,0.0,0.0,0.0,0.0,0.0,0.0,0.0,-1.2473,-1.4068,-1.5158,-1.6778,-1.8375,-1.9685,-2.0798,-2.2092,-2.4785,-2.604,-2.7056,-2.8601,-2.8187,-2.6802,-2.5102,-2.3502,-2.1227,-1.7366,0.0,-1.4982,-1.3919,-1.4629,-1.6321,-1.9327,0.0,-2.4266,-2.7665,-2.8604,-2.9587,-3.1323,-3.1214,-3.116,-3.1586,-3.1618,-3.1823,-3.2218,-3.2308,-3.2531,-3.2701,-3.4257,-3.5379,-3.5966,-3.7453,-3.8206,-3.8236,-3.7199,-3.6687,-3.6592,-3.5995,-3.5452,-3.495,-3.4869,-3.4272,-3.3295,-3.3213,-3.3096,-3.2866,-3.3283,-3.3663,-3.3943,-3.3606,-3.3913,-3.4361,-3.3491,-3.2698,-3.2044,0.0,0.0,0.0,0.0,0.0,0.0,0.0,0.0,0.0,0.0,0.0,0.0,0.0,0.0,0.0,0.0,0.0,0.0,0.0,0.0,0.0,0.0,0.0,0.0,0.0,0.0,0.0,0.0,0.0,0.0,0.0,0.0,0.0,0.0,0.0,0.0,0.0,0.0,0.0,0.0,0.0,0.0,0.0,0.0,0.0,0.0,0.0,0.0,0.0,0.0,-1.4088,-1.5487,-1.6912,-1.8573,-2.0106,-2.0933,-2.1711,-2.2876,-2.5235,-2.5469,-2.5844,-2.9113,-2.6873,-2.4149,-2.5385,-2.1537,0.0,0.0,0.0,-1.2414,-1.3238,-1.425,0.0,-2.0096,0.0,0.0,0.0,0.0,-3.022,0.0,0.0,0.0,0.0,0.0,0.0,0.0,-3.2117,-3.2778,-3.3714,-3.4471,-3.5199,-3.5966,-3.7453,-3.7923,-3.7533,-3.7375,-3.7107,-3.6592,-3.5995,-3.5669,-3.5547,-3.5058,-3.4719,-3.4502,-3.4,-3.3729,-3.3745,-3.3918,-3.4351,-3.4877,-3.4952,-3.4982,-3.4905,-3.471,-3.3458,-3.1767,0.0,0.0,0.0,0.0,0.0,0.0,0.0,0.0,0.0,0.0,0.0,0.0,0.0,0.0,0.0,0.0,0.0,0.0,0.0,0.0,0.0,0.0,0.0,0.0,0.0,0.0,0.0,0.0,0.0,0.0,0.0,0.0,0.0,0.0,0.0,0.0,0.0,0.0,0.0,0.0,0.0,0.0,0.0,0.0,0.0,0.0,0.0,0.0,0.0,0.0,-1.2952,-1.5302,-1.7866,-1.9431,-2.0456,-2.0798,-2.1655,-2.2916,-2.4641,-2.4779,-2.5184,-2.8643,-2.597,-2.2632,-2.3028,0.0,0.0,0.0,0.0,-1.1414,-1.2272,0.0,0.0,0.0,0.0,0.0,0.0,0.0,0.0,0.0,0.0,0.0,0.0,0.0,0.0,0.0,-3.2971,-3.3335,-3.3545,-3.4335,-3.5211,-3.5966,-3.7083,-3.7691,-3.7791,-3.7631,-3.7379,-3.708,-3.6157,-3.571,-3.571,-3.5425,-3.5126,-3.4814,-3.4529,-3.4153,-3.3919,-3.3998,-3.4176,-3.4396,-3.4464,-3.4432,-3.4293,-3.3927,-3.2861,-3.168,0.0,0.0,0.0,0.0,0.0,0.0,0.0,0.0,0.0,0.0,0.0,0.0,0.0,0.0,0.0,0.0,0.0,0.0,0.0,0.0,0.0,0.0,0.0,0.0,0.0,0.0,0.0,0.0,0.0,0.0,0.0,0.0,0.0,0.0,0.0,0.0,0.0,0.0,0.0,0.0,0.0,0.0,0.0,0.0,0.0,0.0,0.0,0.0,0.0,0.0,-1.1152,-1.387,-1.6945,-1.8796,-1.9828,-1.9828,-2.113,-2.273,-2.3703,-2.419,-2.4986,-2.7732,-2.5067,-2.1593,-2.0776,-1.7754,0.0,0.0,-1.0631,-1.0829,-1.148,0.0,0.0,0.0,0.0,0.0,0.0,0.0,0.0,0.0,0.0,0.0,0.0,0.0,0.0,0.0,-3.3815,-3.396,-3.3557,-3.4335,-3.5114,-3.5679,-3.6508,-3.7204,-3.7743,-3.7437,-3.729,-3.7311,-3.6225,-3.571,-3.571,-3.571,-3.5465,-3.5018,-3.4859,-3.451,-3.4079,-3.384,-3.384,-3.4025,-3.3954,-3.3823,-3.359,-3.2975,-3.2228,-3.1397,0.0,0.0,0.0,0.0,0.0,0.0,0.0,0.0,0.0,0.0,0.0,0.0,0.0,0.0,0.0,0.0,0.0,0.0,0.0,0.0,0.0,0.0,0.0,0.0,0.0,0.0,0.0,0.0,0.0,0.0,0.0,0.0,0.0,0.0,0.0,0.0,0.0,0.0,0.0,0.0,0.0,0.0,0.0,0.0,0.0,0.0,0.0,0.0,0.0,0.0,0.0,-1.1136,-1.2749,-1.5404,-1.8009,-1.8009,0.0,0.0,-2.2654,-2.3896,-2.5379,-2.6308,-2.3826,-2.0974,-2.0545,0.0,0.0,-1.1295,-1.0288,-1.0168,-1.1373,0.0,0.0,0.0,0.0,0.0,0.0,0.0,0.0,0.0,0.0,0.0,0.0,0.0,0.0,-3.3149,-3.4139,-3.4733,-3.4652,-3.4726,-3.4823,-3.492,-3.5679,-3.6188,-3.6405,-3.6498,-3.6524,-3.6673,-3.6022,-3.571,-3.571,-3.571,-3.5683,-3.5548,-3.4966,-3.4693,-3.46,-3.3964,-3.4043,-3.4629,-3.4579,-3.4139,-3.3498,-3.3417,-3.2272,-3.0687,0.0,0.0,0.0,0.0,0.0,0.0,0.0,0.0,0.0,0.0,0.0,0.0,0.0,0.0,0.0,0.0,0.0,0.0,0.0,0.0,0.0,0.0,0.0,0.0,0.0,0.0,0.0,0.0,0.0,0.0,0.0,0.0,0.0,0.0,0.0,0.0,0.0,0.0,0.0,0.0,0.0,0.0,0.0,0.0,0.0,0.0,0.0,0.0,0.0,0.0,0.0,0.0,-0.9128,-1.1066,0.0,0.0,-1.7714,-1.9947,-2.0761,-2.2716,-2.4715,-2.4748,-2.3302,-2.1256,-1.9247,0.0,0.0,-1.1003,-1.0109,-0.9855,-1.0375,-1.0512,-1.1072,0.0,0.0,0.0,0.0,0.0,0.0,0.0,0.0,0.0,0.0,0.0,0.0,-3.4135,-3.5124,-3.5513,-3.4871,-3.4823,-3.4823,-3.4823,-3.5584,-3.5881,-3.5609,-3.5763,-3.5622,-3.5391,-3.516,-3.4881,-3.4551,-3.4881,-3.4881,-3.4468,-3.4217,-3.4134,-3.4037,-3.372,-3.3675,-3.394,-3.3804,-3.3328,-3.2651,-3.2401,-3.1559,-3.057,0.0,0.0,0.0,0.0,0.0,0.0,0.0,0.0,0.0,0.0,0.0,0.0,0.0,0.0,0.0,0.0,0.0,0.0,0.0,0.0,0.0,0.0,0.0,0.0,0.0,0.0,0.0,0.0,0.0,0.0,0.0,0.0,0.0,0.0,0.0,0.0,0.0,0.0,0.0,0.0,0.0,0.0,0.0,0.0,0.0,0.0,0.0,0.0,0.0,0.0,0.0,0.0,0.0,0.0,0.0,0.0,-1.5323,-1.7793,-1.8983,-2.1632,-2.3876,-2.3776,-2.2604,-2.0791,0.0,0.0,-1.2764,-1.0735,-0.9999,-0.9683,-0.9683,-1.0045,-1.0404,0.0,0.0,0.0,0.0,0.0,0.0,0.0,0.0,0.0,0.0,0.0,-3.4028,-3.4769,-3.5793,-3.5942,-3.4883,-3.4823,-3.4823,-3.4823,-3.5245,-3.5355,-3.5158,-3.4981,-3.4767,-3.4632,-3.4491,-3.4134,-3.3725,-3.4217,-3.4134,-3.3713,-3.3471,-3.3386,-3.3386,-3.3227,-3.3056,-3.3043,-3.288,-3.2466,-3.1901,-3.1361,-3.0821,-3.0319,0.0,0.0,0.0,0.0,0.0,0.0,0.0,0.0,0.0,0.0,0.0,0.0,0.0,0.0,0.0,0.0,0.0,0.0,0.0,0.0,0.0,0.0,0.0,0.0,0.0,0.0,0.0,0.0,0.0,0.0,0.0,0.0,0.0,0.0,0.0,0.0,0.0,0.0,0.0,0.0,0.0,0.0,0.0,0.0,0.0,0.0,0.0,0.0,0.0,0.0,0.0,0.0,0.0,0.0,0.0,0.0,-1.3576,-1.7107,-1.7794,-2.0669,-2.3373,-2.3428,-2.148,-1.918,0.0,0.0,-1.1746,-1.056,-0.9999,-0.9683,-0.9683,-1.0045,-1.0312,-1.0321,0.0,0.0,0.0,0.0,0.0,0.0,0.0,0.0,0.0,0.0,-3.4739,-3.4839,-3.5795,0.0,-3.4883,-3.4823,-3.4823,-3.4823,-3.4318,-3.4421,-3.5146,-3.4077,-3.3872,-3.4632,-3.3982,-3.3713,-3.3713,-3.3713,-3.3713,-3.3628,-3.297,-3.2711,-3.2711,-3.2475,-3.2388,-3.2426,-3.2272,-3.1888,-3.1336,-3.0821,-3.0281,-2.9804,0.0,0.0,0.0,0.0,0.0,0.0,0.0,0.0,0.0,0.0,0.0,0.0,0.0,0.0,0.0,0.0,0.0,0.0,0.0,0.0,0.0,0.0,0.0,0.0,0.0,0.0,0.0,0.0,0.0,0.0,0.0,0.0,0.0,0.0,0.0,0.0,0.0,0.0,0.0,0.0,0.0,0.0,0.0,0.0,0.0,0.0,0.0,0.0,0.0,0.0,0.0,0.0,0.0,0.0,0.0,0.0,0.0,0.0,-1.4796,-1.6911,-1.8588,-1.8,-1.7486,-1.6503,-1.4183,0.0,-1.1333,-1.0164,-0.9805,-0.9683,-0.9683,-0.9824,-1.0266,-1.1371,-1.1718,0.0,0.0,0.0,0.0,0.0,0.0,0.0,0.0,0.0,-3.4231,-3.4223,-3.5258,-3.5569,-3.4871,-3.4823,-3.4823,-3.4823,-3.4667,-3.433,-3.3898,-3.3557,-3.3101,-3.2597,-3.2872,-3.2785,-3.2351,-3.2785,-3.2797,-3.2351,-3.2101,-3.2013,-3.2013,-3.23,-3.2167,-3.1798,-3.2122,-3.1662,-3.0834,-3.067,-3.0269,-2.9792,0.0,0.0,0.0,0.0,0.0,0.0,0.0,0.0,0.0,0.0,0.0,0.0,0.0,0.0,0.0,0.0,0.0,0.0,0.0,0.0,0.0,0.0,0.0,0.0,0.0,0.0,0.0,0.0,0.0,0.0,0.0,0.0,0.0,0.0,0.0,0.0,0.0,0.0,0.0,0.0,0.0,0.0,-0.6315,0.0,0.0,0.0,0.0,0.0,0.0,0.0,0.0,0.0,0.0,0.0,0.0,0.0,-0.8087,0.0,0.0,-1.4118,-1.546,-1.5018,-1.4893,0.0,0.0,0.0,0.0,-0.9667,-0.9612,-0.9683,-0.9683,-0.9802,-1.0233,-1.1279,-1.1783,0.0,0.0,0.0,0.0,0.0,0.0,0.0,0.0,-3.2833,-3.4,-3.3977,-3.502,-3.5388,-3.4859,-3.4823,-3.4823,-3.4823,-3.4451,-3.3933,-3.3296,-3.2875,-3.2334,-3.1673,-3.232,-3.2308,-3.1761,-3.232,-3.2308,-3.1661,-3.1661,-3.1661,0.0,-3.1981,-3.1872,-3.1515,-3.161,-3.121,-3.0595,-3.0382,-3.0093,-2.9767,0.0,0.0,0.0,0.0,0.0,0.0,0.0,0.0,0.0,0.0,0.0,0.0,0.0,0.0,0.0,0.0,0.0,0.0,0.0,0.0,0.0,0.0,0.0,0.0,0.0,0.0,0.0,0.0,-0.5856,-0.5435,-0.51,0.0,0.0,0.0,0.0,0.0,0.0,0.0,0.0,0.0,0.0,0.0,0.0,0.0,0.0,0.0,0.0,0.0,0.0,0.0,0.0,0.0,0.0,0.0,0.0,0.0,0.0,0.0,0.0,0.0,0.0,0.0,0.0,0.0,0.0,0.0,0.0,0.0,0.0,0.0,-0.971,-1.0063,-1.0349,-1.0468,-1.1453,0.0,0.0,0.0,0.0,0.0,0.0,0.0,-2.8813,-3.1945,-3.3853,-3.3977,-3.4885,-3.523,-3.4799,-3.4775,-3.4775,-3.4775,-3.3801,-3.3284,-3.3284,-3.2286,-3.1757,-3.1733,-3.2286,-3.2262,-3.1745,-3.2262,-3.2202,-3.1661,-3.1661,-3.1661,-3.1713,-3.1565,-3.1564,-3.1392,-3.0898,-3.062,-3.0495,-2.998,-2.9767,-2.9654,0.0,0.0,0.0,0.0,0.0,0.0,0.0,0.0,0.0,0.0,0.0,0.0,0.0,0.0,0.0,0.0,0.0,0.0,0.0,0.0,0.0,0.0,0.0,0.0,0.0,0.0,0.0,-0.5782,-0.5671,-0.5468,-0.5178,-0.5352,0.0,0.0,0.0,0.0,0.0,0.0,0.0,0.0,0.0,0.0,0.0,0.0,0.0,0.0,-0.5708,-0.5596,0.0,0.0,0.0,0.0,0.0,0.0,0.0,0.0,-0.6528,-0.68,-0.756,0.0,-0.9,-0.9169,-0.9123,0.0,0.0,0.0,0.0,0.0,0.0,0.0,0.0,0.0,0.0,-1.1951,0.0,0.0,0.0,0.0,0.0,0.0,0.0,0.0,-2.9965,-3.1649,-3.2959,-3.3358,-3.3948,-3.4288,-3.4162,-3.4234,-3.4234,-3.4234,-3.3621,-3.3284,-3.3284,-3.3032,-3.2707,-3.231,-3.2851,-3.2827,-3.231,-3.2442,-3.2202,-3.1661,-3.1661,-3.1661,-3.1749,-3.2066,-3.1699,-3.0913,-3.1148,-3.0708,-2.9967,-2.9842,-2.9515,-2.9114,0.0,0.0,0.0,0.0,0.0,0.0,0.0,0.0,0.0,0.0,0.0,0.0,0.0,0.0,0.0,0.0,0.0,0.0,0.0,0.0,0.0,0.0,0.0,0.0,0.0,0.0,0.0,0.0,0.0,-0.5462,0.0,0.0,0.0,0.0,0.0,0.0,0.0,0.0,0.0,0.0,-0.5477,0.0,0.0,0.0,0.0,0.0,-0.5708,-0.554,0.0,-0.5875,-0.6307,-0.657,0.0,0.0,0.0,0.0,-0.6399,-0.656,-0.6751,-0.7303,-0.7847,-0.7999,-0.8066,-0.81,0.0,0.0,0.0,0.0,0.0,0.0,0.0,0.0,0.0,0.0,0.0,0.0,0.0,0.0,0.0,0.0,0.0,-3.0941,0.0,-3.1817,-3.2521,-3.2835,-3.3116,-3.3364,-3.3672,-3.3648,-3.3744,-3.4042,-3.3777,-3.3633,-3.3633,-3.3404,-3.314,-3.2863,-3.3152,-3.3008,-3.2503,-3.2503,-3.2202,-3.1661,-3.1661,-3.1529,-3.1375,-3.1565,-3.1134,-3.0347,-3.0586,-3.0306,-2.9792,-2.9792,-2.9591,-2.9289,0.0,0.0,0.0,0.0,0.0,0.0,0.0,0.0,0.0,0.0,0.0,0.0,0.0,0.0,0.0,0.0,0.0,0.0,0.0,0.0,0.0,0.0,0.0,0.0,0.0,0.0,0.0,0.0,0.0,0.0,0.0,0.0,0.0,0.0,0.0,0.0,0.0,0.0,0.0,0.0,-0.5131,0.0,0.0,0.0,0.0,0.0,0.0,0.0,0.0,-0.5755,-0.6141,-0.6466,-0.6466,0.0,0.0,0.0,0.0,0.0,-0.6757,-0.7505,-0.8229,-0.8365,-0.8463,-0.8537,0.0,0.0,0.0,0.0,0.0,0.0,0.0,0.0,0.0,0.0,0.0,0.0,0.0,0.0,0.0,0.0,0.0,0.0,-3.1236,-3.175,-3.2096,-3.2185,-3.2279,-3.2552,-3.2966,-3.3121,-3.3457,-3.3851,-3.3947,-3.4042,-3.4042,-3.3537,-3.3284,-3.3284,-3.3284,-3.3008,-3.2503,-3.2503,-3.2202,-3.1661,-3.1577,-3.1375,-3.0917,-3.0807,-3.0433,-2.9973,-2.9936,-2.9867,-2.9792,-2.9792,-2.9741,-2.9566,0.0,0.0,0.0,0.0,0.0,0.0,0.0,0.0,0.0,0.0,0.0,0.0,0.0,0.0,0.0,0.0,0.0,0.0,0.0,0.0,0.0,0.0,0.0,0.0,0.0,0.0,0.0,0.0,0.0,0.0,-0.5882,-0.6343,-0.6198,0.0,0.0,0.0,-0.4806,-0.4985,-0.5068,-0.5131,-0.5358,0.0,0.0,0.0,0.0,0.0,0.0,0.0,0.0,-0.6186,-0.6687,-0.715,-0.715,0.0,0.0,0.0,0.0,0.0,-0.6836,-0.7582,-0.8157,-0.7948,-0.828,-0.8657,0.0,0.0,0.0,0.0,0.0,0.0,0.0,0.0,0.0,0.0,0.0,0.0,0.0,0.0,0.0,0.0,0.0,-3.0537,-2.9882,-3.0285,-3.0711,-3.1188,-3.1611,-3.1818,-3.1965,-3.2742,-3.3264,-3.3361,-3.3756,-3.4042,-3.4042,-3.3537,-3.3284,-3.3284,-3.3284,-3.3008,-3.2503,-3.2503,-3.2202,-3.1637,-3.1192,-3.1038,-3.1101,-3.0915,-3.0515,-3.0158,-3.0428,-3.0206,-2.9792,-2.9792,-2.9478,-2.8913,0.0,0.0,0.0,0.0,0.0,0.0,0.0,0.0,0.0,0.0,0.0,0.0,0.0,0.0,0.0,0.0,0.0,0.0,0.0,0.0,0.0,0.0,0.0,0.0,0.0,0.0,0.0,0.0,0.0,-0.6234,-0.5997,-0.61,-0.5882,-0.5371,0.0,0.0,-0.4812,-0.4896,-0.4928,-0.496,0.0,0.0,0.0,0.0,0.0,0.0,0.0,0.0,0.0,0.0,-0.6522,-0.6964,-0.6607,0.0,0.0,0.0,0.0,0.0,-0.6767,-0.7407,-0.8086,-0.8676,-0.8918,-0.9018,0.0,0.0,0.0,0.0,0.0,0.0,0.0,0.0,0.0,0.0,0.0,0.0,0.0,0.0,0.0,0.0,0.0,-3.0067,-2.9893,-3.0548,-3.0965,-3.0986,-3.1174,-3.1405,-3.1671,-3.1905,-3.2268,-3.2841,-3.3043,-3.3327,-3.3633,-3.3116,-3.3008,-3.3284,-3.2996,-3.2743,-3.2491,-3.219,-3.1757,-3.1216,-3.0975,-3.064,-3.0181,-3.0257,-2.9991,-2.9646,-2.9999,-3.0018,-2.9792,-2.9792,-2.9616,-2.9277,0.0,0.0,0.0,0.0,0.0,0.0,0.0,0.0,0.0,0.0,0.0,0.0,0.0,0.0,0.0,0.0,0.0,0.0,0.0,0.0,0.0,0.0,0.0,0.0,0.0,0.0,0.0,-0.5991,-0.6119,-0.6149,-0.6082,-0.5754,-0.5487,0.0,0.0,0.0,-0.4897,-0.4836,-0.4812,-0.4812,0.0,0.0,0.0,0.0,0.0,0.0,0.0,0.0,0.0,0.0,0.0,0.0,0.0,0.0,0.0,-0.5987,-0.6099,-0.6361,-0.6698,-0.7173,-0.7769,-0.8758,0.0,0.0,0.0,0.0,0.0,0.0,0.0,0.0,0.0,0.0,0.0,0.0,0.0,0.0,0.0,-2.4484,-2.5635,-2.6643,-2.8389,-2.9624,-2.9894,-3.0667,-3.0919,-3.0428,-3.0504,-3.0712,-3.1005,-3.1054,-3.1445,-3.23,-3.2394,-3.2723,-3.3104,-3.2575,-3.2575,-3.3104,-3.2563,-3.2298,-3.2286,-3.1733,-3.1264,-3.0867,-3.0615,-3.0133,-2.9362,-2.9646,-2.9499,-2.9209,-2.9624,-2.9792,-2.9792,-2.9792,-2.9704,-2.9515,0.0,0.0,0.0,0.0,0.0,0.0,0.0,0.0,0.0,0.0,0.0,0.0,0.0,0.0,0.0,0.0,0.0,0.0,0.0,0.0,0.0,0.0,0.0,0.0,0.0,-0.6283,-0.6276,-0.5991,-0.6501,-0.6623,-0.6374,-0.5845,-0.559,-0.556,0.0,0.0,-0.5159,-0.4915,-0.4812,-0.4812,-0.4812,0.0,0.0,0.0,0.0,0.0,0.0,0.0,0.0,0.0,0.0,0.0,0.0,0.0,-0.5975,-0.6183,-0.6291,-0.6386,-0.6714,-0.6908,-0.7057,-0.7013,0.0,0.0,0.0,0.0,0.0,0.0,0.0,0.0,0.0,0.0,0.0,0.0,0.0,0.0,-2.5051,0.0,-2.7415,-2.7221,-2.8638,-2.9537,-2.9257,-2.9473,-2.9434,-2.8953,-2.9325,-2.939,-2.9025,-3.0292,-3.1253,-3.1731,-3.2206,-3.2557,-3.2563,-3.201,-3.201,-3.2551,-3.1985,-3.1721,-3.1709,-3.1168,-3.0915,-3.0819,-2.9833,-2.9434,-2.9557,-2.923,-2.9234,-2.9431,-2.9702,-2.9792,-2.9792,-2.9792,-2.9453,-2.8913,0.0,0.0,0.0,0.0,0.0,0.0,0.0,0.0,0.0,0.0,0.0,0.0,0.0,0.0,0.0,0.0,0.0,0.0,0.0,0.0,0.0,0.0,0.0,-0.6193,-0.5751,-0.6013,-0.6015,-0.5748,-0.5954,-0.6003,-0.59,-0.5693,0.0,0.0,0.0,0.0,0.0,-0.5098,-0.4964,-0.4812,-0.4812,-0.4909,0.0,0.0,0.0,0.0,0.0,0.0,0.0,0.0,-0.6052,-0.6055,0.0,0.0,-0.5631,-0.5518,-0.5752,-0.6137,-0.6506,-0.7388,-0.8333,-0.9004,0.0,0.0,0.0,0.0,0.0,0.0,0.0,0.0,0.0,0.0,0.0,0.0,0.0,0.0,-2.4137,-2.5391,-2.6077,-2.5722,-2.6946,-2.7636,-2.7184,-2.8157,-2.87,-2.8529,-2.9364,-2.9718,-2.9237,-2.9745,-3.0276,-3.0709,-3.0974,-3.1187,-3.1492,-3.1276,-3.112,-3.0999,-3.0783,-3.0687,-3.0675,-3.047,-3.0206,-2.9869,-2.9472,-2.9181,-2.9083,-2.9126,-2.9197,-2.9419,-2.9702,-2.9792,-2.9792,-2.9792,-2.9654,-2.939,0.0,0.0,0.0,0.0,0.0,0.0,0.0,0.0,0.0,0.0,0.0,0.0,0.0,0.0,0.0,0.0,0.0,0.0,0.0,0.0,0.0,0.0,0.0,-0.6151,-0.563,-0.5791,-0.574,-0.5484,-0.5559,-0.5639,-0.5718,0.0,0.0,0.0,0.0,0.0,0.0,0.0,-0.4976,-0.4818,-0.4903,-0.5043,0.0,0.0,0.0,0.0,0.0,0.0,0.0,0.0,0.0,0.0,0.0,0.0,0.0,0.0,-0.5589,-0.5983,-0.6337,-0.753,-0.8835,0.0,0.0,0.0,0.0,0.0,0.0,0.0,0.0,0.0,0.0,0.0,0.0,0.0,-2.2282,-2.3428,-2.3703,-2.4674,-2.5112,-2.4562,-2.5752,-2.6416,-2.5978,-2.7301,-2.8105,-2.7872,-2.858,-2.8866,-2.8386,-2.8495,-2.881,-2.9274,-2.9573,-2.9934,-3.0386,-3.0374,-3.0194,-2.9833,-2.9677,-2.9761,-3.0074,-2.9917,-2.9641,-2.9292,-2.9124,-2.8915,-2.8724,-2.8973,-2.9287,-2.9509,-2.9501,-2.9628,-2.9792,-2.9792,-2.9792,-2.9704,0.0,0.0,0.0,0.0,0.0,0.0,0.0,0.0,0.0,0.0,0.0,0.0,0.0,0.0,0.0,0.0,0.0,0.0,0.0,0.0,0.0,0.0,0.0,-0.6157,-0.563,-0.5585,-0.5466,-0.5179,-0.5447,-0.573,-0.5985,0.0,0.0,0.0,0.0,0.0,0.0,0.0,-0.4812,-0.4836,-0.5098,-0.5207,-0.5268,0.0,0.0,0.0,0.0,0.0,0.0,0.0,-0.5414,0.0,0.0,0.0,0.0,0.0,-0.589,-0.5959,-0.623,-0.7209,0.0,0.0,0.0,0.0,0.0,0.0,0.0,0.0,0.0,0.0,0.0,0.0,0.0,-2.0539,-2.2557,-2.4134,-2.4143,-2.4849,-2.506,-2.4235,-2.5623,-2.6352,-2.6039,-2.6967,-2.7379,-2.6949,-2.67,-2.6409,-2.5917,-2.6354,-2.6801,-2.7185,-2.8161,-2.8873,-2.9292,-2.928,-2.928,-2.9268,-2.8751,-2.9051,-3.0062,-2.9532,-2.9292,-2.9256,-2.8739,-2.851,-2.851,-2.8895,-2.9365,-2.9716,-2.9151,-2.9277,-2.9779,-2.9779,-2.9779,-2.9704,0.0,0.0,0.0,0.0,0.0,0.0,0.0,0.0,0.0,0.0,0.0,0.0,0.0,0.0,0.0,0.0,0.0,0.0,0.0,0.0,0.0,0.0,0.0,0.0,0.0,0.0,-0.4704,-0.4565,-0.4791,-0.4953,0.0,0.0,0.0,-0.5583,0.0,0.0,0.0,0.0,0.0,-0.5092,-0.5171,-0.5426,-0.5772,0.0,0.0,0.0,0.0,0.0,0.0,0.0,0.0,0.0,0.0,0.0,0.0,-0.518,-0.5848,-0.6595,-0.7452,-0.9241,0.0,0.0,0.0,0.0,0.0,0.0,0.0,0.0,0.0,0.0,0.0,0.0,0.0,-2.1741,-2.2401,-2.307,-2.3639,-2.418,-2.4216,-2.3409,-2.3444,-2.3429,-2.3028,-2.386,-2.4553,-2.4737,-2.5562,-2.5895,-2.5415,-2.5852,-2.6302,-2.6691,-2.73,-2.7813,-2.8198,-2.8186,-2.8005,-2.7633,-2.7849,-2.8318,-2.8979,-2.8823,-2.8751,-2.8739,-2.8582,-2.8578,-2.87,-2.87,-2.8712,-2.8586,-2.8411,-2.8461,-2.8649,-2.9038,-2.9189,-2.9101,0.0,0.0,0.0,0.0,0.0,0.0,0.0,0.0,0.0,0.0,0.0,0.0,0.0,0.0,0.0,0.0,0.0,0.0,0.0,0.0,0.0,0.0,0.0,0.0,0.0,-0.4512,-0.4016,0.0,0.0,0.0,0.0,0.0,0.0,-0.5219,0.0,0.0,0.0,0.0,0.0,-0.5225,-0.5432,-0.5705,-0.6003,0.0,0.0,0.0,0.0,0.0,0.0,0.0,0.0,0.0,0.0,0.0,0.0,-0.5096,-0.6001,-0.7003,-0.7853,0.0,0.0,0.0,0.0,0.0,0.0,0.0,0.0,0.0,0.0,0.0,0.0,0.0,0.0,-2.2236,-2.2465,-2.2749,-2.314,-2.3373,-2.3244,-2.2758,-2.2346,-2.1997,-2.1759,-2.239,-2.2918,-2.3176,-2.4065,-2.4568,-2.4277,-2.4708,-2.5134,-2.5347,-2.6153,-2.6674,-2.6788,-2.722,-2.7248,-2.6935,-2.726,-2.7572,-2.7885,-2.8102,-2.8089,-2.7885,-2.7885,-2.8028,-2.8289,-2.7964,-2.7977,-2.8084,-2.7871,-2.7908,-2.8147,-2.8473,-2.8599,-2.8549,0.0,0.0,0.0,0.0,0.0,0.0,0.0,0.0,0.0,0.0,0.0,0.0,0.0,0.0,0.0,0.0,0.0,0.0,0.0,0.0,0.0,0.0,0.0,0.0,0.0,0.0,0.0,0.0,0.0,0.0,0.0,0.0,-0.4456,-0.4658,0.0,-0.4599,0.0,0.0,-0.5197,-0.5281,-0.5796,-0.6009,-0.6058,-0.6319,0.0,0.0,0.0,0.0,0.0,0.0,0.0,0.0,0.0,0.0,-0.4525,-0.5253,-0.6222,-0.7192,0.0,0.0,0.0,0.0,0.0,0.0,0.0,0.0,0.0,0.0,0.0,0.0,0.0,-2.164,-2.142,-2.2199,-2.2584,-2.2711,-2.2747,-2.2511,-2.2254,-2.2217,-2.1869,-2.1612,-2.1575,-2.1796,-2.2051,-2.2051,-2.2452,-2.2699,-2.2699,-2.3339,-2.3611,-2.3615,-2.4858,-2.55,-2.5471,-2.6315,-2.6779,-2.6779,-2.6827,-2.6827,-2.6803,-2.738,-2.7392,-2.6935,-2.6935,-2.7124,-2.7336,-2.6918,-2.7185,-2.7908,-2.7406,-2.7519,-2.7959,-2.8009,-2.8034,-2.8034,0.0,0.0,0.0,0.0,0.0,0.0,0.0,0.0,0.0,0.0,0.0,0.0,0.0,0.0,0.0,0.0,0.0,0.0,0.0,0.0,0.0,0.0,0.0,0.0,0.0,0.0,0.0,0.0,0.0,0.0,0.0,0.0,0.0,-0.4214,0.0,-0.435,0.0,0.0,-0.5329,-0.5554,-0.5863,-0.6125,-0.6331,-0.6392,-0.6416,0.0,0.0,0.0,0.0,0.0,0.0,0.0,-0.4229,-0.4369,-0.4496,-0.5028,-0.5896,-0.7053,0.0,0.0,0.0,0.0,0.0,0.0,0.0,0.0,0.0,0.0,0.0,0.0,0.0,-2.1493,-2.1759,-2.2245,-2.186,-2.1621,-2.1951,-2.1924,-2.1741,-2.141,-2.1016,-2.0659,-2.0347,-2.0504,-2.0649,-2.0649,-2.1659,-2.2248,-2.2248,-2.2854,-2.326,-2.3604,-2.4175,-2.4696,-2.4954,-2.5397,-2.5661,-2.5661,-2.6081,-2.6057,-2.5685,-2.6671,-2.7043,-2.6935,-2.6935,-2.6831,-2.6639,-2.6686,-2.668,-2.6606,-2.6691,-2.6703,-2.6866,-2.7306,-2.7457,-2.7457,0.0,0.0,0.0,0.0,0.0,0.0,0.0,0.0,0.0,0.0,0.0,0.0,0.0,0.0,0.0,0.0,0.0,0.0,0.0,0.0,0.0,0.0,0.0,0.0,0.0,0.0,0.0,0.0,0.0,0.0,0.0,0.0,0.0,-0.3876,0.0,-0.424,0.0,0.0,-0.5314,-0.5464,-0.563,-0.5838,-0.6002,-0.6044,-0.6133,-0.6173,-0.5888,0.0,0.0,0.0,0.0,0.0,0.0,0.0,-0.4661,-0.4998,-0.5847,-0.7019,0.0,0.0,0.0,0.0,0.0,0.0,0.0,0.0,0.0,0.0,0.0,0.0,-2.0906,-2.1154,-2.1447,-2.1456,-2.1264,-2.1117,-2.1145,-2.0989,-2.0796,-2.0567,-2.0182,-1.9852,-1.965,-1.9748,-1.9775,-1.9775,-2.0624,-2.1175,-2.1175,-2.209,-2.2703,-2.2852,-2.3519,-2.4116,-2.449,-2.4909,-2.5111,-2.5312,-2.5588,-2.5576,-2.5324,-2.5901,-2.6154,-2.6154,-2.6154,-2.607,-2.6019,-2.6257,-2.6239,-2.6201,-2.6396,-2.6533,-2.6559,-2.6779,-2.6892,-2.6892,0.0,0.0,0.0,0.0,0.0,0.0,0.0,0.0,0.0,0.0,0.0,0.0,0.0,0.0,0.0,0.0,0.0,0.0,0.0,0.0,0.0,0.0,0.0,0.0,0.0,0.0,0.0,0.0,0.0,0.0,0.0,0.0,0.0,-0.3456,0.0,0.0,0.0,0.0,0.0,-0.528,-0.5446,-0.559,-0.5665,-0.5751,-0.5841,-0.5924,-0.5924,-0.5724,-0.5395,-0.4958,0.0,0.0,0.0,0.0,-0.4838,-0.4985,-0.5716,-0.6756,0.0,0.0,0.0,0.0,0.0,0.0,0.0,0.0,0.0,0.0,0.0,-2.0521,-2.0521,-2.0732,-2.0796,-2.0466,-2.0576,-2.0576,-2.0255,-1.987,-1.9613,-1.9613,-1.9375,-1.9201,-1.9201,-1.9265,-1.9274,-1.9201,-1.9806,-2.0178,-2.0034,-2.1253,-2.1975,-2.1985,-2.2944,-2.37,-2.4062,-2.4434,-2.4803,-2.5035,-2.5035,-2.5035,-2.5035,-2.5035,-2.5143,-2.5312,-2.5312,-2.5382,-2.5535,-2.5758,-2.598,-2.6131,-2.6327,-2.6465,-2.6465,-2.6465,-2.6533,-2.6533,0.0,0.0,0.0,0.0,0.0,0.0,0.0,0.0,0.0,0.0,0.0,0.0,0.0,0.0,0.0,0.0,0.0,0.0,-0.5787,0.0,0.0,-0.4316,0.0,0.0,0.0,0.0,0.0,0.0,0.0,0.0,0.0,0.0,0.0,0.0,0.0,0.0,0.0,0.0,0.0,-0.5167,-0.5716,-0.5951,-0.5951,-0.5951,-0.5845,-0.5651,-0.5651,-0.5335,-0.4903,-0.4836,-0.466,0.0,0.0,0.0,-0.4812,-0.4838,-0.5067,0.0,0.0,0.0,0.0,0.0,0.0,0.0,0.0,0.0,0.0,0.0,-1.9549,-2.0521,-2.0521,-2.0283,-2.0072,-2.0017,-1.9457,-1.9017,-1.8962,-1.8614,-1.8366,-1.8366,-1.8614,-1.8788,-1.8788,-1.91,-1.9164,-1.8815,-1.9656,-1.9918,-1.9178,-2.0602,-2.1492,-2.1555,-2.2512,-2.318,-2.3475,-2.3886,-2.408,-2.3977,-2.3977,-2.3977,-2.3977,-2.3977,-2.4458,-2.5312,-2.5312,-2.5312,-2.5382,-2.5535,-2.5676,-2.5688,-2.6119,-2.627,-2.627,-2.6465,-2.6533,-2.6533,0.0,0.0,0.0,0.0,0.0,0.0,0.0,0.0,0.0,0.0,0.0,0.0,0.0,0.0,0.0,-0.5712,-0.5491,-0.5178,-0.4735,-0.443,-0.4085,-0.3609,-0.3388,0.0,0.0,0.0,0.0,0.0,0.0,0.0,0.0,-0.2623,-0.2734,0.0,0.0,0.0,0.0,0.0,0.0,0.0,0.0,-0.4789,-0.511,-0.5045,-0.5076,-0.5119,-0.5317,-0.5225,-0.5007,-0.4861,-0.4733,-0.4654,-0.4776,0.0,0.0,0.0,0.0,0.0,0.0,0.0,0.0,0.0,0.0,0.0,0.0,0.0,0.0,0.0,-1.8183,-1.8898,-1.9136,-1.9036,-1.8916,-1.8916,-1.8614,-1.8385,-1.8385,-1.8229,-1.8128,-1.8128,-1.8476,-1.8715,-1.8715,-1.8871,-1.8898,-1.8724,-1.8898,-1.8864,-1.8489,-1.98,-2.0483,-2.0555,-2.1582,-2.245,-2.3018,-2.3213,-2.345,-2.3773,-2.3773,-2.3773,-2.3773,-2.3773,-2.4169,-2.4867,-2.4867,-2.5035,-2.5312,-2.5535,-2.5606,-2.5606,-2.591,-2.6131,-2.6213,-2.627,-2.6396,-2.6533,0.0,0.0,0.0,0.0,0.0,0.0,0.0,0.0,0.0,0.0,0.0,0.0,0.0,0.0,0.0,0.0,-0.5009,-0.457,-0.3734,-0.369,-0.347,-0.2993,-0.2993,-0.2951,0.0,0.0,0.0,0.0,0.0,0.0,-0.255,-0.2642,-0.2791,0.0,-0.3005,0.0,0.0,0.0,0.0,0.0,0.0,0.0,0.0,0.0,-0.4475,-0.4733,-0.5012,-0.5156,-0.5165,-0.4897,-0.4812,-0.4812,-0.4812,-0.4812,0.0,0.0,0.0,0.0,0.0,0.0,0.0,0.0,0.0,0.0,0.0,0.0,0.0,0.0,-1.6826,-1.7128,-1.7449,-1.7844,-1.8128,-1.8128,-1.8036,-1.7963,-1.7963,-1.7789,-1.7669,-1.7669,-1.7926,-1.8109,-1.8109,-1.8192,-1.821,-1.8109,-1.7926,-1.7724,-1.7513,-1.8498,-1.9113,-1.9113,-2.0111,-2.1081,-2.1822,-2.1973,-2.2309,-2.2762,-2.2829,-2.2823,-2.2692,-2.2822,-2.3152,-2.3647,-2.4261,-2.4747,-2.5119,-2.5405,-2.5535,-2.5535,-2.5758,-2.5758,-2.5758,-2.584,-2.5886,-2.5791,0.0,0.0,0.0,0.0,0.0,0.0,0.0,0.0,0.0,0.0,0.0,0.0,0.0,-0.5847,-0.5761,-0.5145,-0.47,-0.4041,-0.312,-0.3031,-0.2993,-0.2912,-0.2912,0.0,-0.2912,0.0,0.0,0.0,0.0,0.0,-0.2675,-0.2683,-0.2623,-0.2551,-0.2551,-0.2551,-0.2598,0.0,0.0,0.0,0.0,0.0,0.0,0.0,0.0,0.0,0.0,0.0,-0.5165,-0.4897,-0.4812,-0.4812,-0.4812,-0.4812,-0.4812,0.0,0.0,0.0,0.0,0.0,0.0,0.0,0.0,0.0,0.0,0.0,0.0,0.0,-1.5771,-1.579,-1.5808,-1.7082,-1.8128,-1.8128,-1.7789,-1.7523,-1.7523,-1.6881,-1.6413,-1.6413,-1.6431,-1.6441,-1.6441,-1.678,-1.6844,-1.6468,-1.6771,-1.6633,-1.5863,-1.6703,-1.7253,-1.73,-1.7881,-1.8583,-1.9347,-2.0033,-2.0182,-1.9934,-2.0274,-2.0183,-1.9621,-2.0094,-2.0567,-2.1207,-2.352,-2.4542,-2.4602,-2.5107,-2.5312,-2.5312,-2.5535,-2.5158,-2.4564,-2.4933,-2.4564,-2.3963,0.0,0.0,0.0,0.0,0.0,0.0,0.0,0.0,0.0,0.0,0.0,0.0,0.0,-0.5328,-0.4975,-0.436,-0.3691,-0.3205,-0.2946,-0.2875,-0.2827,-0.2907,-0.2912,-0.2912,-0.2912,0.0,0.0,0.0,0.0,-0.265,-0.2463,-0.2615,-0.2618,-0.2503,-0.2582,-0.2618,-0.2669,-0.3004,0.0,0.0,0.0,0.0,0.0,0.0,0.0,0.0,0.0,0.0,0.0,-0.5692,-0.5608,-0.5316,-0.5316,-0.5086,-0.4812,0.0,0.0,0.0,0.0,0.0,0.0,0.0,0.0,0.0,0.0,0.0,0.0,-1.3662,-1.4378,-1.501,-1.5267,-1.5991,-1.656,-1.656,-1.6441,-1.634,-1.634,-1.6092,-1.5909,-1.5909,-1.6156,-1.6321,-1.6321,-1.645,-1.6468,-1.6331,-1.6202,-1.5991,-1.5707,-1.6334,-1.6732,-1.6722,-1.7243,-1.7874,-1.8497,-1.8945,-1.9157,-1.9097,-1.9275,-1.9388,-1.9375,-1.955,-1.9899,-2.0457,-2.1655,-2.2389,-2.273,-2.3219,-2.3353,-2.3387,-2.3788,-2.3829,-2.3672,-2.3818,-2.3745,-2.3599,0.0,0.0,0.0,0.0,0.0,0.0,0.0,0.0,0.0,0.0,0.0,0.0,0.0,0.0,-0.4408,-0.3792,-0.3138,-0.2824,-0.2907,-0.2835,-0.2824,-0.2907,-0.2912,-0.2912,-0.2912,-0.2871,0.0,0.0,0.0,0.0,0.0,0.0,-0.258,-0.2506,-0.2629,0.0,0.0,0.0,0.0,-0.3147,0.0,0.0,-0.3255,0.0,0.0,0.0,0.0,0.0,0.0,0.0,-0.6052,-0.5596,0.0,0.0,0.0,0.0,0.0,0.0,0.0,0.0,0.0,0.0,0.0,0.0,0.0,0.0,0.0,-1.2379,-1.3341,-1.4185,-1.4451,-1.4818,-1.5212,-1.5625,-1.5689,-1.5689,-1.5689,-1.5579,-1.5487,-1.5487,-1.5625,-1.5716,-1.5716,-1.5716,-1.5716,-1.5716,-1.545,-1.5294,-1.5294,-1.566,-1.5837,-1.5837,-1.6331,-1.682,-1.7363,-1.7711,-1.7938,-1.7949,-1.811,-1.8226,-1.829,-1.8607,-1.8923,-1.9251,-1.9705,-2.0511,-2.1468,-2.1941,-2.2155,-2.233,-2.2659,-2.2731,-2.2713,-2.2798,-2.2615,-2.239,0.0,0.0,0.0,0.0,0.0,0.0,0.0,0.0,0.0,0.0,0.0,0.0,0.0,0.0,0.0,-0.3442,-0.3084,-0.2907,-0.2912,-0.2909,-0.2907,-0.2912,-0.2909,-0.2907,-0.2912,-0.2743,0.0,0.0,0.0,0.0,0.0,0.0,-0.2503,0.0,-0.2637,-0.2691,-0.2691,0.0,-0.2688,-0.2696,0.0,-0.2915,-0.294,0.0,0.0,0.0,-0.5403,-0.619,0.0,-0.6591,0.0,0.0,0.0,0.0,0.0,0.0,0.0,0.0,0.0,0.0,0.0,0.0,0.0,0.0,0.0,0.0,-1.1318,-1.1966,-1.269,-1.325,-1.3286,-1.3607,-1.4249,-1.5432,-1.5643,-1.5652,-1.5652,-1.5313,-1.5065,-1.5084,-1.4735,-1.4488,-1.4488,-1.4506,-1.4506,-1.4497,-1.4506,-1.4515,-1.4515,-1.4515,-1.4515,-1.4515,-1.4951,-1.541,-1.5874,-1.6265,-1.6368,-1.6255,-1.6708,-1.6637,-1.6154,-1.6963,-1.7373,-1.7402,-1.7832,-1.9043,-2.0828,-2.1377,-2.1848,-2.2182,-2.2204,-2.1987,-2.1725,-2.1983,-2.1241,-2.0192,0.0,0.0,0.0,0.0,0.0,0.0,0.0,0.0,0.0,0.0,0.0,0.0,0.0,0.0,-0.3486,-0.3087,-0.2873,-0.2816,-0.2907,-0.2827,-0.2818,-0.2907,-0.2827,-0.2818,-0.2909,-0.2661,0.0,0.0,0.0,0.0,0.0,0.0,0.0,0.0,-0.2805,-0.286,-0.286,-0.286,0.0,0.0,-0.2914,-0.2947,0.0,0.0,0.0,0.0,0.0,-0.6066,-0.6425,0.0,-0.6905,-0.6052,0.0,0.0,0.0,0.0,0.0,0.0,-0.4934,0.0,0.0,0.0,0.0,0.0,0.0,0.0,0.0,-1.1278,-1.1828,-1.225,-1.3131,-1.3387,-1.3571,-1.3901,-1.4451,-1.4836,-1.4836,-1.4478,-1.4332,-1.4643,-1.4304,-1.4057,-1.4057,-1.4332,-1.4387,0.0,-1.4341,-1.4515,-1.4515,-1.4515,-1.4515,-1.4515,-1.4625,-1.4784,-1.5001,-1.5303,-1.543,-1.5488,-1.5713,-1.593,-1.6145,-1.665,-1.709,-1.7402,-1.7832,-1.8339,-1.8819,-1.9253,-1.9495,-1.9646,-1.997,-2.0109,-1.9999,-2.0082,-1.9855,-1.9576,0.0,0.0,0.0,0.0,0.0,0.0,0.0,0.0,0.0,0.0,0.0,0.0,0.0,0.0,-0.2965,-0.2758,-0.265,-0.2639,-0.271,-0.2648,-0.2639,-0.271,-0.2648,-0.2642,-0.2713,-0.2528,-0.243,0.0,0.0,0.0,0.0,0.0,0.0,0.0,0.0,0.0,0.0,0.0,0.0,0.0,-0.2936,0.0,0.0,-0.3532,-0.389,0.0,0.0,0.0,-0.6877,-0.7376,-0.7195,0.0,0.0,0.0,0.0,0.0,0.0,0.0,0.0,0.0,0.0,0.0,0.0,0.0,-0.7074,-0.7757,-0.862,0.0,-1.0737,-1.1049,-1.2085,-1.214,-1.214,-1.2489,-1.3075,-1.3616,-1.3956,-1.3791,-1.3736,-1.3974,-1.3791,-1.3635,-1.3635,-1.3864,-1.3901,-1.3653,-1.402,-1.4332,-1.4506,-1.4515,-1.4515,-1.4515,-1.4515,-1.4556,-1.4715,-1.4843,-1.4961,-1.5215,-1.5254,-1.5498,-1.5811,-1.625,-1.6592,-1.6865,-1.748,-1.7744,-1.7783,-1.8203,-1.8477,-1.8662,-1.8916,-1.9131,-1.9287,-1.9287,-1.918,-1.9053,0.0,0.0,0.0,0.0,0.0,0.0,0.0,0.0,0.0,0.0,0.0,0.0,0.0,0.0,0.0,0.0,-0.2528,-0.2536,-0.2523,-0.2523,-0.2528,-0.2542,-0.2514,-0.2509,-0.2523,-0.236,-0.2301,-0.2315,0.0,0.0,0.0,0.0,0.0,0.0,0.0,0.0,0.0,0.0,0.0,-0.2994,-0.2944,-0.3039,0.0,0.0,-0.4324,-0.5091,-0.538,-0.6437,-0.7602,-0.7139,-0.7059,0.0,0.0,0.0,0.0,0.0,-0.4971,0.0,0.0,0.0,0.0,0.0,0.0,0.0,-0.6371,-0.7231,-0.8264,-0.9421,-0.9609,-0.9833,-1.0625,-1.0487,-1.0487,-1.1168,-1.1654,-1.2259,-1.3167,-1.325,-1.3241,-1.3286,-1.325,-1.3222,-1.3222,-1.3268,-1.3277,-1.3231,-1.3635,-1.4047,-1.4423,-1.4488,-1.4515,-1.4515,-1.4515,-1.4556,-1.4656,-1.4715,-1.4834,-1.5147,-1.5156,-1.5264,-1.5371,-1.5869,-1.6125,-1.6174,-1.6943,-1.7314,-1.7344,-1.7764,-1.8184,-1.8494,-1.8494,-1.8809,-1.915,-1.915,-1.8896,-1.8574,-0.4471,0.0,0.0,0.0,0.0,0.0,0.0,0.0,0.0,0.0,0.0,0.0,0.0,0.0,0.0,0.0,-0.2683,-0.2796,-0.2656,-0.265,-0.2694,-0.2835,-0.2607,-0.2547,-0.2648,-0.2441,-0.2342,-0.2468,0.0,0.0,0.0,0.0,0.0,0.0,0.0,0.0,0.0,0.0,0.0,-0.3008,-0.3123,0.0,-0.3392,-0.3916,-0.4309,-0.4627,-0.5334,-0.5777,-0.6072,-0.6112,-0.6628,-0.703,0.0,0.0,0.0,0.0,0.0,0.0,0.0,0.0,0.0,0.0,0.0,0.0,-0.7012,-0.734,-0.7835,-0.9193,-0.9076,-0.8986,-0.9805,-0.9888,-0.9888,-1.0045,-1.0671,-1.1656,-1.3085,-1.3002,-1.2963,-1.325,-1.2993,-1.2834,-1.2834,-1.3094,-1.3158,-1.2862,-1.347,-1.3919,-1.4002,-1.4332,-1.4515,-1.4515,-1.4515,-1.4506,-1.4565,-1.4666,-1.4715,-1.4775,-1.5088,-1.5215,-1.5283,-1.5809,-1.6125,-1.6154,-1.6621,-1.6855,-1.6894,-1.7324,-1.7754,-1.8135,-1.8135,-1.8184,-1.8262,-1.8262,-1.8203,-1.8184,-0.3873,0.0,0.0,0.0,0.0,0.0,0.0,0.0,0.0,0.0,0.0,0.0,0.0,0.0,0.0,0.0,0.0,0.0,0.0,-0.2542,-0.2536,-0.2599,-0.2425,-0.2317,-0.2416,-0.2325,-0.2323,-0.2416,0.0,0.0,0.0,0.0,0.0,0.0,0.0,0.0,0.0,0.0,-0.3116,-0.3183,-0.3134,0.0,-0.3615,-0.3975,-0.4308,-0.4594,-0.4942,-0.5451,-0.5958,-0.6222,-0.6792,0.0,0.0,-0.6112,-0.5979,0.0,-0.5578,-0.5327,0.0,0.0,0.0,-0.5161,0.0,0.0,0.0,-0.6787,-0.7238,-0.8666,-0.8383,-0.8097,-0.8958,-0.8738,-0.8592,-0.9041,-0.9446,-1.0095,-1.1213,-1.1944,-1.2503,-1.2663,-1.2498,-1.242,-1.242,-1.2562,-1.2681,-1.2715,-1.3048,-1.3369,-1.358,-1.3974,-1.4194,-1.4194,-1.4405,-1.4515,-1.4515,-1.4556,-1.4606,-1.4715,-1.4902,-1.5029,-1.5225,-1.5486,-1.5692,-1.5762,-1.6211,-1.6396,-1.6436,-1.6875,-1.7187,-1.7412,-1.7842,-1.8008,-1.8008,-1.8008,-1.8008,-1.8037,-0.3428,0.0,0.0,0.0,0.0,0.0,0.0,0.0,0.0,0.0,0.0,0.0,0.0,0.0,0.0,0.0,0.0,0.0,0.0,0.0,-0.2363,-0.2363,-0.2248,-0.2173,-0.2152,-0.2267,-0.2328,-0.2328,0.0,0.0,0.0,0.0,0.0,0.0,0.0,0.0,0.0,0.0,0.0,-0.3402,0.0,-0.3439,-0.3851,-0.4063,-0.4309,-0.4651,-0.4648,-0.5342,-0.6242,-0.6559,-0.7097,-0.7552,-0.686,-0.6574,0.0,0.0,0.0,0.0,0.0,0.0,0.0,0.0,0.0,-0.5397,0.0,0.0,0.0,-0.7762,-0.7493,0.0,0.0,0.0,0.0,0.0,0.0,0.0,0.0,-1.0374,0.0,-1.1513,-1.1618,-1.1673,-1.178,-1.1984,-1.2204,-1.2577,-1.2678,-1.2862,-1.3158,-1.3552,-1.3772,-1.3772,-1.4176,-1.4387,-1.4387,-1.4469,-1.4565,-1.4656,-1.4715,-1.4834,-1.5088,-1.5233,-1.5341,-1.5381,-1.5879,-1.6076,-1.5977,-1.6416,-1.6602,-1.668,-1.7461,-1.7812,-1.7891,-1.7891,-1.7939,-1.8008,-0.3144,-0.2947,0.0,0.0,0.0,0.0,0.0,0.0,0.0,0.0,0.0,0.0,0.0,0.0,0.0,0.0,0.0,0.0,-0.2669,0.0,0.0,-0.2645,-0.2528,-0.2414,-0.2277,-0.2425,-0.2482,-0.2482,0.0,0.0,0.0,0.0,0.0,0.0,-0.2912,0.0,0.0,0.0,-0.3421,0.0,-0.3695,-0.3828,0.0,-0.442,-0.4466,-0.4483,-0.4734,-0.5457,-0.6251,0.0,-0.7054,-0.7799,0.0,-0.7139,-0.6708,-0.6447,0.0,0.0,0.0,0.0,0.0,0.0,-0.5602,0.0,0.0,0.0,-0.6256,-0.6118,0.0,0.0,0.0,0.0,0.0,0.0,0.0,0.0,-0.7238,-0.829,-0.9181,-0.9479,-0.9776,-1.0191,-1.0723,-1.1568,-1.2144,-1.214,-1.2521,-1.2733,-1.2788,-1.3131,-1.336,-1.336,-1.3745,-1.3956,-1.3956,-1.4323,-1.4506,-1.4506,-1.4666,-1.4715,-1.4784,-1.54,-1.5561,-1.5234,-1.5819,-1.584,-1.5518,-1.5957,-1.6143,-1.6182,-1.6689,-1.7109,-1.7451,-1.7451,-1.7686,-1.8008,-0.2929,-0.2881,0.0,0.0,0.0,0.0,0.0,0.0,0.0,0.0,0.0,0.0,0.0,0.0,0.0,0.0,0.0,-0.311,0.0,0.0,0.0,0.0,-0.2653,-0.2479,-0.2639,-0.255,-0.2536,-0.2607,-0.2732,0.0,0.0,0.0,0.0,0.0,-0.2938,0.0,-0.3239,0.0,-0.3516,0.0,0.0,0.0,0.0,-0.4309,-0.4454,-0.4439,-0.4485,-0.4974,-0.5645,0.0,-0.6609,0.0,0.0,0.0,0.0,0.0,0.0,0.0,0.0,0.0,0.0,0.0,0.0,0.0,-0.5365,0.0,-0.5798,0.0,0.0,0.0,0.0,0.0,0.0,0.0,-0.634,0.0,0.0,0.0,-0.767,-0.8665,0.0,0.0,-1.0285,-1.0383,-1.0687,-1.1333,-1.1384,-1.1435,-1.1665,-1.2503,-1.2929,-1.2929,-1.3552,-1.3882,-1.3882,-1.4304,-1.4515,-1.4515,-1.4556,-1.4606,-1.4725,-1.5387,-1.5479,-1.5254,-1.6101,-1.6055,-1.5449,-1.5889,-1.5918,-1.5703,-1.5889,-1.6543,-1.7383,-1.7383,-1.7646,-1.8008,-0.2859,0.0,0.0,0.0,0.0,0.0,0.0,0.0,0.0,0.0,0.0,0.0,-0.3053,-0.2987,0.0,0.0,-0.3507,-0.3441,0.0,0.0,-0.3136,0.0,0.0,0.0,0.0,-0.2743,-0.2677,-0.2735,-0.2857,0.0,0.0,0.0,0.0,0.0,0.0,-0.3097,-0.3392,0.0,0.0,-0.384,-0.4083,-0.4121,-0.3968,-0.4142,-0.4232,-0.429,-0.424,-0.4641,-0.5201,-0.5958,-0.6495,0.0,-0.7651,0.0,0.0,0.0,0.0,0.0,-0.7097,0.0,0.0,0.0,0.0,0.0,0.0,0.0,0.0,0.0,0.0,0.0,0.0,0.0,0.0,0.0,0.0,-0.5791,0.0,-0.5814,0.0,0.0,0.0,0.0,0.0,-0.9204,-0.9444,-1.0351,-1.0188,-1.033,-1.0847,-1.1739,-1.2319,-1.2549,-1.3296,-1.3727,-1.3727,-1.4249,-1.4515,-1.4515,-1.4515,-1.4565,-1.4675,-1.5326,-1.5419,-1.5195,-1.6108,-1.6113,-1.5439,-1.5752,-1.5693,-1.541,-1.541,-1.6064,-1.7041,-1.7158,-1.7471,-1.7852,-0.2937,-0.297,0.0,0.0,0.0,0.0,0.0,0.0,0.0,0.0,0.0,0.0,0.0,0.0,0.0,0.0,0.0,-0.3798,-0.3807,0.0,-0.327,0.0,0.0,-0.2984,0.0,-0.2986,-0.2976,-0.2907,-0.2985,0.0,0.0,0.0,0.0,0.0,0.0,-0.3254,-0.3752,-0.3664,-0.3843,-0.429,-0.4298,-0.4308,-0.424,0.0,-0.3835,-0.395,-0.4259,0.0,0.0,-0.6424,-0.7081,-0.7493,-0.7817,0.0,0.0,0.0,0.0,0.0,0.0,0.0,0.0,-0.6793,0.0,0.0,0.0,0.0,-0.4812,0.0,0.0,0.0,0.0,0.0,0.0,0.0,0.0,0.0,0.0,0.0,0.0,0.0,0.0,0.0,0.0,-0.8279,-0.8854,-0.9212,-0.9261,-0.9709,-1.0864,-1.0938,-1.1325,-1.2067,-1.2883,-1.3314,-1.3314,-1.4112,-1.4515,-1.4515,-1.4515,-1.4515,-1.4524,-1.5275,-1.5359,-1.5058,-1.5778,-1.583,-1.541,-1.543,-1.542,-1.541,-1.541,-1.5693,-1.6223,-1.6592,-1.7031,-1.7461,0.0,0.0,0.0,0.0,0.0,0.0,0.0,-0.2438,0.0,0.0,0.0,0.0,0.0,-0.4091,-0.4156,0.0,0.0,-0.4292,-0.4292,-0.3892,0.0,0.0,0.0,-0.3237,0.0,-0.312,-0.299,-0.2912,-0.2948,0.0,0.0,0.0,0.0,0.0,0.0,-0.338,0.0,0.0,0.0,0.0,0.0,-0.3917,-0.3822,0.0,-0.3827,-0.392,-0.3867,-0.4054,-0.4449,-0.5719,-0.6283,-0.6638,-0.7595,-0.7828,-0.7647,-0.7516,-0.734,-0.7279,-0.7587,-0.7484,-0.7328,-0.7328,0.0,0.0,0.0,0.0,0.0,0.0,0.0,0.0,0.0,0.0,0.0,0.0,0.0,0.0,0.0,0.0,0.0,0.0,0.0,0.0,0.0,0.0,-0.7488,-0.8338,-0.841,-0.8902,-1.0031,-1.0616,-1.1279,-1.2049,-1.2874,-1.3296,-1.3296,-1.4102,-1.4515,-1.4515,-1.4515,-1.4515,-1.4524,-1.5153,-1.5228,-1.4881,-1.5884,-1.5972,-1.5283,-1.5732,-1.5674,-1.541,-1.541,-1.5498,-1.5684,-1.6133,-1.6572,-1.7012,-0.2972,0.0,0.0,0.0,0.0,0.0,0.0,0.0,0.0,0.0,-0.3566,0.0,-0.4471,0.0,-0.4507,0.0,-0.4716,-0.4561,-0.4474,-0.4175,0.0,-0.423,-0.3746,0.0,0.0,0.0,-0.3178,-0.3058,-0.3016,-0.297,0.0,0.0,0.0,0.0,0.0,0.0,-0.3709,0.0,-0.3746,0.0,0.0,-0.3773,0.0,0.0,-0.3767,-0.3852,-0.3697,-0.3749,-0.403,-0.5133,-0.5728,-0.6246,-0.7209,-0.7741,-0.7931,-0.7744,-0.7635,-0.7635,-0.7829,-0.7756,-0.7619,-0.7665,-0.7273,-0.6696,-0.6264,0.0,-0.5584,0.0,0.0,0.0,0.0,0.0,0.0,0.0,0.0,0.0,0.0,-0.5214,0.0,0.0,0.0,0.0,0.0,-0.6151,-0.6395,-0.7507,-0.7603,-0.8218,-0.9628,-1.0339,-1.1131,-1.2098,-1.2727,-1.314,-1.3296,-1.3956,-1.4368,-1.4515,-1.4515,-1.4515,-1.4515,-1.4935,-1.4967,-1.4743,-1.56,-1.5655,-1.5234,-1.5613,-1.5615,-1.541,-1.541,-1.541,-1.5469,-1.5908,-1.6348,-1.6797,0.0,0.0,0.0,0.0,-0.2427,0.0,0.0,0.0,-0.3324,0.0,-0.3702,-0.4194,-0.433,-0.4452,-0.4662,-0.5004,-0.4923,-0.4749,-0.4504,-0.4268,0.0,0.0,-0.4012,-0.3996,-0.4107,0.0,0.0,-0.3392,-0.3142,-0.2944,0.0,0.0,0.0,0.0,-0.2841,0.0,-0.35,-0.3585,-0.3781,-0.4099,-0.3988,-0.388,-0.3851,-0.3686,-0.367,-0.3818,-0.3807,-0.3868,-0.4103,-0.4674,-0.553,-0.6417,-0.6812,-0.7723,-0.8543,-0.8045,-0.8075,-0.8213,-0.7967,-0.7768,-0.768,-0.7835,-0.7369,-0.6908,-0.7145,-0.6805,-0.6428,0.0,0.0,0.0,0.0,0.0,0.0,0.0,0.0,0.0,0.0,0.0,-0.5277,0.0,0.0,0.0,0.0,-0.5543,-0.5756,-0.6717,-0.6875,-0.773,0.0,-1.0013,-1.0783,-1.1984,-1.2494,-1.2865,-1.3286,-1.3681,-1.4093,-1.4515,-1.4515,-1.4515,-1.4515,-1.4606,-1.4715,-1.4715,-1.4911,-1.5039,-1.5156,-1.5215,-1.5264,-1.5352,-1.541,-1.541,-1.5459,-1.5879,-1.6309,-1.6758,-0.3229,-0.3208,-0.3153,0.0,-0.2977,-0.2831,0.0,0.0,0.0,0.0,-0.4124,-0.4629,-0.4925,-0.5146,-0.5273,-0.5279,-0.5167,0.0,0.0,0.0,0.0,-0.4379,-0.4181,-0.4042,-0.3982,-0.3803,0.0,-0.3265,-0.3277,-0.3161,-0.2941,0.0,0.0,0.0,0.0,0.0,-0.3718,-0.3526,-0.3653,-0.3988,-0.4047,-0.4015,-0.3867,0.0,-0.3863,-0.3865,-0.3691,-0.374,-0.3972,-0.4664,-0.5349,-0.606,-0.6825,-0.7546,-0.8075,-0.7937,-0.7949,-0.7985,-0.7919,-0.7853,-0.7811,-0.7883,-0.7647,-0.7358,-0.723,-0.6945,-0.6653,-0.6453,-0.6301,-0.61,-0.576,-0.5693,0.0,0.0,0.0,0.0,0.0,0.0,0.0,-0.5284,0.0,-0.584,-0.5456,-0.6057,-0.6482,-0.6445,-0.6955,-0.7713,-0.8748,-0.9241,-1.0022,-1.1186,-1.219,-1.2865,-1.3286,-1.3681,-1.4093,-1.4515,-1.4515,-1.4515,-1.4515,-1.4565,-1.4565,-1.4556,-1.4725,-1.4775,-1.4834,-1.497,-1.5088,-1.5088,-1.5205,-1.5313,-1.542,-1.5537,-1.5859,-1.625,-0.3446,0.0,0.0,-0.3473,0.0,0.0,-0.3316,0.0,0.0,-0.396,-0.4471,0.0,-0.5015,-0.5203,-0.5309,-0.529,-0.5181,0.0,-0.477,0.0,0.0,-0.4471,-0.4295,-0.4189,-0.4167,-0.3947,0.0,-0.3478,0.0,0.0,-0.3102,0.0,0.0,0.0,0.0,-0.3265,0.0,-0.3551,-0.3642,-0.38,-0.4026,-0.4045,0.0,-0.3872,-0.3907,-0.399,-0.3806,-0.3743,-0.3851,-0.4284,-0.5062,-0.5896,-0.6598,-0.74,-0.8069,-0.8069,-0.8069,-0.8045,-0.7931,-0.7901,-0.7901,-0.7901,-0.784,-0.7683,-0.7538,-0.7387,-0.7243,-0.7098,-0.6874,-0.6702,-0.6507,-0.621,0.0,0.0,0.0,0.0,0.0,0.0,0.0,0.0,-0.5637,-0.5739,-0.5208,-0.6091,-0.6584,-0.6308,-0.6731,-0.7492,0.0,-0.8863,-0.9525,-1.0873,-1.171,-1.219,-1.2232,-1.3332,-1.3919,-1.3983,-1.4341,-1.4515,-1.4515,-1.4515,-1.4515,-1.4515,-1.4556,-1.4666,-1.4715,-1.4843,-1.4911,-1.5029,-1.5156,-1.5264,-1.5313,-1.5362,-1.5566,-1.5811,0.0,0.0,0.0,0.0,0.0,0.0,0.0,-0.4074,0.0,-0.4276,0.0,-0.4988,-0.4849,-0.4955,-0.5072,-0.5156,0.0,-0.4915,-0.474,-0.4726,-0.4671,-0.4474,-0.4376,-0.4363,-0.4447,-0.4143,-0.3917,0.0,0.0,-0.337,0.0,0.0,0.0,0.0,0.0,0.0,0.0,-0.3646,-0.3729,-0.3683,-0.4009,-0.4077,-0.3982,-0.3982,-0.4039,-0.4105,-0.3996,-0.389,-0.3898,-0.3871,-0.4705,-0.5784,-0.6185,-0.7151,-0.8185,-0.8214,-0.8283,-0.8291,-0.8063,-0.8003,-0.7997,-0.7961,-0.7955,-0.7943,-0.7907,-0.7901,-0.7901,-0.7901,-0.7581,-0.7352,-0.751,-0.669,0.0,0.0,0.0,0.0,0.0,0.0,0.0,0.0,0.0,0.0,-0.5094,-0.5939,-0.6438,-0.6215,-0.6372,-0.7158,-0.8781,-0.8518,-0.8973,-1.046,-1.1072,-1.123,-1.0976,-1.292,-1.3736,-1.3461,-1.4176,-1.4515,-1.4515,-1.4515,-1.4515,-1.4515,-1.4515,-1.4556,-1.4656,-1.4656,-1.4784,-1.497,-1.5098,-1.5156,-1.5215,-1.5362,-1.541,-1.5469,0.0,0.0,0.0,0.0,0.0,-0.422,-0.4957,-0.4758,-0.4498,-0.4308,-0.48,-0.5075,-0.4857,-0.5026,-0.5127,-0.5053,-0.5029,0.0,0.0,0.0,0.0,-0.4474,-0.445,-0.4406,-0.4333,-0.4268,-0.4066,0.0,-0.3732,-0.3553,-0.3221,0.0,0.0,0.0,0.0,0.0,-0.3542,-0.3793,0.0,-0.4039,-0.4202,-0.4257,-0.4235,-0.4235,-0.4186,-0.4115,-0.4094,-0.4138,-0.4275,-0.4157,-0.47,-0.5445,-0.5653,-0.6635,-0.7643,-0.7788,-0.82,-0.8603,-0.8555,-0.8543,-0.8489,-0.8279,-0.8219,-0.8165,-0.7949,-0.7901,-0.7901,-0.7901,-0.7829,-0.7689,-0.7346,-0.6568,-0.5961,0.0,0.0,0.0,0.0,0.0,0.0,0.0,0.0,-0.6598,-0.5306,-0.6364,-0.6752,-0.5792,0.0,0.0,-0.7105,-0.7204,-0.7607,-0.8395,-1.0159,-1.1222,-1.1447,-1.3086,-1.402,-1.4304,-1.4442,-1.4515,-1.4515,-1.4515,-1.4515,-1.4515,-1.4515,-1.4506,-1.4565,-1.4565,-1.4616,-1.4775,-1.497,-1.5098,-1.5215,-1.5362,-1.541,-1.542,0.0,0.0,0.0,0.0,0.0,0.0,0.0,-0.5241,-0.5121,-0.4842,-0.4901,-0.4961,-0.4847,-0.4991,-0.505,-0.4934,-0.4923,-0.4847,-0.4737,-0.4665,-0.4632,-0.4635,-0.4504,-0.4444,-0.439,-0.4387,-0.4246,-0.399,-0.391,-0.3715,-0.3498,0.0,0.0,0.0,0.0,-0.3429,0.0,0.0,-0.3933,-0.395,-0.42,-0.43,-0.43,-0.43,-0.4265,-0.4211,-0.4211,-0.4409,-0.4567,-0.4357,-0.4799,-0.5522,-0.58,-0.6474,-0.7188,-0.7722,-0.8067,-0.8263,-0.8622,-0.8681,-0.8651,-0.8525,-0.8489,-0.8423,-0.8165,-0.8099,-0.8063,-0.7931,-0.7901,-0.7781,-0.748,-0.7085,-0.6732,-0.6459,0.0,0.0,0.0,0.0,0.0,0.0,0.0,0.0,0.0,0.0,0.0,0.0,0.0,0.0,-0.7029,-0.6585,-0.7085,-0.874,-0.9967,-1.0497,-1.023,-1.2851,-1.3768,-1.2922,-1.3987,-1.4515,-1.4515,-1.4515,-1.4515,-1.4515,-1.4515,-1.4515,-1.4515,-1.4515,-1.4565,-1.4606,-1.4784,-1.497,-1.5088,-1.5264,-1.5362,-1.541,0.0,-0.4261,0.0,0.0,-0.4891,0.0,-0.5243,-0.5582,-0.5648,-0.53,-0.5042,-0.4901,-0.4874,-0.4958,-0.4969,-0.4844,-0.4833,-0.477,-0.4695,-0.4593,-0.4501,-0.4646,-0.4534,-0.4485,-0.4433,-0.4482,-0.442,-0.4195,-0.4032,-0.3924,-0.3787,-0.3741,0.0,0.0,0.0,0.0,0.0,-0.3814,-0.3947,-0.3989,-0.4194,-0.43,-0.43,-0.43,-0.43,-0.43,-0.4364,-0.4564,-0.4731,-0.4517,-0.4917,-0.5528,-0.5849,-0.6228,-0.675,-0.7705,-0.7901,-0.8001,-0.8669,-0.8849,-0.8837,-0.8777,-0.8765,-0.8693,-0.8429,-0.8375,-0.8297,-0.8039,-0.7937,-0.7835,-0.7671,-0.7589,-0.734,-0.6811,-0.6264,0.0,0.0,0.0,0.0,0.0,0.0,0.0,-0.572,-0.5971,0.0,0.0,0.0,0.0,-0.7178,-0.6186,-0.6629,-0.8898,-0.9453,-0.955,-0.9181,-1.2395,-1.3374,-1.207,-1.372,-1.4515,-1.4515,-1.4515,-1.4515,-1.4515,-1.4515,-1.4515,-1.4515,-1.4515,-1.4515,-1.4506,-1.4666,-1.4784,-1.497,-1.5156,-1.5264,-1.5362,0.0,0.0,0.0,0.0,0.0,0.0,-0.5815,-0.5705,-0.5583,-0.5408,-0.5235,-0.5113,-0.5012,-0.501,-0.4969,-0.4844,-0.4833,-0.4735,-0.4501,-0.4477,-0.4428,-0.4338,-0.4529,-0.4537,-0.4322,-0.4526,-0.4524,0.0,-0.4153,-0.4061,-0.3776,-0.3896,-0.3949,0.0,0.0,-0.3854,-0.4227,-0.4146,-0.4219,-0.4395,-0.433,-0.43,-0.43,-0.43,-0.43,-0.43,-0.4495,-0.4561,-0.4625,-0.4734,-0.4964,-0.5174,-0.5188,-0.5691,-0.6404,-0.7233,-0.7926,-0.8553,-0.9273,-0.9412,-0.9346,-0.9156,-0.9089,-0.8962,-0.8699,-0.8645,-0.8567,-0.8303,-0.8069,-0.7895,-0.7865,-0.752,-0.7066,-0.6538,-0.5991,-0.5462,0.0,0.0,-0.6155,-0.5657,0.0,0.0,-0.5757,-0.5623,-0.542,0.0,-0.5605,0.0,-0.6652,-0.582,-0.5807,-0.6839,-0.7519,-0.8486,-0.9801,-1.1538,-1.3003,-1.4227,-1.4442,-1.4515,-1.4515,-1.4515,-1.4515,-1.4515,-1.4515,-1.4515,-1.4515,-1.4515,-1.4515,-1.4506,-1.4666,-1.4715,-1.4775,-1.5088,-1.5215,-1.5264,0.0,0.0,0.0,0.0,0.0,0.0,0.0,-0.6118,-0.5994,-0.577,-0.5442,-0.5221,-0.5021,-0.509,-0.5118,-0.4991,-0.4916,-0.4801,-0.4694,-0.4608,-0.4479,-0.4303,-0.4529,-0.4646,-0.4406,-0.4637,-0.4654,0.0,-0.4151,-0.4053,-0.4058,-0.3865,-0.3878,-0.4076,-0.4114,-0.4273,-0.4403,-0.4477,-0.4493,-0.4646,-0.4531,-0.4469,-0.4401,-0.4401,-0.436,-0.43,-0.4364,-0.4495,-0.4625,-0.4694,-0.4854,-0.5068,-0.5068,-0.5394,-0.5868,-0.658,-0.7316,-0.7972,-0.8689,-0.9215,-0.946,-0.9346,-0.9316,-0.9244,-0.8974,-0.8908,-0.8837,-0.8579,-0.8315,-0.8087,-0.7931,-0.7727,-0.746,-0.6975,-0.6702,-0.6319,-0.5614,0.0,0.0,-0.5918,0.0,-0.6477,0.0,-0.5658,-0.5364,0.0,0.0,-0.5655,-0.5986,-0.5905,-0.6391,-0.7595,-0.796,-0.8652,-0.9714,-1.0957,-1.1995,-1.2777,-1.3543,-1.4139,-1.4515,-1.4515,-1.4515,-1.4515,-1.4515,-1.4515,-1.4515,-1.4515,-1.4515,-1.4506,-1.4556,-1.4606,-1.4715,-1.4834,-1.5029,-1.5215,-0.6064,0.0,-0.6047,0.0,-0.64,-0.6465,-0.6329,-0.6394,-0.6331,-0.6006,-0.5671,-0.5384,-0.512,-0.5269,-0.529,-0.5155,-0.5032,-0.4924,-0.483,-0.4701,-0.4561,-0.4434,-0.4669,0.0,-0.4544,-0.4711,-0.4692,-0.4532,-0.4298,-0.4195,-0.4275,-0.3919,-0.3957,-0.4293,-0.4366,-0.4469,-0.458,-0.4704,-0.4745,-0.4703,-0.474,-0.4673,-0.4591,-0.4485,-0.442,-0.4346,-0.4378,-0.4431,-0.4495,-0.4561,-0.4758,-0.5024,-0.509,-0.5223,-0.5557,-0.6207,-0.6859,-0.7582,-0.8291,-0.9017,-0.9484,-0.9484,-0.9484,-0.943,-0.9232,-0.919,-0.9112,-0.8849,-0.8585,-0.8327,-0.8063,-0.8015,-0.7817,-0.7303,-0.72,-0.689,-0.6003,-0.6641,0.0,-0.5979,-0.6198,-0.641,-0.6483,-0.578,0.0,0.0,0.0,-0.5456,-0.567,-0.585,-0.6453,-0.7608,-0.7573,-0.8157,-0.9364,-1.0163,-1.0977,-1.1896,-1.2769,-1.345,-1.3941,-1.413,-1.4318,-1.4515,-1.4515,-1.4515,-1.4515,-1.4515,-1.4515,-1.4515,-1.4515,-1.4556,-1.4666,-1.4715,-1.4834,-1.5088,-0.6827,-0.6671,-0.6512,-0.6664,-0.6695,-0.66,-0.6308,-0.6347,-0.626,-0.5983,-0.5864,-0.5733,-0.5448,-0.5361,-0.5377,-0.524,-0.5041,-0.4969,-0.4966,-0.4839,-0.4764,0.0,0.0,-0.4813,-0.4685,-0.4784,-0.4773,-0.472,0.0,-0.4608,-0.4478,-0.423,-0.4313,-0.4671,-0.4417,-0.4496,-0.4822,-0.4703,-0.4722,-0.4822,-0.4703,-0.4723,-0.4709,-0.4515,-0.4469,-0.4522,-0.4605,-0.4495,-0.4367,-0.4561,-0.4694,-0.4831,-0.5024,-0.5223,-0.5557,-0.6207,-0.6859,-0.7582,-0.8291,-0.9017,-0.9484,-0.9484,-0.9484,-0.9484,-0.9478,-0.9478,-0.94,-0.9118,-0.8855,-0.8591,-0.8333,-0.8285,-0.8082,-0.7334,-0.72,-0.6829,-0.5754,-0.6526,0.0,-0.573,-0.6082,-0.6416,-0.6416,-0.5912,0.0,0.0,0.0,-0.5745,-0.5893,-0.5537,-0.5531,-0.6018,-0.5578,-0.6469,-0.8874,-0.8896,-1.0138,-1.2496,-1.2504,-1.2512,-1.2573,-1.3199,-1.3881,-1.4515,-1.4515,-1.4515,-1.4515,-1.4515,-1.4515,-1.4515,-1.4515,-1.4515,-1.4506,-1.4666,-1.4715,-1.4715,-0.7004,-0.6993,-0.6943,-0.6993,-0.7,-0.6936,-0.6746,-0.6622,-0.6545,-0.6347,-0.6146,-0.5891,-0.5672,-0.5667,-0.5557,0.0,-0.5299,-0.5237,0.0,-0.5103,-0.4934,-0.4757,-0.4992,-0.5035,-0.4792,-0.5025,-0.5047,-0.4776,-0.4643,-0.448,-0.4367,-0.4538,-0.461,-0.4795,-0.4768,-0.4852,-0.4955,-0.4917,-0.4923,-0.4955,-0.4917,-0.48,-0.472,-0.4682,-0.4496,-0.4349,-0.4378,-0.4364,-0.43,-0.4561,-0.4694,-0.4831,-0.5024,-0.5223,-0.5428,-0.5686,-0.6207,-0.6793,-0.6985,-0.7902,-0.8818,-0.8818,-0.9151,-0.9484,-0.9484,-0.9484,-0.9406,-0.9186,-0.9059,-0.8861,-0.8603,-0.8411,-0.8142,-0.7571,-0.7581,-0.7393,-0.655,-0.6872,-0.7006,-0.6483,-0.6416,-0.6556,-0.6914,-0.6465,-0.6155,-0.6155,-0.619,-0.6144,-0.5913,-0.6435,-0.7018,-0.7609,-0.7675,-0.8335,-0.9736,-0.9335,-1.0009,-1.1849,-1.1849,-1.2089,-1.2512,-1.2696,-1.3199,-1.3821,-1.3821,-1.407,-1.4515,-1.4515,-1.4515,-1.4515,-1.4515,-1.4515,-1.4506,-1.4565,-1.4606,-1.4715,-0.7102,-0.7139,-0.7122,-0.7068,-0.7061,-0.6993,-0.679,-0.6675,-0.6563,-0.6413,-0.623,-0.6057,-0.5905,-0.5772,-0.5676,-0.5568,-0.5467,-0.5385,-0.5441,-0.5358,-0.5235,-0.5096,-0.5303,-0.5341,-0.5127,-0.5254,-0.5203,-0.4977,-0.4749,-0.464,-0.4575,-0.4798,-0.4904,-0.4906,-0.4982,-0.5018,-0.5018,-0.5018,-0.5018,-0.5018,-0.5018,-0.4925,-0.4784,-0.4738,-0.4629,-0.4488,-0.4398,-0.4363,-0.4425,-0.4576,-0.4694,-0.4831,-0.5024,-0.5223,-0.5428,-0.5428,-0.5881,-0.64,-0.64,-0.7442,-0.849,-0.849,-0.9017,-0.9484,-0.9484,-0.9484,-0.9436,-0.9256,-0.9226,-0.9142,-0.8873,-0.8609,-0.8297,-0.7919,-0.7906,-0.7656,-0.7054,-0.7224,-0.7243,-0.6726,-0.669,-0.6842,-0.717,-0.6902,-0.6708,-0.6708,-0.6563,-0.652,-0.6609,-0.7082,-0.7518,-0.7885,-0.8273,-0.8898,-0.978,-0.9369,-0.9853,-1.1178,-1.1178,-1.1483,-1.2151,-1.2151,-1.252,-1.313,-1.313,-1.3381,-1.3761,-1.3761,-1.3761,-1.3761,-1.3761,-1.3881,-1.407,-1.3821,-1.3932,-1.4231,-0.7139,-0.7139,-0.7099,-0.6966,-0.6943,-0.6841,-0.6536,-0.6488,-0.6434,-0.6281,-0.6251,-0.6186,-0.603,-0.5878,-0.5677,-0.547,-0.5432,-0.5426,-0.5579,-0.5589,-0.5657,-0.581,-0.5728,-0.5728,-0.5663,-0.5487,-0.5321,-0.5321,-0.5093,-0.5018,-0.5018,-0.5018,-0.5018,-0.5018,-0.5018,-0.5018,-0.5018,-0.5018,-0.5018,-0.5018,-0.5018,-0.5012,-0.4991,-0.4876,-0.4828,-0.4792,-0.4564,-0.4552,-0.4535,-0.4625,-0.4715,-0.4843,-0.504,-0.5233,-0.5362,-0.5428,-0.5815,-0.6334,-0.6334,-0.7312,-0.8355,-0.8355,-0.8888,-0.942,-0.9484,-0.9484,-0.9484,-0.9484,-0.9484,-0.9406,-0.9142,-0.8884,-0.8621,-0.8357,-0.8099,-0.7733,-0.723,-0.7599,-0.7512,-0.6573,-0.6899,-0.7267,-0.7285,-0.7285,-0.7261,-0.7206,0.0,-0.6863,-0.7641,-0.7532,-0.7367,-0.73,-0.7813,-0.8453,-0.9269,-0.9276,-0.9746,-1.0624,-1.0624,-1.087,-1.1428,-1.1428,-1.1787,-1.2451,-1.2451,-1.2451,-1.2512,-1.2512,-1.2512,-1.2512,-1.2512,-1.2887,-1.3321,-1.2757,-1.2879,-1.3321,-0.7139,-0.7139,-0.7129,-0.7095,-0.7092,-0.699,-0.6692,-0.6647,-0.6552,-0.6295,-0.6159,-0.6027,-0.5871,-0.5728,-0.561,-0.5542,-0.543,-0.5426,-0.5579,-0.5589,-0.5634,-0.5738,-0.5858,-0.5855,-0.5662,-0.5693,-0.5631,-0.5321,-0.5093,-0.5018,-0.5018,-0.5018,-0.5018,-0.5018,-0.5018,-0.5018,-0.5018,-0.5018,-0.5018,-0.5018,-0.5018,-0.4961,-0.4874,-0.4844,-0.4776,-0.4762,-0.485,-0.4899,-0.4896,-0.5219,-0.5205,-0.5114,-0.5395,-0.5319,-0.5223,-0.5359,-0.5491,-0.562,-0.562,-0.6272,-0.692,-0.692,-0.7837,-0.8888,-0.9414,-0.9484,-0.9484,-0.9484,-0.9484,-0.9466,-0.9394,-0.916,-0.889,-0.8627,-0.8369,-0.7884,-0.6896,-0.7274,-0.7449,-0.6904,-0.7359,-0.7793,-0.8045,-0.8063,-0.781,-0.7249,-0.7418,-0.7309,-0.6777,-0.7934,-0.8813,-0.9207,-0.9551,-0.9913,-1.0247,-1.0247,-1.0354,-1.0624,-1.0624,-1.0688,-1.0807,-1.0807,-1.1178,-1.1725,-1.1725,-1.2027,-1.2512,-1.2512,-1.2512,-1.2512,-1.2512,-1.2573,-1.2696,-1.2573,-1.2573,-1.2696,-0.7139,-0.7139,-0.7099,-0.6963,-0.6939,-0.6841,-0.6542,-0.6502,-0.6441,-0.6281,-0.6186,-0.6078,-0.5922,-0.5837,-0.5762,-0.5691,-0.5552,-0.5559,-0.5776,-0.5789,-0.5822,-0.597,-0.6056,-0.6096,-0.5948,-0.5944,-0.5705,-0.5321,-0.5168,-0.5093,-0.5018,-0.5018,-0.5018,-0.5018,-0.5018,-0.5018,-0.5018,-0.5018,-0.5018,-0.5018,-0.5018,-0.4977,-0.4917,-0.4917,-0.4949,-0.4958,-0.5049,-0.5105,-0.5243,-0.5324,-0.5325,-0.5329,-0.5476,-0.5491,-0.5421,-0.5562,-0.5467,-0.5442,-0.5447,-0.594,-0.6527,-0.7181,-0.7962,-0.8683,-0.935,-0.9484,-0.9484,-0.9484,-0.9484,-0.9484,-0.9484,-0.9256,-0.898,-0.8723,-0.8143,-0.7466,-0.6721,-0.7022,-0.724,-0.7036,-0.7629,-0.8135,-0.8279,-0.8291,-0.8063,-0.7562,-0.7677,-0.7677,-0.7466,-0.8093,-0.8727,-0.9227,-0.9949,-1.0371,-1.0624,-1.0624,-1.0624,-1.0624,-1.0624,-1.0624,-1.0624,-1.0624,-1.0807,-1.1115,-1.1115,-1.1296,-1.1655,-1.1655,-1.1655,-1.1655,-1.1655,-1.1779,-1.2027,-1.1725,-1.1779,-1.2027,-0.7139,-0.7139,-0.7061,-0.681,-0.6749,-0.6641,-0.6369,-0.6308,-0.6291,-0.6291,-0.6291,-0.6234,-0.6081,-0.6064,-0.6003,-0.5847,-0.5725,-0.5762,-0.6013,-0.603,-0.6098,-0.6254,-0.6338,-0.6338,-0.6338,-0.6022,-0.5709,-0.5395,-0.5321,-0.5246,-0.5015,-0.5018,-0.5018,-0.5018,-0.5018,-0.5018,-0.5018,-0.5018,-0.5018,-0.5018,-0.5018,-0.5018,-0.5018,-0.5018,-0.509,-0.5229,-0.5196,-0.5309,-0.5445,-0.5325,-0.5422,-0.5482,-0.5554,-0.5679,-0.5734,-0.583,-0.5644,-0.5457,-0.5586,-0.5995,-0.6606,-0.7892,-0.8213,-0.8403,-0.9034,-0.9285,-0.935,-0.935,-0.9414,-0.9484,-0.9484,-0.9292,-0.9016,-0.8616,-0.7695,-0.694,-0.6541,-0.6806,-0.7058,-0.7091,-0.7903,-0.8453,-0.8411,-0.8405,-0.8297,-0.8039,-0.7858,-0.7985,-0.8531,-0.8311,-0.8256,-0.8551,-0.9667,-1.0371,-1.0624,-1.0624,-1.0624,-1.0624,-1.0624,-1.0624,-1.0624,-1.0624,-1.0624,-1.0624,-1.0624,-1.0624,-1.0624,-1.0624,-1.0624,-1.0624,-1.0624,-1.0933,-1.1303,-1.0807,-1.0933,-1.1303,-0.7139,-0.7139,-0.7126,-0.7082,-0.6973,-0.6834,-0.6658,-0.6522,-0.6437,-0.6437,-0.6437,-0.6383,-0.624,-0.6224,-0.6162,-0.6006,-0.5973,-0.5979,-0.6027,-0.603,-0.6098,-0.6254,-0.6338,-0.6338,-0.6338,-0.6022,-0.5864,-0.5786,-0.5476,-0.5321,-0.5243,-0.5093,-0.5018,-0.5018,-0.5018,-0.5018,-0.5018,-0.5018,-0.5018,-0.5018,-0.5018,-0.5018,-0.5018,-0.5018,-0.5015,-0.509,-0.5223,-0.5292,-0.5366,-0.5653,-0.5645,-0.5551,-0.5848,-0.5762,-0.5617,-0.5885,-0.5871,-0.5739,-0.5762,-0.582,-0.605,-0.6736,-0.6899,-0.7059,-0.7625,-0.8231,-0.8689,-0.8689,-0.9087,-0.9484,-0.9484,-0.9448,-0.906,-0.7948,-0.7505,-0.7026,-0.6129,-0.6797,-0.7424,-0.7633,-0.8651,-0.9208,-0.8968,-0.8944,-0.8837,-0.8579,-0.8576,-0.8357,-0.8039,-0.8747,-0.9097,-0.8854,-0.965,-1.0244,-1.0624,-1.0624,-1.0624,-1.0624,-1.0624,-1.0624,-1.0624,-1.0624,-1.0624,-1.0624,-1.0624,-1.0624,-1.0624,-1.0624,-1.0624,-1.0624,-1.0624,-1.0681,-1.0744,-1.0618,-1.0681,-1.0744,-0.7139,-0.7139,-0.7115,-0.7041,-0.6905,-0.6756,-0.66,-0.6454,-0.6359,-0.6359,-0.6359,-0.6332,-0.6345,-0.6338,-0.6234,-0.6162,-0.6156,-0.6156,-0.6156,-0.6156,-0.6186,-0.6257,-0.6338,-0.6338,-0.6338,-0.618,-0.6022,-0.5864,-0.5634,-0.5401,-0.5321,-0.5093,-0.5018,-0.5018,-0.5018,-0.5018,-0.5018,-0.5018,-0.5018,-0.5018,-0.5018,-0.5018,-0.5018,-0.5018,-0.5093,-0.5168,-0.5401,-0.5556,-0.5631,-0.5864,-0.5899,-0.5927,-0.5921,-0.5954,-0.5992,-0.6135,-0.6044,-0.5908,-0.5823,-0.58,-0.5926,-0.6628,-0.6676,-0.6784,-0.7435,-0.8053,-0.849,-0.849,-0.9017,-0.9484,-0.9484,-0.9484,-0.9095,-0.7788,-0.7622,-0.7219,-0.6051,-0.688,-0.7638,-0.7813,-0.8675,-0.9208,-0.9138,-0.9126,-0.8956,-0.8699,-0.8807,-0.8783,-0.8543,-0.9112,-0.9333,-0.9234,-0.9912,-1.0428,-1.0624,-1.0624,-1.0624,-1.0624,-1.0624,-1.0624,-1.0624,-1.0624,-1.0624,-1.0624,-1.0624,-1.0624,-1.0624,-1.0624,-1.0624,-1.0624,-1.0624,-1.0624,-1.0624,-1.0624,-1.0624,-1.0624,-0.7139,-0.7139,-0.7105,-0.6997,-0.6854,-0.6702,-0.6549,-0.6403,-0.6312,-0.6312,-0.6312,-0.6312,-0.6312,-0.6312,-0.6295,-0.6264,-0.6338,-0.6338,-0.6338,-0.6338,-0.6338,-0.6338,-0.6338,-0.6338,-0.6338,-0.6338,-0.618,-0.6018,-0.5715,-0.5556,-0.5398,-0.5171,-0.5015,-0.5093,-0.5015,-0.5015,-0.5093,-0.5015,-0.5018,-0.5174,-0.5093,-0.5093,-0.5174,-0.5174,-0.5246,-0.5398,-0.5559,-0.5712,-0.5864,-0.5864,-0.6022,-0.6173,-0.5979,-0.6073,-0.6254,-0.6217,-0.6149,-0.6057,-0.5942,-0.5908,-0.6044,-0.6588,-0.6518,-0.6583,-0.7086,-0.7731,-0.8231,-0.8231,-0.8888,-0.9484,-0.9484,-0.9484,-0.9113,-0.786,-0.7756,-0.7478,-0.6504,-0.7225,-0.7892,-0.8184,-0.8794,-0.916,-0.916,-0.916,-0.9082,-0.8878,-0.9046,-0.916,-0.916,-0.9408,-0.9575,-0.9664,-1.018,-1.0498,-1.0624,-1.0624,-1.0624,-1.0624,-1.0624,-1.0624,-1.0624,-1.0624,-1.0624,-1.0624,-1.0624,-1.0624,-1.0624,-1.0624,-1.0624,-1.0624,-1.0624,-1.0624,-1.0624,-1.0624,-1.0624,-1.0624,-0.7139,-0.7139,-0.7136,-0.7126,-0.7007,-0.6861,-0.6709,-0.6556,-0.6458,-0.6458,-0.6458,-0.6458,-0.6458,-0.6458,-0.6403,-0.6274,-0.6338,-0.6338,-0.6338,-0.6338,-0.6338,-0.6338,-0.6338,-0.6338,-0.6338,-0.6338,-0.6261,-0.6261,-0.5792,-0.5712,-0.5864,-0.5249,-0.5093,-0.5243,-0.5093,-0.5093,-0.5243,-0.5093,-0.5249,-0.5559,-0.5323,-0.5401,-0.5559,-0.5559,-0.5559,-0.5559,-0.5559,-0.5637,-0.5637,-0.5864,-0.5941,-0.5918,-0.6013,-0.6146,-0.6234,-0.6088,-0.6139,-0.624,-0.623,-0.6227,-0.627,-0.6122,-0.5971,-0.582,-0.5755,-0.6672,-0.7451,-0.7451,-0.8565,-0.9484,-0.9484,-0.9484,-0.9172,-0.8142,-0.7862,-0.783,-0.7835,-0.7823,-0.8207,-0.9241,-0.943,-0.9454,-0.9454,-0.9454,-0.9442,-0.9424,-0.9442,-0.9454,-0.9454,-0.9646,-0.9907,-1.0238,-1.011,-1.0244,-1.0624,-1.0624,-1.0624,-1.0624,-1.0624,-1.0624,-1.0624,-1.0624,-1.0624,-1.0624,-1.0624,-1.0624,-1.0624,-1.0624,-1.0624,-1.0624,-1.0624,-1.0624,-1.0624,-1.0624,-1.0624,-1.0624,-0.7139,-0.7139,-0.7112,-0.7024,-0.6888,-0.6736,-0.6583,-0.6434,-0.6342,-0.6342,-0.6342,-0.6342,-0.6342,-0.6342,-0.6318,-0.6268,-0.6338,-0.6338,-0.6338,-0.6338,-0.6338,-0.6338,-0.6338,-0.6338,-0.6338,-0.6338,-0.6338,-0.6338,-0.5948,-0.5864,-0.586,-0.5556,-0.5404,-0.5479,-0.5404,-0.5404,-0.5479,-0.5404,-0.5482,-0.5559,-0.5479,-0.5559,-0.5637,-0.5637,-0.5637,-0.5637,-0.5712,-0.5789,-0.5786,-0.6099,-0.618,-0.617,-0.619,-0.6213,-0.6247,-0.619,-0.6146,-0.6118,-0.6118,-0.6118,-0.6125,-0.6162,-0.5918,-0.5818,-0.628,-0.6954,-0.7517,-0.7972,-0.8823,-0.9484,-0.9484,-0.9484,-0.9178,-0.8164,-0.8138,-0.8011,-0.7449,-0.7466,-0.7689,-0.814,-0.8172,-0.8172,-0.8172,-0.8172,-0.8366,-0.8818,-0.8882,-0.9087,-0.9484,-0.9548,-0.9724,-1.0047,-1.0021,-1.018,-1.0624,-1.0624,-1.0624,-1.0624,-1.0624,-1.0624,-1.0624,-1.0624,-1.0624,-1.0624,-1.0624,-1.0624,-1.0624,-1.0624,-1.0624,-1.0624,-1.0624,-1.0624,-1.0624,-1.0624,-1.0624,-1.0624,-0.7139,-0.7139,-0.7095,-0.6953,-0.6844,-0.6705,-0.6502,-0.639,-0.6312,-0.6345,-0.6338,-0.6338,-0.6338,-0.6302,-0.6312,-0.6342,-0.6302,-0.6308,-0.6264,-0.6338,-0.6338,-0.6338,-0.6338,-0.6338,-0.6338,-0.6338,-0.6338,-0.6338,-0.6022,-0.5941,-0.6022,-0.5715,-0.5637,-0.5712,-0.5637,-0.5637,-0.5712,-0.5556,-0.5637,-0.5792,-0.5637,-0.5715,-0.5792,-0.5792,-0.5792,-0.587,-0.5944,-0.6022,-0.6022,-0.6257,-0.6338,-0.6251,-0.6203,-0.6186,-0.6186,-0.6186,-0.6112,-0.602,-0.5973,-0.5959,-0.5983,-0.6088,-0.6103,-0.6157,-0.6706,-0.7301,-0.7907,-0.8425,-0.9017,-0.9484,-0.9484,-0.955,-0.9285,-0.8359,-0.8451,-0.8285,-0.7336,-0.731,-0.7386,-0.7386,-0.7386,-0.7386,-0.7386,-0.7386,-0.7712,-0.8425,-0.8296,-0.8431,-0.9151,-0.9414,-0.9717,-0.9897,-1.0014,-1.0238,-1.0624,-1.0624,-1.0624,-1.0624,-1.0624,-1.0624,-1.0624,-1.0624,-1.0624,-1.0624,-1.0624,-1.0624,-1.0624,-1.0624,-1.0624,-1.0624,-1.0624,-1.0624,-1.0624,-1.0624,-1.0624,-1.0624,-0.7139,-0.7139,-0.7095,-0.6953,-0.6926,-0.6824,-0.6519,-0.6471,-0.642,-0.6278,-0.6338,-0.6338,-0.6338,-0.6386,-0.6413,-0.6352,-0.639,-0.641,-0.6349,-0.6338,-0.6338,-0.6338,-0.6338,-0.6338,-0.6338,-0.6338,-0.6338,-0.6338,-0.6022,-0.6022,-0.6261,-0.5792,-0.5712,-0.586,-0.5712,-0.5712,-0.586,-0.5476,-0.5712,-0.6261,-0.5792,-0.587,-0.6338,-0.6338,-0.6338,-0.6338,-0.6338,-0.6338,-0.6338,-0.6338,-0.6338,-0.6234,-0.6078,-0.603,-0.603,-0.603,-0.6027,-0.5993,-0.584,-0.58,-0.58,-0.58,-0.6376,-0.6828,-0.6644,-0.7598,-0.849,-0.849,-0.9022,-0.949,-0.9484,-0.97,-0.96,-0.8845,-0.8778,-0.8633,-0.7822,-0.7513,-0.7386,-0.7386,-0.7386,-0.7386,-0.7386,-0.7386,-0.7712,-0.8425,-0.7837,-0.7712,-0.8484,-0.9344,-0.9862,-0.9983,-1.0174,-1.0371,-1.0624,-1.0624,-1.0624,-1.0624,-1.0624,-1.0624,-1.0624,-1.0624,-1.0624,-1.0624,-1.0624,-1.0624,-1.0624,-1.0624,-1.0624,-1.0624,-1.0624,-1.0624,-1.0624,-1.0624,-1.0624,-1.0624,-0.8105,-0.7577,-0.7061,-0.6814,-0.677,-0.6668,-0.6369,-0.6325,-0.6308,-0.6345,-0.6338,-0.6338,-0.6338,-0.6298,-0.6308,-0.6264,-0.6298,-0.6305,-0.6264,-0.6338,-0.6338,-0.6338,-0.6338,-0.6338,-0.6338,-0.6338,-0.6338,-0.6338,-0.6257,-0.6257,-0.6261,-0.6183,-0.6103,-0.618,-0.6103,-0.6103,-0.618,-0.6025,-0.6103,-0.6261,-0.6183,-0.6183,-0.6338,-0.6338,-0.6338,-0.6338,-0.6338,-0.6338,-0.6338,-0.6338,-0.6338,-0.6251,-0.6207,-0.6118,-0.603,-0.603,-0.5884,-0.5711,-0.5664,-0.5725,-0.58,-0.58,-0.587,-0.6124,-0.6478,-0.6899,-0.7328,-0.786,-0.819,-0.8323,-0.823,-0.8381,-0.8363,-0.7859,-0.7655,-0.7372,-0.6958,-0.6495,-0.6128,-0.6128,-0.6022,-0.6017,-0.6017,-0.6404,-0.699,-0.7647,-0.8431,-0.8879,-0.8941,-0.937,-0.9585,-0.9569,-0.9882,-1.018,-1.0371,-1.0561,-1.0624,-1.0624,-1.0624,-1.0624,-1.0624,-1.0624,-1.0624,-1.0624,-1.0624,-1.0624,-1.0624,-1.0624,-1.0624,-1.0624,-1.0624,-1.0624,-1.0624,-1.0624,-1.0624,-1.0624,-0.9061,-0.8222,-0.749,-0.7315,-0.6891,-0.6532,-0.6295,-0.6338,-0.6338,-0.6338,-0.6338,-0.6338,-0.6338,-0.6312,-0.6322,-0.6345,-0.6338,-0.6338,-0.6338,-0.6338,-0.6338,-0.6338,-0.6338,-0.6338,-0.6338,-0.6338,-0.6338,-0.6338,-0.6338,-0.6338,-0.6338,-0.6338,-0.6338,-0.6338,-0.6338,-0.6227,-0.6169,-0.609,-0.6056,-0.6078,-0.6006,-0.6006,-0.6084,-0.6146,-0.6169,-0.6176,-0.624,-0.6338,-0.6338,-0.6338,-0.6338,-0.6338,-0.6338,-0.6156,-0.603,-0.603,-0.582,-0.5589,-0.5589,-0.5654,-0.5718,-0.5718,-0.5951,-0.6306,-0.6658,-0.6916,-0.7259,-0.767,-0.7836,-0.7887,-0.7762,-0.7911,-0.7808,-0.7362,-0.7057,-0.6762,-0.6375,-0.5898,-0.5566,-0.5508,-0.5416,-0.5491,-0.5752,-0.6141,-0.6662,-0.7321,-0.8694,-0.9342,-0.8914,-0.9261,-0.9533,-0.955,-0.9832,-1.011,-1.0301,-1.0498,-1.0624,-1.0624,-1.0624,-1.0624,-1.0624,-1.0624,-1.0624,-1.0624,-1.0624,-1.0624,-1.0624,-1.0624,-1.0624,-1.0624,-1.0624,-1.0624,-1.0624,-1.0624,-1.0624,-1.0624,-1.0009,-0.9086,-0.8231,-0.8115,-0.7226,-0.6441,-0.6285,-0.6338,-0.6338,-0.6338,-0.6338,-0.6338,-0.6338,-0.6376,-0.6403,-0.6349,-0.6338,-0.6338,-0.6338,-0.6338,-0.6338,-0.6338,-0.6338,-0.6338,-0.6338,-0.6338,-0.6338,-0.6338,-0.6338,-0.6338,-0.6338,-0.6338,-0.6338,-0.6338,-0.6338,-0.6176,-0.5956,-0.58,-0.5788,-0.5803,-0.5591,-0.5663,-0.582,-0.5973,-0.603,-0.6047,-0.619,-0.624,-0.6237,-0.6224,-0.623,-0.624,-0.624,-0.6142,-0.6027,-0.6013,-0.581,-0.5589,-0.5589,-0.561,-0.5633,-0.5647,-0.636,-0.6974,-0.6849,-0.7308,-0.7739,-0.7739,-0.7757,-0.7762,-0.7744,-0.7833,-0.7753,-0.7086,-0.6925,-0.6694,-0.5895,-0.5698,-0.5555,-0.5416,-0.5442,-0.5752,-0.6334,-0.6527,-0.6859,-0.7517,-0.8759,-0.9215,-0.8624,-0.9151,-0.9612,-0.974,-0.9926,-1.011,-1.0244,-1.0498,-1.0624,-1.0624,-1.0624,-1.0624,-1.0624,-1.0624,-1.0624,-1.0624,-1.0624,-1.0624,-1.0624,-1.0624,-1.0624,-1.0624,-1.0624,-1.0624,-1.0624,-1.0624,-1.0624,-1.0618,-1.0977,-0.9639,-0.8381,-0.8135,-0.7323,-0.6563,-0.6302,-0.6338,-0.6338,-0.6338,-0.6338,-0.6338,-0.6338,-0.6288,-0.6295,-0.6264,-0.6338,-0.6338,-0.6338,-0.6338,-0.6338,-0.6338,-0.6338,-0.6338,-0.6338,-0.6338,-0.6338,-0.6338,-0.6338,-0.6338,-0.6338,-0.6338,-0.6338,-0.6338,-0.6338,-0.6176,-0.603,-0.5952,-0.5868,-0.58,-0.5731,-0.5731,-0.582,-0.5973,-0.603,-0.6034,-0.6067,-0.6078,-0.6061,-0.5942,-0.5979,-0.6078,-0.6078,-0.6057,-0.6006,-0.5884,-0.5728,-0.5589,-0.5589,-0.5759,-0.5962,-0.6084,-0.6398,-0.6504,-0.6106,-0.6255,-0.6419,-0.6419,-0.6521,-0.6572,-0.6445,-0.6528,-0.6543,-0.6172,-0.6318,-0.6342,-0.5996,-0.585,-0.5742,-0.5708,-0.597,-0.6268,-0.6396,-0.7377,-0.8296,-0.9022,-0.935,-0.9414,-0.9285,-0.942,-0.9548,-0.9548,-0.9862,-0.9989,-0.9932,-1.0371,-1.0624,-1.0624,-1.0624,-1.0624,-1.0624,-1.0624,-1.0624,-1.0624,-1.0624,-1.0624,-1.0624,-1.0624,-1.0624,-1.0624,-1.0624,-1.0624,-1.0624,-1.0624,-1.0624,-1.0591,-1.2186,-1.0883,-0.9512,-0.8873,-0.7935,-0.7075,-0.6373,-0.6338,-0.6338,-0.6338,-0.6338,-0.6338,-0.6338,-0.6338,-0.6338,-0.6338,-0.6338,-0.6338,-0.6338,-0.6338,-0.6338,-0.6338,-0.6338,-0.6227,-0.6152,-0.6224,-0.6338,-0.6338,-0.6338,-0.6338,-0.6335,-0.6183,-0.6149,-0.6146,-0.6074,-0.5959,-0.582,-0.582,-0.5732,-0.5593,-0.5593,-0.5637,-0.5718,-0.5864,-0.5922,-0.5928,-0.6003,-0.603,-0.6017,-0.5935,-0.6013,-0.6129,-0.6054,-0.5979,-0.5891,-0.5742,-0.5596,-0.5498,-0.5569,-0.5701,-0.5874,-0.6095,-0.6207,-0.6237,-0.6142,-0.6183,-0.622,-0.6152,-0.6257,-0.6318,-0.6166,-0.6146,-0.6122,-0.6034,-0.6095,-0.6122,-0.604,-0.5962,-0.6026,-0.6305,-0.6561,-0.6755,-0.7069,-0.8057,-0.8805,-0.9028,-0.9017,-0.9017,-0.9017,-0.9017,-0.8888,-0.8501,-0.8753,-0.8877,-0.8818,-0.9268,-0.946,-0.946,-1.0238,-1.0624,-1.0624,-1.0624,-1.0624,-1.0624,-1.0624,-1.0624,-1.0624,-1.0624,-1.0537,-1.0347,-1.0347,-1.0347,-1.0334,-1.0194,-1.014,-1.0181,-1.3137,-1.2102,-1.095,-0.9973,-0.8873,-0.7807,-0.6939,-0.6585,-0.649,-0.649,-0.6416,-0.6338,-0.6338,-0.6338,-0.6338,-0.6338,-0.6338,-0.6338,-0.6338,-0.6237,-0.622,-0.622,-0.6196,-0.6122,-0.5993,-0.6118,-0.6196,-0.622,-0.622,-0.6234,-0.6257,-0.6078,-0.6006,-0.6023,-0.5871,-0.5722,-0.5589,-0.5589,-0.5501,-0.5428,-0.5456,-0.546,-0.5569,-0.5739,-0.58,-0.5817,-0.5945,-0.5989,-0.5986,-0.5962,-0.6054,-0.6159,-0.603,-0.5922,-0.5813,-0.5667,-0.5572,-0.561,-0.5671,-0.5722,-0.5806,-0.6078,-0.6125,-0.6169,-0.6417,-0.6454,-0.6403,-0.6285,-0.6356,-0.64,-0.6281,-0.6156,-0.6112,-0.624,-0.6152,-0.6067,-0.6067,-0.6047,-0.6201,-0.6785,-0.6952,-0.7227,-0.7761,-0.8321,-0.8642,-0.8422,-0.8375,-0.837,-0.8406,-0.8375,-0.8088,-0.7503,-0.7596,-0.7707,-0.7707,-0.8037,-0.8172,-0.8236,-0.9588,-1.0231,-1.0231,-1.0231,-1.0231,-1.0231,-1.0231,-1.0231,-1.0231,-1.0312,-1.021,-0.9925,-1.0,-1.004,-1.0013,-0.9773,-0.9653,-0.9606,-1.3392,-1.2419,-1.1544,-1.1205,-1.0054,-0.9034,-0.876,-0.7966,-0.733,-0.733,-0.6718,-0.6338,-0.6338,-0.6338,-0.6338,-0.6338,-0.6338,-0.6338,-0.6338,-0.6135,-0.6061,-0.6061,-0.5932,-0.5854,-0.5833,-0.5854,-0.5928,-0.6061,-0.6061,-0.6129,-0.6331,-0.5966,-0.5901,-0.6023,-0.5871,-0.5722,-0.5589,-0.5589,-0.5501,-0.5439,-0.5504,-0.5491,-0.5423,-0.5698,-0.58,-0.5803,-0.5823,-0.5833,-0.5813,-0.5691,-0.5745,-0.5861,-0.5837,-0.5908,-0.5969,-0.5817,-0.5945,-0.6146,-0.6162,-0.6257,-0.6393,-0.6566,-0.6512,-0.6424,-0.6464,-0.6376,-0.6285,-0.6342,-0.6278,-0.6285,-0.6264,-0.6244,-0.6237,-0.6257,-0.6244,-0.623,-0.623,-0.6115,-0.6023,-0.6148,-0.6607,-0.7145,-0.7817,-0.7858,-0.7884,-0.7971,-0.7879,-0.786,-0.7976,-0.7879,-0.7779,-0.7644,-0.7673,-0.7707,-0.7707,-0.8037,-0.8172,-0.8236,-0.8619,-0.8812,-0.8812,-0.8812,-0.8812,-0.8812,-0.8812,-0.8812,-0.8796,-0.9152,-0.9285,-0.9291,-0.9597,-0.974,-0.974,-0.9699,-0.9519,-0.9243,-1.3561,-1.2928,-1.2147,-1.1303,-1.0568,-0.978,-0.9024,-0.8069,-0.7484,-0.7484,-0.6799,-0.6338,-0.6338,-0.6338,-0.6338,-0.6338,-0.6338,-0.6338,-0.6338,-0.6115,-0.603,-0.603,-0.5884,-0.5766,-0.5684,-0.5762,-0.5796,-0.5783,-0.5864,-0.5979,-0.6125,-0.5823,-0.5718,-0.5779,-0.5623,-0.5521,-0.546,-0.546,-0.5423,-0.5432,-0.5437,-0.5474,-0.5504,-0.5633,-0.5684,-0.5674,-0.5586,-0.5661,-0.5793,-0.5728,-0.5749,-0.5817,-0.5901,-0.5918,-0.5905,-0.5925,-0.6023,-0.6169,-0.6335,-0.6366,-0.639,-0.6536,-0.6464,-0.6356,-0.6356,-0.6305,-0.6338,-0.6338,-0.639,-0.6458,-0.6291,-0.6338,-0.6338,-0.6338,-0.6338,-0.6338,-0.6338,-0.6203,-0.6308,-0.676,-0.7443,-0.7794,-0.753,-0.7444,-0.7388,-0.7367,-0.7289,-0.7276,-0.7362,-0.7285,-0.7028,-0.6674,-0.6672,-0.6652,-0.6621,-0.6894,-0.7043,-0.706,-0.7375,-0.7834,-0.849,-0.849,-0.849,-0.849,-0.849,-0.8683,-0.9046,-0.911,-0.9223,-0.9426,-0.9431,-0.9339,-0.9212,-0.9372,-0.9252,-0.8998]},{"header":{"parameterUnit":"m.s-1","parameterCategory":1,"la1":30.6,"la2":28.766,"lo1":-90.7593,"lo2":-88.6598,"dy":0.0162,"dx":0.0183,"nx":116,"ny":114,"refTime":"2023-06-28T06:00:00:Z","depth":0,"parameterNumber":3,"parameterNumberName":"V-component_of_WINDS"},"data":[0.0,0.0,0.0,0.0,0.0,0.0,0.0,0.0,0.0,0.0,0.0,0.0,0.0,0.0,0.0,0.0,0.0,0.0,0.0,0.0,0.0,0.0,0.0,0.0,0.0,0.0,0.0,0.0,0.0,0.0,0.0,0.0,0.0,0.0,0.0,0.0,0.0,0.0,0.0,0.0,0.0,0.0,0.0,0.0,0.0,0.0,0.0,0.0,0.0,0.0,0.0,0.0,0.0,0.0,0.0,0.0,0.0,0.0,0.0,0.0,0.0,0.0,0.0,0.0,0.0,0.0,0.0,0.0,0.0,0.0,0.0,0.0,0.0,0.0,0.0,0.0,0.0,0.0,0.0,0.0,0.0,0.0,0.0,0.0,0.0,0.0,0.0,0.0,0.0,0.0,0.0,0.0,0.0,0.0,0.0,0.0,0.0,0.0,0.0,0.0,0.0,0.0,0.0,0.0,0.0,0.0,0.0,0.0,0.0,0.0,0.0,0.0,0.0,0.0,0.0,0.0,0.0,0.0,0.0,0.0,0.0,0.0,0.0,0.0,0.0,0.0,0.0,0.0,0.0,0.0,0.0,0.0,0.0,0.0,0.0,0.0,0.0,0.0,0.0,0.0,0.0,0.0,0.0,0.0,0.0,0.0,0.0,0.0,0.0,0.0,0.0,0.0,0.0,0.0,0.0,0.0,0.0,0.0,0.0,0.0,0.0,0.0,0.0,0.0,0.0,0.0,0.0,0.0,0.0,0.0,0.0,0.0,0.0,0.0,0.0,0.0,0.0,0.0,0.0,0.0,0.0,0.0,0.0,0.0,0.0,0.0,0.0,0.0,0.0,0.0,0.0,0.0,0.0,0.0,0.0,0.0,0.0,0.0,0.0,0.0,0.0,0.0,0.0,0.0,0.0,0.0,0.0,0.0,0.0,0.0,0.0,0.0,0.0,0.0,0.0,0.0,0.0,0.0,0.0,0.0,0.0,0.0,0.0,0.0,0.0,0.0,0.0,0.0,0.0,0.0,0.0,0.0,0.0,0.0,0.0,0.0,0.0,0.0,0.0,0.0,0.0,0.0,0.0,0.0,0.0,0.0,0.0,0.0,0.0,0.0,0.0,0.0,0.0,0.0,0.0,0.0,0.0,0.0,0.0,0.0,0.0,0.0,0.0,0.0,0.0,0.0,0.0,0.0,0.0,0.0,0.0,0.0,0.0,0.0,0.0,0.0,0.0,0.0,0.0,0.0,0.0,0.0,0.0,0.0,0.0,0.0,0.0,0.0,0.0,0.0,0.0,0.0,0.0,0.0,0.0,0.0,0.0,0.0,0.0,0.0,0.0,0.0,0.0,0.0,0.0,0.0,0.0,0.0,0.0,0.0,0.0,0.0,0.0,0.0,0.0,0.0,0.0,0.0,0.0,0.0,0.0,0.0,0.0,0.0,0.0,0.0,0.0,0.0,0.0,0.0,0.0,0.0,0.0,0.0,0.0,0.0,0.0,0.0,0.0,0.0,0.0,0.0,0.0,0.0,0.0,0.0,0.0,0.0,0.0,0.0,0.0,0.0,0.0,0.0,0.0,0.0,0.0,0.0,0.0,0.0,0.0,0.0,0.0,0.0,0.0,0.0,0.0,0.0,0.0,0.0,0.0,0.0,0.0,0.0,0.0,0.0,0.0,0.0,0.0,0.0,0.0,0.0,0.0,0.0,0.0,0.0,0.0,0.0,0.0,0.0,0.0,0.0,0.0,0.0,0.0,0.0,0.0,0.0,0.0,0.0,0.0,0.0,0.0,0.0,0.0,0.0,0.0,0.0,0.0,0.0,0.0,0.0,0.0,0.0,0.0,0.0,0.0,0.0,0.0,0.0,0.0,0.0,0.0,0.0,0.0,0.0,0.0,0.0,0.0,0.0,0.0,0.0,0.0,0.0,0.0,0.0,0.0,0.0,0.0,0.0,0.0,0.0,0.0,0.0,0.0,0.0,0.0,0.0,0.0,0.0,0.0,0.0,0.0,0.0,0.0,0.0,0.0,0.0,0.0,0.0,0.0,0.0,0.0,0.0,0.0,0.0,0.0,0.0,0.0,0.0,0.0,0.0,0.0,0.0,0.0,0.0,0.0,0.0,0.0,0.0,0.0,0.0,0.0,0.0,0.0,0.0,0.0,0.0,0.0,0.0,0.0,0.0,0.0,0.0,0.0,0.0,0.0,0.0,0.0,0.0,0.0,0.0,0.0,0.0,0.0,0.0,0.0,0.0,0.0,0.0,0.0,0.0,0.0,0.0,0.0,0.0,0.0,0.0,0.0,0.0,0.0,0.0,0.0,0.0,0.0,0.0,0.0,0.0,0.0,0.0,0.0,0.0,0.0,0.0,0.0,0.0,0.0,0.0,0.0,0.0,0.0,0.0,0.0,0.0,0.0,0.0,0.0,0.0,0.0,0.0,0.0,0.0,0.0,0.0,0.0,0.0,0.0,0.0,0.0,0.0,0.0,0.0,0.0,0.0,0.0,0.0,0.0,0.0,0.0,0.0,0.0,0.0,0.0,0.0,0.0,0.0,0.0,0.0,0.0,0.0,0.0,0.0,0.0,0.0,0.0,0.0,0.0,0.0,0.0,0.0,0.0,0.0,0.0,0.0,0.0,0.0,0.0,0.0,0.0,0.0,0.0,0.0,0.0,0.0,0.0,0.0,0.0,0.0,0.0,0.0,0.0,0.0,0.0,0.0,0.0,0.0,0.0,0.0,0.0,0.0,0.0,0.0,0.0,0.0,0.0,0.0,0.0,0.0,0.0,0.0,0.0,0.0,0.0,0.0,0.0,0.0,0.0,0.0,0.0,0.0,0.0,0.0,0.0,0.0,0.0,0.0,0.0,0.0,0.0,0.0,0.0,0.0,0.0,0.0,0.0,0.0,0.0,0.0,0.0,0.0,0.0,0.0,0.0,0.0,0.0,0.0,0.0,0.0,0.0,0.0,0.0,0.0,0.0,0.0,0.0,0.0,0.0,0.0,0.0,0.0,0.0,0.0,0.0,0.0,0.0,0.0,0.0,0.0,0.0,0.0,0.0,0.0,0.0,0.0,0.0,0.0,0.0,0.0,0.0,0.0,0.0,0.0,0.0,0.0,0.0,0.0,0.0,0.0,0.0,0.0,0.0,0.0,0.0,0.0,0.0,0.0,0.0,0.0,0.0,0.0,0.0,0.0,0.0,0.0,0.0,0.0,0.0,0.0,0.0,0.0,0.0,0.0,0.0,0.0,0.0,0.0,0.0,0.0,0.0,0.0,0.0,0.0,0.0,0.0,0.0,0.0,0.0,0.0,0.0,0.0,0.0,0.0,0.0,0.0,0.0,0.0,0.0,0.0,0.0,0.0,0.0,0.0,0.0,0.0,0.0,0.0,0.0,0.0,0.0,0.0,0.0,0.0,0.0,0.0,0.0,0.0,0.0,0.0,0.0,0.0,0.0,0.0,0.0,0.0,0.0,0.0,0.0,0.0,0.0,0.0,0.0,0.0,0.0,0.0,0.0,0.0,0.0,0.0,0.0,0.0,0.0,0.0,0.0,0.0,0.0,0.0,0.0,0.0,0.0,0.0,0.0,0.0,0.0,0.0,0.0,0.0,0.0,0.0,0.0,0.0,0.0,0.0,0.0,0.0,0.0,0.0,0.0,0.0,0.0,0.0,0.0,0.0,0.0,0.0,0.0,0.0,0.0,0.0,0.0,0.0,0.0,0.0,0.0,0.0,0.0,0.0,0.0,0.0,0.0,0.0,0.0,0.0,0.0,0.0,0.0,0.0,0.0,0.0,0.0,0.0,0.0,0.0,0.0,0.0,0.0,0.0,0.0,0.0,0.0,0.0,0.0,0.0,0.0,0.0,0.0,0.0,0.0,0.0,0.0,0.0,0.0,0.0,0.0,0.0,0.0,0.0,0.0,0.0,0.0,0.0,0.0,0.0,0.0,0.0,0.0,0.0,0.0,0.0,0.0,0.0,0.0,0.0,0.0,0.0,0.0,0.0,0.0,0.0,0.0,0.0,0.0,0.0,0.0,0.0,0.0,0.0,0.0,0.0,0.0,0.0,0.0,0.0,0.0,0.0,0.0,0.0,0.0,0.0,0.0,0.0,0.0,0.0,0.0,0.0,0.0,0.0,0.0,0.0,0.0,0.0,0.0,0.0,0.0,0.0,0.0,0.0,0.0,0.0,0.0,0.0,0.0,0.0,0.0,0.0,0.0,0.0,0.0,0.0,0.0,0.0,0.0,0.0,0.0,0.0,0.0,0.0,0.0,0.0,0.0,0.0,0.0,0.0,0.0,0.0,0.0,0.0,0.0,0.0,0.0,0.0,0.0,0.0,0.0,0.0,0.0,0.0,0.0,0.0,0.0,0.0,0.0,0.0,0.0,0.0,0.0,0.0,0.0,0.0,0.0,0.0,0.0,0.0,0.0,0.0,0.0,0.0,0.0,0.0,0.0,0.0,0.0,0.0,0.0,0.0,0.0,0.0,0.0,0.0,0.0,0.0,0.0,0.0,0.0,0.0,0.0,0.0,0.0,0.0,0.0,0.0,0.0,0.0,0.0,0.0,0.0,0.0,0.0,0.0,0.0,0.0,0.0,0.0,0.0,0.0,0.0,0.0,0.0,0.0,0.0,0.0,0.0,0.0,0.0,0.0,0.0,0.0,0.0,0.0,0.0,0.0,0.0,0.0,0.0,0.0,0.0,0.0,0.0,0.0,0.0,0.0,0.0,0.0,0.0,0.0,0.0,0.0,0.0,0.0,0.0,0.0,0.0,0.0,0.0,0.0,0.0,0.0,0.0,0.0,0.0,0.0,0.0,0.0,0.0,0.0,0.0,0.0,0.0,0.0,0.0,0.0,0.0,0.0,0.0,0.0,0.0,0.0,0.0,0.0,0.0,0.0,0.0,0.0,0.0,0.0,0.0,0.0,0.0,0.0,0.0,0.0,0.0,0.0,0.0,0.0,0.0,0.0,0.0,0.0,0.0,0.0,0.0,0.0,0.0,0.0,0.0,0.0,0.0,0.0,0.0,0.0,0.0,0.0,0.0,0.0,0.0,0.0,0.0,0.0,0.0,0.0,0.0,0.0,0.0,0.0,0.0,0.0,0.0,0.0,0.0,0.0,0.0,0.0,0.0,0.0,0.0,0.0,0.0,0.0,0.0,0.0,0.0,0.0,0.0,0.0,0.0,0.0,0.0,0.0,0.0,0.0,0.0,0.0,0.0,0.0,0.0,0.0,0.0,0.0,0.0,0.0,0.0,0.0,0.0,0.0,0.0,0.0,0.0,0.0,0.0,0.0,0.0,0.0,0.0,0.0,0.0,0.0,0.0,0.0,0.0,0.0,0.0,0.0,0.0,0.0,0.0,0.0,0.0,0.0,0.0,0.0,0.0,0.0,0.0,0.0,0.0,0.0,0.0,0.0,0.0,0.0,0.0,0.0,0.0,0.0,0.0,0.0,0.0,0.0,0.0,0.0,0.0,0.0,0.0,0.0,0.0,0.0,0.0,0.0,0.0,0.0,0.0,0.0,0.0,0.0,0.0,0.0,0.0,0.0,0.0,0.0,0.0,0.0,0.0,0.0,0.0,0.0,0.0,0.0,0.0,0.0,0.0,0.0,0.0,0.0,0.0,0.0,0.0,0.0,0.0,0.0,0.0,0.0,0.0,0.0,0.0,0.0,0.0,0.0,0.0,0.0,0.0,0.0,0.0,0.0,0.0,0.0,0.0,0.0,0.0,0.0,0.0,0.0,0.0,0.0,0.0,0.0,0.0,0.0,0.0,0.0,0.0,0.0,0.0,0.0,0.0,0.0,0.0,0.0,0.0,0.0,0.0,0.0,0.0,0.0,0.0,0.0,0.0,0.0,0.0,0.0,0.0,0.0,0.0,0.0,0.0,0.0,0.0,0.0,0.0,0.0,0.0,0.0,0.0,0.0,0.0,0.0,0.0,0.0,0.0,0.0,0.0,0.0,0.0,0.0,0.0,0.0,0.0,0.0,0.0,0.0,0.0,0.0,0.0,0.0,0.0,0.0,0.0,0.0,0.0,0.0,0.0,0.0,0.0,0.0,0.0,0.0,0.0,0.0,0.0,0.0,-1.722,0.0,0.0,0.0,0.0,0.0,0.0,0.0,0.0,0.0,0.0,0.0,0.0,0.0,0.0,0.0,0.0,0.0,0.0,0.0,0.0,0.0,0.0,0.0,0.0,0.0,0.0,0.0,0.0,0.0,0.0,0.0,0.0,0.0,0.0,0.0,0.0,0.0,0.0,0.0,0.0,0.0,0.0,0.0,0.0,0.0,0.0,0.0,0.0,0.0,0.0,0.0,0.0,0.0,0.0,0.0,0.0,0.0,0.0,0.0,0.0,0.0,0.0,0.0,0.0,0.0,0.0,0.0,0.0,0.0,0.0,0.0,0.0,0.0,0.0,0.0,0.0,0.0,0.0,0.0,0.0,0.0,0.0,0.0,0.0,0.0,0.0,0.0,0.0,0.0,0.0,0.0,0.0,0.0,0.0,0.0,0.0,0.0,0.0,0.0,0.0,0.0,0.0,0.0,0.0,0.0,0.0,0.0,0.0,0.0,0.0,0.0,0.0,0.0,0.0,0.0,0.0,-1.7354,0.0,0.0,0.0,0.0,0.0,0.0,0.0,0.0,0.0,0.0,0.0,0.0,0.0,0.0,0.0,0.0,0.0,0.0,0.0,0.0,0.0,0.0,0.0,0.0,0.0,0.0,0.0,0.0,0.0,0.0,0.0,0.0,0.0,0.0,0.0,0.0,0.0,0.0,0.0,0.0,0.0,0.0,0.0,0.0,0.0,0.0,0.0,0.0,0.0,0.0,0.0,0.0,0.0,0.0,0.0,0.0,0.0,0.0,0.0,0.0,0.0,0.0,0.0,0.0,0.0,0.0,0.0,0.0,0.0,0.0,0.0,0.0,0.0,0.0,0.0,0.0,0.0,0.0,0.0,0.0,0.0,0.0,0.0,0.0,0.0,0.0,0.0,0.0,0.0,0.0,0.0,0.0,0.0,0.0,0.0,0.0,0.0,0.0,0.0,0.0,0.0,0.0,0.0,0.0,0.0,0.0,0.0,0.0,-2.2114,-2.2548,-2.3166,-2.2965,-2.2831,-2.2676,-1.9922,-1.8883,-1.8981,-1.674,0.0,0.0,0.0,0.0,0.0,0.0,0.0,0.0,0.0,0.0,0.0,0.0,0.0,0.0,0.0,0.0,0.0,0.0,0.0,0.0,0.0,0.0,0.0,0.0,0.0,0.0,0.0,0.0,0.0,0.0,0.0,0.0,0.0,0.0,0.0,0.0,0.0,0.0,0.0,0.0,0.0,0.0,0.0,0.0,0.0,0.0,0.0,0.0,0.0,0.0,0.0,0.0,0.0,0.0,0.0,0.0,0.0,0.0,0.0,0.0,0.0,0.0,0.0,0.0,0.0,0.0,0.0,0.0,0.0,0.0,0.0,0.0,0.0,0.0,0.0,0.0,0.0,0.0,0.0,0.0,0.0,0.0,0.0,0.0,0.0,0.0,-2.0697,-2.1313,0.0,0.0,0.0,0.0,0.0,0.0,0.0,0.0,0.0,0.0,0.0,0.0,0.0,-2.1898,-2.3199,-2.3743,-2.3923,-2.3773,-2.4831,-2.5103,-2.4732,-2.5216,-2.5402,-2.5331,-2.3856,0.0,-2.1626,-2.0414,0.0,0.0,0.0,0.0,0.0,0.0,0.0,0.0,0.0,0.0,0.0,0.0,0.0,0.0,0.0,0.0,0.0,0.0,0.0,0.0,0.0,0.0,0.0,0.0,0.0,0.0,0.0,0.0,0.0,0.0,0.0,0.0,0.0,0.0,0.0,0.0,0.0,0.0,0.0,0.0,0.0,0.0,0.0,0.0,0.0,0.0,0.0,0.0,0.0,0.0,0.0,0.0,0.0,0.0,0.0,0.0,0.0,0.0,0.0,0.0,0.0,0.0,0.0,0.0,0.0,0.0,0.0,0.0,0.0,0.0,0.0,0.0,0.0,0.0,0.0,0.0,0.0,0.0,0.0,0.0,0.0,0.0,0.0,0.0,0.0,-2.0068,-2.139,-2.2034,-2.1802,-2.1207,0.0,0.0,0.0,0.0,0.0,0.0,0.0,0.0,0.0,-2.2992,-2.3305,-2.3985,-2.5003,-2.5578,-2.6269,-2.7186,-2.772,-2.8015,-2.8099,-2.8366,-2.831,-2.7931,-2.7045,-2.616,-2.5145,-2.2225,-2.0699,-1.9961,0.0,0.0,0.0,0.0,-1.6929,-1.7334,0.0,0.0,0.0,0.0,0.0,0.0,0.0,0.0,0.0,0.0,0.0,0.0,0.0,0.0,0.0,-2.0136,0.0,0.0,0.0,0.0,0.0,0.0,0.0,0.0,0.0,0.0,0.0,0.0,0.0,0.0,0.0,0.0,0.0,0.0,0.0,0.0,0.0,0.0,0.0,0.0,0.0,0.0,0.0,0.0,0.0,0.0,0.0,0.0,0.0,0.0,0.0,0.0,0.0,0.0,0.0,0.0,0.0,0.0,0.0,0.0,0.0,0.0,0.0,0.0,0.0,0.0,0.0,0.0,0.0,0.0,0.0,0.0,0.0,0.0,0.0,0.0,0.0,-2.1305,-2.2572,-2.3096,-2.3325,-2.2998,0.0,0.0,0.0,0.0,0.0,0.0,-2.308,-2.3706,-2.4506,-2.5567,-2.6002,-2.6605,-2.747,-2.7834,-2.8703,-3.0094,-3.0094,-3.0235,-3.053,-3.053,-3.0193,-2.9574,-2.9125,-2.8577,-2.772,-2.3983,-2.2126,-2.1439,-2.0373,-1.98,-1.946,-1.8626,-1.874,-1.928,0.0,0.0,0.0,0.0,0.0,0.0,0.0,0.0,0.0,0.0,0.0,0.0,0.0,0.0,-2.339,-2.3451,-2.3617,-2.3004,0.0,0.0,0.0,0.0,0.0,0.0,0.0,0.0,0.0,0.0,0.0,0.0,0.0,0.0,0.0,0.0,0.0,0.0,0.0,0.0,0.0,0.0,0.0,0.0,0.0,0.0,0.0,0.0,0.0,0.0,0.0,0.0,0.0,0.0,0.0,0.0,0.0,0.0,0.0,0.0,0.0,0.0,0.0,0.0,0.0,0.0,0.0,0.0,0.0,0.0,0.0,0.0,0.0,0.0,0.0,0.0,0.0,0.0,0.0,0.0,0.0,-2.4685,-2.6961,0.0,0.0,0.0,0.0,-2.3638,-2.4871,-2.5787,-2.6054,-2.6718,-2.8066,-3.022,-2.9978,-3.0425,-3.1682,-3.1429,-3.1302,-3.1387,-3.1387,-3.1092,-3.053,-3.053,-3.0193,-2.9602,-2.9574,-2.9209,-2.8493,-2.6483,-2.5005,-2.3737,-2.2076,-2.104,-2.0457,-1.9918,-1.9745,-1.985,0.0,0.0,0.0,0.0,0.0,0.0,0.0,0.0,0.0,0.0,0.0,0.0,0.0,-2.4011,-2.6399,-2.7407,-2.9006,-2.8598,-2.5466,0.0,0.0,0.0,0.0,0.0,0.0,0.0,0.0,0.0,0.0,0.0,0.0,0.0,0.0,0.0,0.0,0.0,0.0,0.0,0.0,0.0,0.0,0.0,0.0,0.0,0.0,0.0,0.0,0.0,0.0,0.0,0.0,0.0,0.0,0.0,0.0,0.0,0.0,0.0,0.0,0.0,0.0,0.0,0.0,0.0,0.0,0.0,0.0,0.0,0.0,0.0,0.0,0.0,0.0,0.0,0.0,0.0,0.0,0.0,0.0,-2.7964,-2.9794,0.0,-2.8942,-2.8333,-2.7842,-2.7287,-2.8679,-2.9771,-3.0251,-3.0499,-3.1183,-3.2254,-3.1781,-3.1804,-3.2464,-3.1933,-3.1998,-3.2665,-3.2258,-3.1963,-3.1724,-3.1331,-3.0797,-3.0178,-2.9785,-2.949,-2.9237,-2.8563,-2.7312,-2.5725,-2.4747,-2.4196,-2.392,-2.3114,-2.2812,-2.2761,0.0,0.0,0.0,0.0,0.0,0.0,0.0,0.0,0.0,0.0,0.0,-2.1485,-2.3374,-2.6997,-2.9953,-3.1549,-3.2737,-3.1789,-2.8019,0.0,0.0,0.0,0.0,0.0,0.0,0.0,0.0,0.0,0.0,0.0,0.0,0.0,0.0,0.0,0.0,0.0,0.0,0.0,0.0,0.0,0.0,0.0,-2.7985,0.0,0.0,0.0,0.0,0.0,0.0,0.0,0.0,0.0,0.0,0.0,0.0,0.0,0.0,0.0,0.0,0.0,0.0,0.0,0.0,0.0,0.0,0.0,0.0,0.0,0.0,0.0,0.0,0.0,0.0,0.0,0.0,0.0,0.0,0.0,-2.9512,-3.0961,-3.295,-3.3876,-3.2885,-3.2547,-3.2162,-3.1659,-3.3038,-3.3754,-3.3507,-3.3688,-3.3912,-3.4264,-3.3806,-3.3657,-3.3813,-3.3036,-3.2998,-3.3677,-3.3002,-3.2707,-3.2693,-3.2075,-3.1569,-3.112,-3.0502,-3.0249,-3.0221,-3.001,-2.9181,-2.7987,-2.7158,-2.6708,-2.6428,-2.573,-2.5355,-2.512,0.0,0.0,0.0,0.0,0.0,0.0,0.0,0.0,0.0,0.0,-2.0876,-2.3316,-2.5919,-3.0422,-3.3947,-3.5679,-3.4353,-3.2007,-2.8724,0.0,0.0,0.0,0.0,0.0,0.0,0.0,0.0,0.0,0.0,0.0,0.0,0.0,0.0,0.0,0.0,0.0,0.0,0.0,0.0,0.0,0.0,0.0,-3.2293,0.0,0.0,0.0,0.0,0.0,0.0,0.0,0.0,0.0,0.0,0.0,0.0,0.0,0.0,0.0,0.0,0.0,0.0,0.0,0.0,0.0,0.0,0.0,0.0,0.0,0.0,0.0,0.0,0.0,0.0,0.0,0.0,0.0,-2.6924,-3.0701,-3.3388,-3.3567,-3.6539,-3.8075,-3.6771,-3.7767,-3.7972,-3.6662,-3.7738,-3.7607,-3.5642,-3.6025,-3.6344,-3.6344,-3.6101,-3.6,-3.6,-3.5011,-3.4484,-3.4469,-3.3663,-3.3326,-3.3297,-3.2693,-3.2412,-3.237,-3.1752,-3.1485,-3.1443,-3.0797,-3.053,-3.0403,-2.9195,-2.8352,-2.7832,-2.7482,-2.7083,-2.6519,0.0,0.0,0.0,0.0,0.0,0.0,0.0,0.0,0.0,0.0,-2.1756,-2.4598,-2.8182,-3.1899,-3.479,-3.6378,-3.463,-3.2025,-2.8778,0.0,0.0,0.0,0.0,0.0,0.0,0.0,0.0,0.0,0.0,0.0,0.0,0.0,0.0,0.0,0.0,0.0,0.0,0.0,0.0,0.0,0.0,0.0,-3.7485,0.0,0.0,0.0,0.0,0.0,0.0,0.0,0.0,0.0,0.0,0.0,0.0,0.0,0.0,0.0,0.0,0.0,0.0,0.0,0.0,0.0,0.0,0.0,0.0,0.0,0.0,0.0,0.0,0.0,0.0,0.0,0.0,-3.1026,-3.1475,-3.4267,-3.7205,-3.9745,-4.1338,-4.2099,-4.1756,-4.1533,-4.1087,-4.01,-3.9939,-3.9325,-3.8204,-3.7433,-3.7041,-3.7041,-3.6331,-3.5928,-3.5783,-3.4967,-3.444,-3.4283,-3.3607,-3.3326,-3.3297,-3.2693,-3.2412,-3.237,-3.1752,-3.1485,-3.1443,-3.0797,-3.053,-3.0445,-2.9659,-2.9251,-2.8979,-2.826,-2.7166,-2.6031,0.0,0.0,0.0,0.0,0.0,0.0,0.0,0.0,0.0,0.0,-2.2296,-2.5123,-2.9116,-3.2216,-3.437,-3.5291,-3.29,-2.9972,-2.6766,0.0,0.0,0.0,0.0,0.0,0.0,0.0,0.0,0.0,0.0,0.0,0.0,0.0,0.0,0.0,0.0,0.0,0.0,0.0,0.0,0.0,0.0,0.0,-4.2185,-3.8831,-3.65,-3.4756,-3.2615,-3.2411,-3.2766,-3.0146,0.0,0.0,0.0,0.0,0.0,0.0,0.0,0.0,0.0,0.0,0.0,0.0,0.0,0.0,0.0,0.0,0.0,0.0,0.0,0.0,0.0,0.0,0.0,0.0,-3.3086,-3.6072,-3.7954,-3.9292,-4.0929,-4.3249,-4.4156,-4.4593,-4.4593,-4.4204,-4.352,-4.2443,-4.172,-4.0705,-3.9282,-3.8221,-3.768,-3.768,-3.7155,-3.6865,-3.6718,-3.5896,-3.5378,-3.5218,-3.4198,-3.3831,-3.4056,-3.3185,-3.2918,-3.3143,-3.2525,-3.2258,-3.2188,-3.1302,-3.0937,-3.0839,0.0,0.0,0.0,0.0,-2.7633,-2.6532,0.0,0.0,0.0,0.0,0.0,0.0,0.0,0.0,0.0,0.0,0.0,-2.4872,-2.8874,-3.1477,-3.2961,-3.3092,-3.0207,-2.7067,0.0,0.0,0.0,0.0,0.0,0.0,0.0,0.0,0.0,0.0,0.0,0.0,0.0,0.0,0.0,0.0,0.0,0.0,0.0,0.0,0.0,0.0,0.0,0.0,-4.643,-4.336,-4.1143,-3.9456,-3.7769,-3.6783,-3.6062,-3.4756,0.0,0.0,0.0,0.0,0.0,0.0,0.0,0.0,0.0,0.0,0.0,0.0,0.0,0.0,0.0,0.0,0.0,0.0,0.0,0.0,0.0,0.0,0.0,0.0,-3.7105,-4.0544,-4.4545,-4.4496,-4.4334,-4.5063,-4.5613,-4.5921,-4.5921,-4.5921,-4.5375,-4.405,-4.3207,-4.1801,-3.9676,0.0,0.0,0.0,0.0,-3.8127,-3.8127,-3.7132,-3.6607,-3.6593,-3.5046,-3.459,-3.5012,-3.3916,-3.3691,-3.4098,-3.355,-3.3283,-3.3129,-3.1963,-3.1415,-3.1162,-3.0052,-2.9602,-2.954,-2.8908,-2.8257,-2.7583,0.0,0.0,0.0,0.0,0.0,0.0,0.0,0.0,0.0,-2.0697,-2.1476,-2.3279,-2.7223,-2.9233,-3.0584,-3.125,-2.8981,0.0,0.0,0.0,0.0,0.0,0.0,0.0,0.0,0.0,0.0,0.0,0.0,0.0,0.0,0.0,0.0,0.0,0.0,0.0,0.0,0.0,0.0,0.0,0.0,0.0,-5.0088,-4.8723,-4.7169,-4.5501,-4.3815,-4.38,-4.395,-3.9727,-3.873,-3.8535,-3.4215,0.0,0.0,0.0,0.0,0.0,0.0,0.0,0.0,0.0,0.0,0.0,0.0,0.0,0.0,0.0,0.0,0.0,0.0,0.0,0.0,-3.7288,-4.0687,-4.3569,-4.5404,-4.5986,-4.6552,-4.7297,-4.6957,-4.6682,-4.6682,-4.6682,-4.6325,-4.5373,-4.4102,-4.2631,-4.1055,-3.9721,-3.8754,-3.8217,-3.7915,-3.7687,-3.7687,-3.6694,-3.6217,-3.6217,-3.5395,0.0,-3.4407,-3.4169,-3.3845,-3.3494,-3.3368,-3.3031,-3.2525,-3.1794,-3.0895,-2.994,-2.9701,-2.9602,-2.954,-2.9162,-2.8587,-2.7989,0.0,0.0,0.0,0.0,0.0,0.0,0.0,0.0,0.0,0.0,-2.0383,-2.1608,-2.3993,-2.5332,-2.6099,-2.6099,0.0,0.0,0.0,0.0,0.0,0.0,0.0,0.0,0.0,0.0,0.0,0.0,0.0,0.0,0.0,0.0,0.0,0.0,0.0,0.0,0.0,0.0,0.0,0.0,0.0,0.0,-5.2911,-5.1642,-5.0372,-4.9197,-4.8344,-4.7651,-4.6797,-4.4515,-4.3247,-4.2137,-3.9473,-3.5504,-3.1159,0.0,0.0,0.0,0.0,0.0,0.0,0.0,0.0,0.0,0.0,0.0,0.0,0.0,0.0,-3.054,0.0,0.0,-3.7892,-4.0492,-4.3144,-4.534,-4.6714,-4.6892,-4.7022,-4.741,-4.7103,-4.6876,-4.6876,-4.6876,-4.6576,-4.5789,-4.4309,-4.3039,-4.2028,-4.0495,-3.9416,-3.902,-3.8486,-3.8173,-3.8082,-3.7147,-3.6682,-3.6668,-3.5986,-3.5293,-3.4688,-3.4379,-3.3902,-3.3326,-3.3326,-3.2974,-3.2328,-3.1387,-3.0331,-2.9352,-2.9352,-2.9477,-2.954,-2.9035,-2.8652,-2.8288,0.0,0.0,0.0,0.0,0.0,0.0,0.0,0.0,0.0,0.0,0.0,-1.9991,-2.0942,-2.1538,-2.154,0.0,0.0,0.0,0.0,0.0,0.0,0.0,0.0,0.0,0.0,0.0,0.0,0.0,0.0,0.0,0.0,0.0,0.0,0.0,0.0,0.0,0.0,0.0,0.0,0.0,0.0,0.0,-5.4867,-5.3232,-5.2125,-5.1414,-5.1263,-4.914,-4.6568,-4.7454,-4.5823,-4.3415,-4.3681,-4.1045,-3.7007,-3.2526,-3.1002,0.0,0.0,0.0,0.0,0.0,0.0,0.0,0.0,0.0,-3.1852,-3.197,-3.3254,-3.4863,-3.6484,-3.8825,-4.1313,-4.3526,-4.5228,-4.6653,-4.7637,-4.7265,-4.6876,-4.6876,-4.6876,-4.6876,-4.6876,-4.6876,-4.6633,-4.605,-4.4542,-4.3371,-4.2725,-4.1184,-4.0155,-3.9895,-3.9326,-3.8839,-3.8553,-3.7806,-3.7339,-3.7211,-3.6437,-3.5742,-3.5212,-3.452,-3.3902,-3.3312,-3.3199,-3.2792,-3.2145,-3.0993,-2.9973,-2.9162,-2.9099,-2.9289,-2.9415,-2.8716,-2.8536,-2.8325,0.0,0.0,0.0,0.0,0.0,0.0,0.0,0.0,0.0,0.0,0.0,0.0,0.0,0.0,0.0,0.0,0.0,0.0,0.0,0.0,0.0,0.0,0.0,0.0,0.0,0.0,0.0,0.0,0.0,0.0,0.0,0.0,0.0,0.0,0.0,0.0,0.0,0.0,0.0,0.0,0.0,0.0,-5.536,-5.3868,-5.287,-5.2172,-5.1471,-4.7617,-4.3253,-4.5749,-4.4332,-4.1917,-4.4193,-4.3147,-4.042,-3.6892,0.0,-2.983,-2.6297,-2.542,-2.6093,-2.8429,-2.8456,-2.9555,0.0,0.0,-3.5404,-3.7769,-3.9943,-4.1558,-4.2277,-4.4245,-4.5994,-4.6647,-4.7427,-4.7733,-4.714,-4.6941,-4.6876,-4.6876,-4.6876,-4.6876,-4.6876,-4.6876,-4.686,-4.6763,-4.528,-4.4095,-4.3387,-4.1867,-4.0713,-4.0118,-3.965,-3.919,-3.8553,-3.8074,-3.7526,-3.7056,-3.636,-3.5742,-3.5212,-3.452,-3.3902,-3.3297,-3.2736,-3.2159,-3.1541,-3.0825,-3.0101,-2.9477,-2.9226,-2.9099,-2.9099,-2.8406,-2.8145,-2.8066,0.0,0.0,0.0,0.0,0.0,0.0,0.0,0.0,0.0,0.0,0.0,0.0,0.0,0.0,0.0,0.0,0.0,0.0,0.0,0.0,0.0,0.0,0.0,0.0,0.0,0.0,0.0,0.0,0.0,0.0,0.0,0.0,0.0,0.0,0.0,0.0,0.0,0.0,0.0,0.0,0.0,0.0,-5.4015,-5.2949,-5.1148,-4.8975,-4.6845,-4.3775,0.0,0.0,-4.0136,-4.0212,-4.3369,-4.1731,-3.842,-3.7021,-3.4067,0.0,-3.1831,-3.0516,0.0,0.0,-3.5641,-3.6998,-3.9856,-4.0797,-4.1307,-4.2128,-4.33,-4.4509,-4.5487,-4.6716,-4.7564,0.0,-4.7977,-4.7788,-4.6989,-4.652,-4.6115,-4.571,-4.6018,-4.6423,-4.6844,-4.6876,-4.6876,-4.6876,-4.5841,-4.4896,-4.4079,-4.3022,-4.1902,-4.0925,-4.032,-3.9843,-3.9329,-3.8352,-3.7765,-3.7512,-3.6894,-3.6093,-3.5212,-3.4885,-3.4239,-3.3297,-3.2665,-3.2258,-3.1949,-3.0937,-3.0104,-2.9518,-2.8981,-2.8522,-2.8183,-2.8145,-2.8079,-2.8013,0.0,0.0,0.0,0.0,0.0,0.0,0.0,0.0,0.0,0.0,0.0,0.0,0.0,0.0,0.0,0.0,0.0,0.0,0.0,0.0,0.0,0.0,0.0,0.0,0.0,0.0,0.0,0.0,0.0,0.0,0.0,0.0,0.0,0.0,0.0,0.0,0.0,0.0,0.0,0.0,0.0,0.0,-5.2473,-5.1021,-4.8265,-4.489,-4.2743,-3.9764,0.0,0.0,-3.5008,-3.5622,-3.939,-3.8348,-3.569,-3.5605,-3.343,-3.1706,-3.4633,0.0,0.0,-3.9007,-4.1745,-4.3313,-4.3744,-4.4827,-4.5699,-4.5433,-4.576,-4.6388,-4.7257,-4.7874,-4.8127,-4.7879,-4.7918,-4.767,-4.6714,-4.5969,-4.5273,-4.4577,-4.4755,-4.5225,-4.5937,-4.6536,-4.6811,-4.6601,-4.5802,-4.511,-4.451,-4.3427,-4.2415,-4.1549,-4.0939,-4.0376,-3.9872,-3.8707,-3.8074,-3.7892,-3.7105,-3.6178,-3.5212,-3.4874,-3.4155,-3.3297,-3.2848,-3.2553,-3.2328,-3.1415,-3.0609,-3.0006,-2.9127,-2.8504,-2.8013,-2.7934,-2.7947,-2.7868,0.0,0.0,0.0,0.0,0.0,0.0,0.0,0.0,0.0,0.0,0.0,0.0,0.0,0.0,0.0,0.0,0.0,0.0,0.0,0.0,0.0,0.0,0.0,0.0,0.0,0.0,0.0,0.0,0.0,0.0,0.0,0.0,0.0,0.0,0.0,0.0,0.0,0.0,0.0,0.0,0.0,0.0,-5.1118,-4.8044,-4.4263,-4.0635,-4.0865,0.0,0.0,0.0,-2.9148,-2.6588,-3.1039,-3.2889,0.0,-3.3086,-3.1314,0.0,0.0,0.0,-3.6911,-4.2074,-4.4463,-4.6113,-4.8048,-4.7622,-4.7071,-4.7752,-4.777,-4.7605,-4.7537,-4.789,-4.7911,-4.7091,-4.754,-4.7491,-4.605,-4.5257,-4.4561,-4.3832,-4.3136,-4.3022,0.0,-4.5678,-4.6585,-4.5888,-4.5013,-4.4526,-4.451,-4.271,-4.1688,-4.1688,-4.124,-4.0703,-4.0122,-3.9239,-3.8524,-3.7892,-3.6683,-3.577,-3.5184,-3.3916,-3.3354,-3.3326,-3.3297,-3.296,-3.2412,-3.237,-3.2005,-3.1335,-3.0019,-2.9455,-2.9307,-2.8,-2.7523,-2.7536,0.0,0.0,0.0,0.0,0.0,0.0,0.0,0.0,0.0,0.0,0.0,0.0,0.0,0.0,0.0,0.0,0.0,0.0,0.0,0.0,0.0,0.0,0.0,0.0,0.0,0.0,0.0,0.0,0.0,0.0,0.0,0.0,0.0,0.0,0.0,0.0,0.0,0.0,0.0,0.0,0.0,0.0,-4.6141,-4.2876,-3.9082,-3.5076,0.0,0.0,0.0,0.0,-2.4026,-2.4257,-2.72,0.0,0.0,-2.7184,-2.9168,-3.201,-3.6988,0.0,-4.2023,-4.6549,-4.8742,-4.9913,-5.0312,-5.0085,-4.9471,-4.8579,-4.6695,-4.4826,-4.376,-4.3182,-4.3026,-4.336,-4.3962,-4.4609,-4.5063,-4.4933,-4.4172,-4.2488,-4.3346,0.0,0.0,0.0,0.0,-4.5759,-4.5523,-4.5207,-4.493,-4.3851,-4.2826,-4.1922,-4.1324,-4.0633,-3.9872,-3.9267,-3.8538,-3.7892,-3.6655,-3.5742,-3.5198,-3.4309,-3.3705,-3.3326,-3.3326,-3.3199,-3.2974,-3.2277,-3.1765,-3.1254,-3.0173,-2.9848,-3.0011,-2.9029,-2.9006,-2.9214,0.0,0.0,0.0,0.0,0.0,0.0,0.0,0.0,0.0,0.0,0.0,0.0,0.0,0.0,0.0,0.0,0.0,0.0,0.0,0.0,0.0,0.0,0.0,0.0,0.0,0.0,0.0,0.0,0.0,0.0,0.0,0.0,0.0,0.0,0.0,0.0,0.0,0.0,0.0,0.0,0.0,0.0,-3.8971,-3.6872,-3.3696,0.0,0.0,0.0,0.0,0.0,0.0,0.0,-2.4109,-2.4219,-2.3923,-2.6218,-2.9597,-3.399,-4.0574,-4.3543,-4.5912,-5.057,-5.208,-5.239,-5.2114,-5.1177,-4.9756,-4.7309,-4.4544,-4.1913,-3.9617,-3.8614,-3.8558,-3.9658,-4.054,-4.1792,-4.3751,-4.38,-4.3314,-4.2439,-4.3103,-4.312,0.0,0.0,0.0,-4.4982,-4.5335,-4.5341,-4.4752,-4.3868,-4.2892,-4.2073,-4.1254,-4.0562,-3.9788,-3.917,-3.844,-3.7569,-3.6543,-3.5742,-3.5212,-3.452,-3.3902,-3.3326,-3.3326,-3.3241,-3.3058,-3.236,-3.1913,-3.1504,-3.0823,-3.051,-3.0414,-2.9877,-2.9992,-3.0174,0.0,0.0,0.0,0.0,0.0,0.0,0.0,0.0,0.0,0.0,0.0,0.0,0.0,0.0,0.0,0.0,0.0,0.0,0.0,0.0,0.0,0.0,0.0,0.0,0.0,0.0,0.0,0.0,0.0,0.0,0.0,0.0,0.0,0.0,0.0,0.0,0.0,0.0,0.0,0.0,0.0,0.0,-3.0411,-3.0336,0.0,0.0,0.0,0.0,0.0,0.0,0.0,0.0,0.0,0.0,-2.7683,-3.0136,-3.2634,-3.6096,-4.2995,-4.6224,-4.8801,-5.3833,-5.4252,-5.3377,-5.3169,-5.0896,-4.7752,-4.4131,-4.1508,-3.8725,0.0,0.0,-3.4759,-3.6198,-3.7584,-3.9444,-4.2278,-4.2164,-4.2261,0.0,0.0,0.0,0.0,0.0,0.0,-4.3767,0.0,-4.4798,-4.4221,-4.2847,-4.2073,-4.2073,-4.1184,-4.0393,-3.9788,-3.9142,-3.8215,-3.7021,-3.6402,-3.5798,-3.5254,-3.4562,-3.3944,-3.3368,-3.3326,-3.3086,-3.2704,-3.2704,-3.2417,-3.2074,-3.183,-3.133,-3.0735,-3.0483,-3.0473,-3.0446,0.0,0.0,0.0,0.0,0.0,0.0,0.0,0.0,0.0,0.0,0.0,0.0,0.0,0.0,0.0,0.0,0.0,0.0,0.0,0.0,0.0,0.0,0.0,0.0,0.0,0.0,0.0,0.0,0.0,0.0,0.0,0.0,0.0,0.0,0.0,0.0,0.0,0.0,0.0,0.0,0.0,0.0,-2.7715,0.0,0.0,0.0,0.0,0.0,0.0,0.0,0.0,0.0,0.0,-2.7349,-3.0586,-3.4727,-3.8382,-4.2127,-4.6945,-5.0645,-5.3243,-5.3729,-5.3946,-5.3445,-5.1245,-4.7692,-4.4013,-4.1231,-3.6887,-3.2739,0.0,0.0,0.0,-3.3955,-3.7015,0.0,-4.3039,-4.4188,0.0,-4.3783,0.0,-4.4464,-4.3783,-4.4658,0.0,0.0,-4.4941,-4.5112,-4.4966,-4.4129,-4.3284,-4.2511,-4.1854,-4.09,-3.9788,-3.8693,-3.799,-3.7653,-3.7049,-3.6431,-3.5812,-3.5194,-3.459,-3.3986,-3.3522,-3.3241,-3.3086,-3.2503,-3.22,-3.2042,-3.1456,-3.1449,-3.164,-3.1083,-3.151,-3.2389,0.0,0.0,0.0,0.0,0.0,0.0,0.0,0.0,0.0,0.0,0.0,0.0,0.0,0.0,0.0,0.0,0.0,0.0,0.0,0.0,0.0,0.0,0.0,0.0,0.0,0.0,0.0,0.0,0.0,0.0,0.0,0.0,0.0,0.0,0.0,0.0,0.0,0.0,0.0,0.0,0.0,0.0,0.0,0.0,0.0,0.0,0.0,0.0,0.0,0.0,0.0,-2.7797,-2.9647,-3.2313,-3.5538,-3.9582,0.0,-4.6272,-4.9661,-5.2886,-5.5032,-5.4097,-5.3563,-5.2277,-4.8624,-4.5048,-4.1034,-3.604,-3.2177,0.0,0.0,0.0,0.0,0.0,0.0,0.0,-4.2245,-4.3719,-4.4577,0.0,-4.5516,0.0,-4.5144,-4.5824,-4.6047,0.0,-4.564,-4.5492,-4.4997,-4.4447,-4.3849,-4.3076,-4.2184,-4.1067,-3.9788,-3.8538,-3.7906,-3.7892,-3.7274,-3.6655,-3.6065,-3.5714,-3.5068,-3.4139,-3.3874,-3.3423,-3.3016,-3.2359,-3.1982,-3.1836,-3.1616,-3.1529,-3.1703,-3.2179,-3.2753,-3.3199,0.0,0.0,0.0,0.0,0.0,0.0,0.0,0.0,0.0,0.0,0.0,0.0,0.0,0.0,0.0,0.0,0.0,0.0,0.0,0.0,0.0,0.0,0.0,0.0,0.0,0.0,0.0,0.0,0.0,0.0,0.0,0.0,0.0,0.0,0.0,0.0,0.0,0.0,0.0,0.0,0.0,0.0,0.0,0.0,0.0,0.0,0.0,0.0,0.0,0.0,-2.9927,-3.2942,-3.528,-3.8132,-4.127,-4.4214,-4.6712,-4.9043,-5.1385,-5.3686,-5.5168,-5.4361,-5.3011,-5.0673,-4.5754,-4.2398,-3.8099,-3.023,0.0,-2.6081,-2.3513,-2.4227,-2.6374,-2.9903,0.0,-3.6145,-4.1015,-4.2407,-4.3864,-4.6439,-4.6277,-4.6196,-4.6828,-4.6876,-4.6738,-4.6442,-4.6356,-4.5817,-4.4804,-4.4443,-4.4082,-4.363,-4.2333,-4.1151,-3.9942,-3.8689,-3.799,-3.7892,-3.7274,-3.6712,-3.6192,-3.6107,-3.5489,-3.4478,-3.4393,-3.3826,-3.301,-3.2423,-3.2085,-3.1931,-3.2031,-3.1763,-3.1625,-3.3491,-3.3859,-3.362,0.0,0.0,0.0,0.0,0.0,0.0,0.0,0.0,0.0,0.0,0.0,0.0,0.0,0.0,0.0,0.0,0.0,0.0,0.0,0.0,0.0,0.0,0.0,0.0,0.0,0.0,0.0,0.0,0.0,0.0,0.0,0.0,0.0,0.0,0.0,0.0,0.0,0.0,0.0,0.0,0.0,0.0,0.0,0.0,0.0,0.0,0.0,0.0,0.0,0.0,-3.2594,-3.6265,-3.8436,-4.1716,-4.516,-4.7015,-4.8764,-5.0489,-5.2318,-5.4002,-5.4797,-5.3066,-5.2178,-5.0066,-4.3529,-3.8261,0.0,0.0,0.0,-2.161,-2.2032,-2.3953,0.0,-3.1243,0.0,0.0,0.0,0.0,-4.4804,0.0,0.0,0.0,0.0,0.0,0.0,0.0,-4.6512,-4.5953,-4.5149,-4.4721,-4.4251,-4.363,-4.2333,-4.1385,-4.0603,-3.9385,-3.8426,-3.7892,-3.7274,-3.6936,-3.681,-3.6304,-3.5953,-3.5728,-3.5208,-3.4927,-3.464,-3.3477,-3.3173,-3.3387,-3.2309,-3.2478,-3.3414,-3.3813,-3.4346,-3.4972,0.0,0.0,0.0,0.0,0.0,0.0,0.0,0.0,0.0,0.0,0.0,0.0,0.0,0.0,0.0,0.0,0.0,0.0,0.0,0.0,0.0,0.0,0.0,0.0,0.0,0.0,0.0,0.0,0.0,0.0,0.0,0.0,0.0,0.0,0.0,0.0,0.0,0.0,0.0,0.0,0.0,0.0,0.0,0.0,0.0,0.0,0.0,0.0,0.0,0.0,-2.9786,-3.4983,-4.0128,-4.3643,-4.5945,-4.6712,-4.8639,-5.0578,-5.1086,-5.2837,-5.4007,-5.1674,-5.0424,-4.7717,-4.0087,0.0,0.0,0.0,0.0,-2.0381,-2.0834,0.0,0.0,0.0,0.0,0.0,0.0,0.0,0.0,0.0,0.0,0.0,0.0,0.0,0.0,0.0,-4.6223,-4.5672,-4.5541,-4.4949,-4.4266,-4.363,-4.2659,-4.186,-4.1241,-3.9655,-3.8707,-3.8397,-3.7442,-3.6978,-3.6978,-3.6683,-3.6374,-3.6051,-3.5756,-3.5522,-3.5124,-3.4446,-3.4325,-3.4547,-3.3868,-3.3984,-3.4594,-3.498,-3.5239,-3.5339,0.0,0.0,0.0,0.0,0.0,0.0,0.0,0.0,0.0,0.0,0.0,0.0,0.0,0.0,0.0,0.0,0.0,0.0,0.0,0.0,0.0,0.0,0.0,0.0,0.0,0.0,0.0,0.0,0.0,0.0,0.0,0.0,0.0,0.0,0.0,0.0,0.0,0.0,0.0,0.0,0.0,0.0,0.0,0.0,0.0,0.0,0.0,0.0,0.0,0.0,-2.5649,-3.1153,-3.8058,-4.2216,-4.4535,-4.4535,-4.6906,-4.959,-4.9695,-5.1582,-5.2978,-5.0549,-4.867,-4.527,-3.7098,-3.2698,0.0,0.0,-2.0206,-1.9945,-1.9984,0.0,0.0,0.0,0.0,0.0,0.0,0.0,0.0,0.0,0.0,0.0,0.0,0.0,0.0,0.0,-4.6118,-4.5477,-4.5557,-4.4949,-4.4343,-4.3864,-4.3126,-4.2423,-4.1734,-3.9971,-3.8954,-3.8636,-3.7512,-3.6978,-3.6978,-3.6978,-3.6726,-3.6262,-3.6414,-3.6208,-3.5755,-3.5659,-3.5659,-3.5699,-3.5469,-3.5487,-3.5707,-3.6302,-3.6108,-3.5644,0.0,0.0,0.0,0.0,0.0,0.0,0.0,0.0,0.0,0.0,0.0,0.0,0.0,0.0,0.0,0.0,0.0,0.0,0.0,0.0,0.0,0.0,0.0,0.0,0.0,0.0,0.0,0.0,0.0,0.0,0.0,0.0,0.0,0.0,0.0,0.0,0.0,0.0,0.0,0.0,0.0,0.0,0.0,0.0,0.0,0.0,0.0,0.0,0.0,0.0,0.0,-2.4866,-2.8467,-3.4597,-4.0449,-4.0449,0.0,0.0,-4.971,-5.1245,-5.1748,-5.027,-4.7788,-4.3726,-3.6129,0.0,0.0,-2.1468,-1.9349,-1.8726,-1.9798,0.0,0.0,0.0,0.0,0.0,0.0,0.0,0.0,0.0,0.0,0.0,0.0,0.0,0.0,-4.7341,-4.6559,-4.5677,-4.4754,-4.4648,-4.4572,-4.4496,-4.3864,-4.2936,-4.1695,-4.0358,-3.9167,-3.7976,-3.7302,-3.6978,-3.6978,-3.6978,-3.695,-3.6972,-3.7496,-3.7695,-3.7595,-3.7065,-3.7152,-3.7462,-3.6439,-3.645,-3.7041,-3.7114,-3.6799,-3.641,0.0,0.0,0.0,0.0,0.0,0.0,0.0,0.0,0.0,0.0,0.0,0.0,0.0,0.0,0.0,0.0,0.0,0.0,0.0,0.0,0.0,0.0,0.0,0.0,0.0,0.0,0.0,0.0,0.0,0.0,0.0,0.0,0.0,0.0,0.0,0.0,0.0,0.0,0.0,0.0,0.0,0.0,0.0,0.0,0.0,0.0,0.0,0.0,0.0,0.0,0.0,0.0,-2.0501,-2.4855,0.0,0.0,-3.8869,-4.3022,-4.6087,-4.8714,-5.0116,-4.857,-4.5734,-4.1493,-3.4193,0.0,0.0,-2.0694,-1.8913,-1.834,-1.8813,-1.9361,-2.0391,0.0,0.0,0.0,0.0,0.0,0.0,0.0,0.0,0.0,0.0,0.0,0.0,-4.5712,-4.619,-4.5866,-4.4633,-4.4572,-4.4572,-4.4572,-4.3942,-4.3142,-4.2249,-4.0959,-3.9911,-3.8963,-3.8036,-3.7734,-3.8037,-3.7734,-3.7734,-3.8113,-3.8337,-3.8412,-3.8472,-3.8282,-3.84,-3.8531,-3.8208,-3.8003,-3.7893,-3.7438,-3.6951,-3.6432,0.0,0.0,0.0,0.0,0.0,0.0,0.0,0.0,0.0,0.0,0.0,0.0,0.0,0.0,0.0,0.0,0.0,0.0,0.0,0.0,0.0,0.0,0.0,0.0,0.0,0.0,0.0,0.0,0.0,0.0,0.0,0.0,0.0,0.0,0.0,0.0,0.0,0.0,0.0,0.0,0.0,0.0,0.0,0.0,0.0,0.0,0.0,0.0,0.0,0.0,0.0,0.0,0.0,0.0,0.0,0.0,-3.3819,-3.8596,-4.1896,-4.51,-4.737,-4.6413,-4.3192,-3.8694,0.0,0.0,-2.4005,-2.0084,-1.8706,-1.8211,-1.8211,-1.8792,-1.9464,0.0,0.0,0.0,0.0,0.0,0.0,0.0,0.0,0.0,0.0,0.0,-4.5986,-4.5108,-4.602,-4.6003,-4.4649,-4.4572,-4.4572,-4.4572,-4.3914,-4.3272,-4.265,-4.1322,-4.0349,-3.9665,-3.8643,-3.8412,-3.8797,-3.8337,-3.8412,-3.8782,-3.9017,-3.909,-3.909,-3.925,-3.9394,-3.9379,-3.9185,-3.8691,-3.8018,-3.7375,-3.6731,-3.6133,0.0,0.0,0.0,0.0,0.0,0.0,0.0,0.0,0.0,0.0,0.0,0.0,0.0,0.0,0.0,0.0,0.0,0.0,0.0,0.0,0.0,0.0,0.0,0.0,0.0,0.0,0.0,0.0,0.0,0.0,0.0,0.0,0.0,0.0,0.0,0.0,0.0,0.0,0.0,0.0,0.0,0.0,0.0,0.0,0.0,0.0,0.0,0.0,0.0,0.0,0.0,0.0,0.0,0.0,0.0,0.0,-2.8147,-3.394,-3.7517,-4.0565,-4.3048,-4.4061,-4.0186,-3.5324,0.0,0.0,-2.2091,-1.9757,-1.8706,-1.8211,-1.8211,-1.8792,-1.9292,-1.9309,0.0,0.0,0.0,0.0,0.0,0.0,0.0,0.0,0.0,0.0,-4.7379,-4.6233,-4.6438,0.0,-4.4649,-4.4572,-4.4572,-4.4572,-4.3925,-4.3273,-4.2635,-4.1339,-4.0367,-3.9665,-3.9092,-3.8782,-3.8782,-3.8782,-3.8782,-3.8855,-3.9466,-3.9681,-3.9681,-3.9925,-3.9996,-3.9864,-3.8802,-3.8003,-3.7345,-3.6731,-3.6088,-3.5519,0.0,0.0,0.0,0.0,0.0,0.0,0.0,0.0,0.0,0.0,0.0,0.0,0.0,0.0,0.0,0.0,0.0,0.0,0.0,0.0,0.0,0.0,0.0,0.0,0.0,0.0,0.0,0.0,0.0,0.0,0.0,0.0,0.0,0.0,0.0,0.0,0.0,0.0,0.0,0.0,0.0,0.0,0.0,0.0,0.0,0.0,0.0,0.0,0.0,0.0,0.0,0.0,0.0,0.0,0.0,0.0,0.0,0.0,-3.1912,-3.4104,-3.533,-3.5327,-3.2886,-2.9619,-2.6258,0.0,-2.1315,-1.9016,-1.8345,-1.8211,-1.8211,-1.8379,-1.9206,-2.1273,-2.2039,0.0,0.0,0.0,0.0,0.0,0.0,0.0,0.0,0.0,-4.6685,-4.5622,-4.5742,-4.5526,-4.4633,-4.4572,-4.4572,-4.4572,-4.4372,-4.3743,-4.2615,-4.2187,-4.1427,-4.0254,-3.97,-3.9595,-3.995,-3.9595,-3.961,-3.995,-4.0176,-4.0246,-4.0246,-4.0066,-3.9722,-3.9267,-3.8622,-3.7734,-3.6746,-3.6552,-3.6073,-3.5504,0.0,0.0,0.0,0.0,0.0,0.0,0.0,0.0,0.0,0.0,0.0,0.0,0.0,0.0,0.0,0.0,0.0,0.0,0.0,0.0,0.0,0.0,0.0,0.0,0.0,0.0,0.0,0.0,0.0,0.0,0.0,0.0,0.0,0.0,0.0,0.0,0.0,0.0,0.0,0.0,0.0,0.0,-1.41,0.0,0.0,0.0,0.0,0.0,0.0,0.0,0.0,0.0,0.0,0.0,0.0,0.0,-1.8057,0.0,0.0,-2.8163,-2.923,-2.9634,-2.7717,0.0,0.0,0.0,0.0,-1.8086,-1.7983,-1.8211,-1.8211,-1.8435,-1.9245,-2.1101,-2.216,0.0,0.0,0.0,0.0,0.0,0.0,0.0,0.0,-4.5818,-4.637,-4.5294,-4.5433,-4.5295,-4.4618,-4.4572,-4.4572,-4.4572,-4.4095,-4.3433,-4.2617,-4.2078,-4.1386,-4.0539,-4.0451,-4.0436,-4.047,-4.0451,-4.0436,-4.0524,-4.0524,-4.0524,0.0,-3.9847,-3.9358,-3.8918,-3.8007,-3.7195,-3.6462,-3.6207,-3.5863,-3.5474,0.0,0.0,0.0,0.0,0.0,0.0,0.0,0.0,0.0,0.0,0.0,0.0,0.0,0.0,0.0,0.0,0.0,0.0,0.0,0.0,0.0,0.0,0.0,0.0,0.0,0.0,0.0,0.0,-1.7008,-1.6244,-1.4604,0.0,0.0,0.0,0.0,0.0,0.0,0.0,0.0,0.0,0.0,0.0,0.0,0.0,0.0,0.0,0.0,0.0,0.0,0.0,0.0,0.0,0.0,0.0,0.0,0.0,0.0,0.0,0.0,0.0,0.0,0.0,0.0,0.0,0.0,0.0,0.0,0.0,0.0,0.0,-1.8262,-1.8827,-1.9361,-1.9585,-2.1428,0.0,0.0,0.0,0.0,0.0,0.0,0.0,-4.134,-4.4579,-4.6381,-4.5294,-4.5463,-4.5295,-4.4541,-4.451,-4.451,-4.451,-4.3264,-4.2602,-4.2602,-4.1324,-4.0647,-4.0616,-4.1324,-4.1294,-4.0632,-4.1294,-4.1217,-4.0524,-4.0524,-4.0524,-4.0409,-3.9505,-3.8979,-3.8766,-3.7151,-3.6492,-3.6342,-3.5729,-3.5474,-3.534,0.0,0.0,0.0,0.0,0.0,0.0,0.0,0.0,0.0,0.0,0.0,0.0,0.0,0.0,0.0,0.0,0.0,0.0,0.0,0.0,0.0,0.0,0.0,0.0,0.0,0.0,0.0,-1.7034,-1.7071,-1.6583,-1.5588,-1.623,0.0,0.0,0.0,0.0,0.0,0.0,0.0,0.0,0.0,0.0,0.0,0.0,0.0,0.0,-1.2745,-1.2496,0.0,0.0,0.0,0.0,0.0,0.0,0.0,0.0,-1.4325,-1.45,-1.5501,0.0,-1.729,-1.7708,-1.7159,0.0,0.0,0.0,0.0,0.0,0.0,0.0,0.0,0.0,0.0,-2.2358,0.0,0.0,0.0,0.0,0.0,0.0,0.0,0.0,-4.4009,-4.541,-4.6207,-4.5703,-4.5462,-4.4887,-4.3923,-4.3818,-4.3818,-4.3818,-4.3033,-4.2602,-4.2602,-4.2279,-4.1863,-4.1355,-4.2048,-4.2017,-4.1355,-4.1524,-4.1217,-4.0524,-4.0524,-4.0524,-4.0455,-3.9954,-3.9146,-3.8174,-3.7451,-3.6596,-3.5714,-3.5564,-3.5175,-3.4696,0.0,0.0,0.0,0.0,0.0,0.0,0.0,0.0,0.0,0.0,0.0,0.0,0.0,0.0,0.0,0.0,0.0,0.0,0.0,0.0,0.0,0.0,0.0,0.0,0.0,0.0,0.0,0.0,0.0,-1.6687,0.0,0.0,0.0,0.0,0.0,0.0,0.0,0.0,0.0,0.0,-1.4362,0.0,0.0,0.0,0.0,0.0,-1.2745,-1.2371,0.0,-1.3119,-1.4082,-1.4756,0.0,0.0,0.0,0.0,-1.404,-1.3987,-1.3918,-1.4648,-1.5401,-1.5367,-1.5332,-1.5314,0.0,0.0,0.0,0.0,0.0,0.0,0.0,0.0,0.0,0.0,0.0,0.0,0.0,0.0,0.0,0.0,0.0,-4.5872,0.0,-4.6078,-4.623,-4.6032,-4.5372,-4.4679,-4.3882,-4.3851,-4.3778,-4.3571,-4.3233,-4.3048,-4.3048,-4.2756,-4.2417,-4.2063,-4.2432,-4.2248,-4.1601,-4.1601,-4.1217,-4.0524,-4.0524,-4.0355,-3.9979,-3.9329,-3.8447,-3.7476,-3.6775,-3.6118,-3.5504,-3.5504,-3.5265,-3.4906,0.0,0.0,0.0,0.0,0.0,0.0,0.0,0.0,0.0,0.0,0.0,0.0,0.0,0.0,0.0,0.0,0.0,0.0,0.0,0.0,0.0,0.0,0.0,0.0,0.0,0.0,0.0,0.0,0.0,0.0,0.0,0.0,0.0,0.0,0.0,0.0,0.0,0.0,0.0,0.0,-1.4489,0.0,0.0,0.0,0.0,0.0,0.0,0.0,0.0,-1.3002,-1.3792,-1.4438,-1.4438,0.0,0.0,0.0,0.0,0.0,-1.4088,-1.5136,-1.6149,-1.5815,-1.5917,-1.6055,0.0,0.0,0.0,0.0,0.0,0.0,0.0,0.0,0.0,0.0,0.0,0.0,0.0,0.0,0.0,0.0,0.0,0.0,-4.6309,-4.6196,-4.6051,-4.5965,-4.5253,-4.4599,-4.4147,-4.4153,-4.3998,-4.3719,-4.3646,-4.3571,-4.3571,-4.2925,-4.2602,-4.2602,-4.2602,-4.2248,-4.1601,-4.1601,-4.1217,-4.0524,-4.0416,-3.9979,-3.9395,-3.8385,-3.7582,-3.6849,-3.5994,-3.5594,-3.5504,-3.5504,-3.5444,-3.5235,0.0,0.0,0.0,0.0,0.0,0.0,0.0,0.0,0.0,0.0,0.0,0.0,0.0,0.0,0.0,0.0,0.0,0.0,0.0,0.0,0.0,0.0,0.0,0.0,0.0,0.0,0.0,0.0,0.0,0.0,-1.7968,-1.9379,-1.8933,0.0,0.0,0.0,-1.4683,-1.4581,-1.4512,-1.4489,-1.4428,0.0,0.0,0.0,0.0,0.0,0.0,0.0,0.0,-1.4752,-1.5472,-1.6058,-1.6058,0.0,0.0,0.0,0.0,0.0,-1.4828,-1.6075,-1.6818,-1.5349,-1.5991,-1.6808,0.0,0.0,0.0,0.0,0.0,0.0,0.0,0.0,0.0,0.0,0.0,0.0,0.0,0.0,0.0,0.0,0.0,-4.5273,-4.4302,-4.4689,-4.4895,-4.4541,-4.4936,-4.4814,-4.3794,-4.4046,-4.4143,-4.4071,-4.3793,-4.3571,-4.3571,-4.2925,-4.2602,-4.2602,-4.2602,-4.2248,-4.1601,-4.1601,-4.1217,-4.0493,-3.9924,-3.9548,-3.9275,-3.8348,-3.7516,-3.6748,-3.6424,-3.5998,-3.5504,-3.5504,-3.513,-3.4457,0.0,0.0,0.0,0.0,0.0,0.0,0.0,0.0,0.0,0.0,0.0,0.0,0.0,0.0,0.0,0.0,0.0,0.0,0.0,0.0,0.0,0.0,0.0,0.0,0.0,0.0,0.0,0.0,0.0,-1.9045,-1.8321,-1.8636,-1.7968,-1.6409,0.0,0.0,-1.4701,-1.4632,-1.4622,-1.4611,0.0,0.0,0.0,0.0,0.0,0.0,0.0,0.0,0.0,0.0,-1.5648,-1.5735,-1.5379,0.0,0.0,0.0,0.0,0.0,-1.443,-1.5617,-1.6765,-1.6666,-1.7223,-1.7698,0.0,0.0,0.0,0.0,0.0,0.0,0.0,0.0,0.0,0.0,0.0,0.0,0.0,0.0,0.0,0.0,0.0,-4.4577,-4.4318,-4.5289,-4.5691,-4.5085,-4.5359,-4.5271,-4.4607,-4.4319,-4.4008,-4.3582,-4.3454,-4.3236,-4.3048,-4.2386,-4.2248,-4.2602,-4.2232,-4.1909,-4.1586,-4.1201,-4.0647,-3.9955,-3.9647,-3.9041,-3.8284,-3.7699,-3.7036,-3.6284,-3.6069,-3.5774,-3.5504,-3.5504,-3.5295,-3.4891,0.0,0.0,0.0,0.0,0.0,0.0,0.0,0.0,0.0,0.0,0.0,0.0,0.0,0.0,0.0,0.0,0.0,0.0,0.0,0.0,0.0,0.0,0.0,0.0,0.0,0.0,0.0,-1.8302,-1.8692,-1.8785,-1.8581,-1.7578,-1.6762,0.0,0.0,0.0,-1.4961,-1.4775,-1.4701,-1.4701,0.0,0.0,0.0,0.0,0.0,0.0,0.0,0.0,0.0,0.0,0.0,0.0,0.0,0.0,0.0,-1.3369,-1.3619,-1.4122,-1.4203,-1.5123,-1.6289,-1.7282,0.0,0.0,0.0,0.0,0.0,0.0,0.0,0.0,0.0,0.0,0.0,0.0,0.0,0.0,0.0,-4.3056,-4.3088,-4.4123,-4.4348,-4.4545,-4.4952,-4.568,-4.584,-4.5111,-4.5225,-4.5107,-4.4693,-4.4349,-4.3881,-4.3255,-4.3185,-4.2838,-4.2371,-4.1694,-4.1694,-4.2371,-4.1678,-4.134,-4.1324,-4.0616,-4.0016,-3.9508,-3.9185,-3.8396,-3.7413,-3.6938,-3.6429,-3.591,-3.5619,-3.5504,-3.5504,-3.5504,-3.54,-3.5175,0.0,0.0,0.0,0.0,0.0,0.0,0.0,0.0,0.0,0.0,0.0,0.0,0.0,0.0,0.0,0.0,0.0,0.0,0.0,0.0,0.0,0.0,0.0,0.0,0.0,-1.9193,-1.9175,-1.8302,-1.9861,-2.0233,-1.9472,-1.7857,-1.7077,-1.6984,0.0,0.0,-1.5759,-1.5017,-1.4701,-1.4701,-1.4701,0.0,0.0,0.0,0.0,0.0,0.0,0.0,0.0,0.0,0.0,0.0,0.0,0.0,-1.4162,-1.4051,-1.4046,-1.426,-1.4991,-1.5246,-1.5307,-1.5478,0.0,0.0,0.0,0.0,0.0,0.0,0.0,0.0,0.0,0.0,0.0,0.0,0.0,0.0,-4.4732,0.0,-4.7725,-4.5303,-4.5831,-4.6141,-4.5485,-4.4528,-4.3638,-4.2925,-4.3476,-4.3573,-4.283,-4.3666,-4.4018,-4.3674,-4.3325,-4.2621,-4.1678,-4.097,-4.097,-4.1663,-4.094,-4.0601,-4.0586,-3.9893,-3.957,-3.9447,-3.8185,-3.7505,-3.7159,-3.642,-3.594,-3.5703,-3.5554,-3.5504,-3.5504,-3.5504,-3.51,-3.4457,0.0,0.0,0.0,0.0,0.0,0.0,0.0,0.0,0.0,0.0,0.0,0.0,0.0,0.0,0.0,0.0,0.0,0.0,0.0,0.0,0.0,0.0,0.0,-1.9202,-1.8379,-1.8644,-1.8376,-1.756,-1.8191,-1.8339,-1.8024,-1.7393,0.0,0.0,0.0,0.0,0.0,-1.5574,-1.5165,-1.4701,-1.4701,-1.4998,0.0,0.0,0.0,0.0,0.0,0.0,0.0,0.0,-1.6857,-1.5877,0.0,0.0,-1.4114,-1.2999,-1.3387,-1.4199,-1.4442,-1.5843,-1.747,-1.836,0.0,0.0,0.0,0.0,0.0,0.0,0.0,0.0,0.0,0.0,0.0,0.0,0.0,0.0,-4.4456,-4.5572,-4.5858,-4.4328,-4.4624,-4.466,-4.3929,-4.3986,-4.3984,-4.3722,-4.4155,-4.4059,-4.3346,-4.3686,-4.344,-4.2461,-4.2244,-4.1575,-4.0309,-4.0031,-3.9831,-3.9677,-3.94,-3.9277,-3.9262,-3.9,-3.8662,-3.8231,-3.7723,-3.7182,-3.6562,-3.6128,-3.5894,-3.5688,-3.5554,-3.5504,-3.5504,-3.5504,-3.534,-3.5026,0.0,0.0,0.0,0.0,0.0,0.0,0.0,0.0,0.0,0.0,0.0,0.0,0.0,0.0,0.0,0.0,0.0,0.0,0.0,0.0,0.0,0.0,0.0,-1.9215,-1.8416,-1.8366,-1.7932,-1.7132,-1.7108,-1.7226,-1.7467,0.0,0.0,0.0,0.0,0.0,0.0,0.0,-1.5202,-1.472,-1.498,-1.5407,0.0,0.0,0.0,0.0,0.0,0.0,0.0,0.0,0.0,0.0,0.0,0.0,0.0,0.0,-1.3329,-1.418,-1.4068,-1.6056,-1.842,0.0,0.0,0.0,0.0,0.0,0.0,0.0,0.0,0.0,0.0,0.0,0.0,0.0,-4.1905,-4.4061,-4.4578,-4.5209,-4.5302,-4.4312,-4.4604,-4.4623,-4.3883,-4.3903,-4.3904,-4.3751,-4.3385,-4.2796,-4.2083,-4.2245,-4.1723,-4.0293,-4.0704,-4.0269,-3.8893,-3.8877,-3.8646,-3.8185,-3.7984,-3.8092,-3.8492,-3.8292,-3.7938,-3.7492,-3.7277,-3.6844,-3.6274,-3.61,-3.5846,-3.5638,-3.5314,-3.531,-3.5504,-3.5504,-3.5504,-3.54,0.0,0.0,0.0,0.0,0.0,0.0,0.0,0.0,0.0,0.0,0.0,0.0,0.0,0.0,0.0,0.0,0.0,0.0,0.0,0.0,0.0,0.0,0.0,-1.9234,-1.8416,-1.841,-1.8017,-1.7206,-1.7144,-1.7504,-1.8284,0.0,0.0,0.0,0.0,0.0,0.0,0.0,-1.4701,-1.4775,-1.5574,-1.5908,-1.6093,0.0,0.0,0.0,0.0,0.0,0.0,0.0,-1.6539,0.0,0.0,0.0,0.0,0.0,-1.4219,-1.4211,-1.4159,-1.5818,0.0,0.0,0.0,0.0,0.0,0.0,0.0,0.0,0.0,0.0,0.0,0.0,0.0,-3.8629,-4.2423,-4.5389,-4.5406,-4.6734,-4.7131,-4.5579,-4.6225,-4.6578,-4.579,-4.4223,-4.2977,-4.2301,-4.0531,-3.9153,-3.8424,-3.9072,-3.8814,-3.7417,-3.876,-3.8842,-3.7492,-3.7477,-3.7477,-3.7461,-3.6799,-3.7184,-3.8477,-3.78,-3.7492,-3.7446,-3.6784,-3.6492,-3.6492,-3.6163,-3.5782,-3.5415,-3.4741,-3.4891,-3.5489,-3.5489,-3.5489,-3.54,0.0,0.0,0.0,0.0,0.0,0.0,0.0,0.0,0.0,0.0,0.0,0.0,0.0,0.0,0.0,0.0,0.0,0.0,0.0,0.0,0.0,0.0,0.0,0.0,0.0,0.0,-1.8191,-1.7339,-1.6709,-1.713,0.0,0.0,0.0,-1.7981,0.0,0.0,0.0,0.0,0.0,-1.5555,-1.5796,-1.6576,-1.7634,0.0,0.0,0.0,0.0,0.0,0.0,0.0,0.0,0.0,0.0,0.0,0.0,-1.3493,-1.4658,-1.602,-1.6351,-1.9266,0.0,0.0,0.0,0.0,0.0,0.0,0.0,0.0,0.0,0.0,0.0,0.0,0.0,-4.0888,-4.213,-4.3388,-4.4458,-4.5475,-4.5544,-4.4027,-4.3632,-4.3151,-4.2413,-4.0914,-4.0067,-4.0367,-3.9362,-3.8391,-3.7679,-3.8327,-3.8091,-3.6738,-3.7575,-3.7416,-3.6091,-3.6076,-3.5845,-3.5368,-3.5645,-3.6245,-3.7092,-3.6892,-3.6799,-3.6784,-3.6584,-3.6414,-3.6243,-3.5442,-3.4676,-3.4068,-3.3858,-3.3918,-3.4143,-3.4607,-3.4786,-3.4681,0.0,0.0,0.0,0.0,0.0,0.0,0.0,0.0,0.0,0.0,0.0,0.0,0.0,0.0,0.0,0.0,0.0,0.0,0.0,0.0,0.0,0.0,0.0,0.0,0.0,-1.9163,-1.8694,0.0,0.0,0.0,0.0,0.0,0.0,-1.7907,0.0,0.0,0.0,0.0,0.0,-1.5963,-1.6594,-1.743,-1.8339,0.0,0.0,0.0,0.0,0.0,0.0,0.0,0.0,0.0,0.0,0.0,0.0,-1.3629,-1.5332,-1.7225,-1.7434,0.0,0.0,0.0,0.0,0.0,0.0,0.0,0.0,0.0,0.0,0.0,0.0,0.0,0.0,-4.1819,-4.225,-4.2785,-4.3749,-4.3958,-4.3716,-4.2802,-4.2026,-4.1371,-4.0922,-3.9574,-3.8908,-3.9345,-3.814,-3.7118,-3.6678,-3.6978,-3.6571,-3.5371,-3.6163,-3.6048,-3.4911,-3.4997,-3.4876,-3.4475,-3.4891,-3.5291,-3.5691,-3.5968,-3.5953,-3.5691,-3.5691,-3.5554,-3.5247,-3.4379,-3.3788,-3.3469,-3.3215,-3.326,-3.3544,-3.3933,-3.4083,-3.4023,0.0,0.0,0.0,0.0,0.0,0.0,0.0,0.0,0.0,0.0,0.0,0.0,0.0,0.0,0.0,0.0,0.0,0.0,0.0,0.0,0.0,0.0,0.0,0.0,0.0,0.0,0.0,0.0,0.0,0.0,0.0,0.0,-1.7387,-1.7233,0.0,-1.481,0.0,0.0,-1.5993,-1.6253,-1.7708,-1.8358,-1.8506,-1.9305,0.0,0.0,0.0,0.0,0.0,0.0,0.0,0.0,0.0,0.0,-1.3624,-1.4238,-1.6001,-1.7801,0.0,0.0,0.0,0.0,0.0,0.0,0.0,0.0,0.0,0.0,0.0,0.0,0.0,-4.0698,-4.0284,-4.175,-4.2475,-4.2938,-4.3007,-4.2337,-4.1854,-4.1785,-4.1129,-4.0647,-4.0578,-3.9525,-3.8778,-3.8778,-3.6819,-3.563,-3.563,-3.5261,-3.4678,-3.3726,-3.4689,-3.4778,-3.3802,-3.414,-3.4275,-3.4275,-3.4337,-3.4337,-3.4306,-3.5045,-3.506,-3.4475,-3.4475,-3.4252,-3.3908,-3.3241,-3.3125,-3.326,-3.2662,-3.2796,-3.332,-3.338,-3.341,-3.341,0.0,0.0,0.0,0.0,0.0,0.0,0.0,0.0,0.0,0.0,0.0,0.0,0.0,0.0,0.0,0.0,0.0,0.0,0.0,0.0,0.0,0.0,0.0,0.0,0.0,0.0,0.0,0.0,0.0,0.0,0.0,0.0,0.0,-1.7387,0.0,-1.517,0.0,0.0,-1.6648,-1.7888,-1.8179,-1.8711,-1.9342,-1.9527,-1.9602,0.0,0.0,0.0,0.0,0.0,0.0,0.0,-1.2919,-1.3346,-1.3633,-1.4298,-1.5665,-1.7457,0.0,0.0,0.0,0.0,0.0,0.0,0.0,0.0,0.0,0.0,0.0,0.0,0.0,-4.0422,-4.0922,-4.1836,-4.1112,-4.0664,-4.1285,-4.1233,-4.0888,-4.0267,-3.9526,-3.8853,-3.8267,-3.7182,-3.6497,-3.6497,-3.5518,-3.4922,-3.4922,-3.4528,-3.4161,-3.371,-3.3736,-3.3527,-3.3115,-3.2949,-3.2844,-3.2844,-3.3383,-3.3352,-3.2875,-3.4137,-3.4614,-3.4475,-3.4475,-3.4035,-3.334,-3.3102,-3.2654,-3.2133,-3.1809,-3.1824,-3.2018,-3.2542,-3.2721,-3.2721,0.0,0.0,0.0,0.0,0.0,0.0,0.0,0.0,0.0,0.0,0.0,0.0,0.0,0.0,0.0,0.0,0.0,0.0,0.0,0.0,0.0,0.0,0.0,0.0,0.0,0.0,0.0,0.0,0.0,0.0,0.0,0.0,0.0,-1.7486,0.0,-1.5687,0.0,0.0,-1.7655,-1.8446,-1.8416,-1.8659,-1.9037,-1.9024,-1.9016,-1.8859,-1.7987,0.0,0.0,0.0,0.0,0.0,0.0,0.0,-1.4134,-1.4412,-1.585,-1.7933,0.0,0.0,0.0,0.0,0.0,0.0,0.0,0.0,0.0,0.0,0.0,0.0,-3.9319,-3.9784,-4.0336,-4.0353,-3.9991,-3.9715,-3.9767,-3.9474,-3.9112,-3.8681,-3.7956,-3.7335,-3.6956,-3.6371,-3.6045,-3.6045,-3.5543,-3.5241,-3.5241,-3.4675,-3.43,-3.4201,-3.3745,-3.3346,-3.3096,-3.2757,-3.2578,-3.2398,-3.2752,-3.2736,-3.2413,-3.3152,-3.3475,-3.3475,-3.3475,-3.3218,-3.271,-3.257,-3.2258,-3.1784,-3.1597,-3.1482,-3.1511,-3.1913,-3.2048,-3.2048,0.0,0.0,0.0,0.0,0.0,0.0,0.0,0.0,0.0,0.0,0.0,0.0,0.0,0.0,0.0,0.0,0.0,0.0,0.0,0.0,0.0,0.0,0.0,0.0,0.0,0.0,0.0,0.0,0.0,0.0,0.0,0.0,0.0,-1.7374,0.0,0.0,0.0,0.0,0.0,-1.8723,-1.8533,-1.8429,-1.8385,-1.8379,-1.8248,-1.8098,-1.8098,-1.7485,-1.6483,-1.5147,0.0,0.0,0.0,0.0,-1.4672,-1.4581,-1.5919,-1.795,0.0,0.0,0.0,0.0,0.0,0.0,0.0,0.0,0.0,0.0,0.0,-3.8594,-3.8594,-3.8991,-3.9112,-3.8491,-3.8698,-3.8698,-3.8094,-3.737,-3.6887,-3.6887,-3.6439,-3.6111,-3.6111,-3.6232,-3.6249,-3.6111,-3.5916,-3.5664,-3.5409,-3.4851,-3.4493,-3.451,-3.3856,-3.338,-3.3119,-3.287,-3.247,-3.2044,-3.2044,-3.2044,-3.2044,-3.2044,-3.2182,-3.2398,-3.2398,-3.2342,-3.2247,-3.2094,-3.194,-3.1841,-3.1655,-3.1539,-3.1539,-3.1539,-3.1482,-3.1482,0.0,0.0,0.0,0.0,0.0,0.0,0.0,0.0,0.0,0.0,0.0,0.0,0.0,0.0,0.0,0.0,0.0,0.0,-1.9695,0.0,0.0,-2.0088,0.0,0.0,0.0,0.0,0.0,0.0,0.0,0.0,0.0,0.0,0.0,0.0,0.0,0.0,0.0,0.0,0.0,-1.9624,-1.8696,-1.8315,-1.8315,-1.8315,-1.7857,-1.7263,-1.7263,-1.6297,-1.498,-1.4775,-1.4237,0.0,0.0,0.0,-1.4701,-1.4672,-1.4822,0.0,0.0,0.0,0.0,0.0,0.0,0.0,0.0,0.0,0.0,0.0,-3.6766,-3.8594,-3.8594,-3.8146,-3.7749,-3.7646,-3.6594,-3.5766,-3.5663,-3.5007,-3.4542,-3.4542,-3.5007,-3.5335,-3.5335,-3.5921,-3.6042,-3.5387,-3.5643,-3.5205,-3.3896,-3.3784,-3.3736,-3.3672,-3.3064,-3.2647,-3.2459,-3.2134,-3.1523,-3.0689,-3.0689,-3.0689,-3.0689,-3.0689,-3.1305,-3.2398,-3.2398,-3.2398,-3.2342,-3.2247,-3.2135,-3.215,-3.1826,-3.1727,-3.1727,-3.1539,-3.1482,-3.1482,0.0,0.0,0.0,0.0,0.0,0.0,0.0,0.0,0.0,0.0,0.0,0.0,0.0,0.0,0.0,-1.9757,-1.98,-1.9843,-1.9914,-1.9984,-2.0077,-2.0208,-2.0246,0.0,0.0,0.0,0.0,0.0,0.0,0.0,0.0,-1.8664,-1.8293,0.0,0.0,0.0,0.0,0.0,0.0,0.0,0.0,-1.8189,-1.8426,-1.7449,-1.7135,-1.7143,-1.6611,-1.5963,-1.5295,-1.485,-1.446,-1.4219,-1.459,0.0,0.0,0.0,0.0,0.0,0.0,0.0,0.0,0.0,0.0,0.0,0.0,0.0,0.0,0.0,-3.4197,-3.5542,-3.599,-3.5801,-3.5576,-3.5576,-3.5007,-3.4576,-3.4576,-3.4283,-3.4093,-3.4093,-3.4749,-3.5197,-3.5197,-3.549,-3.5542,-3.5214,-3.4988,-3.4562,-3.3877,-3.3446,-3.3262,-3.3217,-3.2606,-3.2062,-3.1681,-3.1514,-3.1119,-3.0428,-3.0428,-3.0428,-3.0428,-3.0428,-3.0936,-3.1828,-3.1828,-3.2044,-3.2398,-3.2247,-3.2191,-3.2191,-3.1996,-3.1841,-3.1799,-3.1727,-3.1597,-3.1482,0.0,0.0,0.0,0.0,0.0,0.0,0.0,0.0,0.0,0.0,0.0,0.0,0.0,0.0,0.0,0.0,-1.9907,-1.9992,-2.0145,-2.0153,-2.0192,-2.0328,-2.0328,-2.0354,0.0,0.0,0.0,0.0,0.0,0.0,-1.8142,-1.88,-1.8956,0.0,-1.8706,0.0,0.0,0.0,0.0,0.0,0.0,0.0,0.0,0.0,-1.6999,-1.7213,-1.6522,-1.6109,-1.5778,-1.4961,-1.4701,-1.4701,-1.4701,-1.4701,0.0,0.0,0.0,0.0,0.0,0.0,0.0,0.0,0.0,0.0,0.0,0.0,0.0,0.0,-3.1645,-3.2214,-3.2817,-3.3559,-3.4093,-3.4093,-3.3921,-3.3783,-3.3783,-3.3455,-3.3231,-3.3231,-3.3714,-3.4059,-3.4059,-3.4214,-3.4249,-3.4059,-3.3714,-3.3335,-3.2938,-3.253,-3.2286,-3.2286,-3.172,-3.1108,-3.0593,-3.0243,-2.9875,-2.9531,-2.9751,-2.9878,-2.9977,-3.0149,-3.0585,-3.1239,-3.1334,-3.1674,-3.2151,-3.2226,-3.2247,-3.2247,-3.2094,-3.2094,-3.2094,-3.2053,-3.1966,-3.1992,0.0,0.0,0.0,0.0,0.0,0.0,0.0,0.0,0.0,0.0,0.0,0.0,0.0,-1.9738,-1.9763,-1.9892,-1.9962,-2.0086,-2.0269,-2.0283,-2.0328,-2.0399,-2.0399,0.0,-2.0399,0.0,0.0,0.0,0.0,0.0,-1.9032,-1.909,-1.8664,-1.7866,-1.7866,-1.7866,-1.7918,0.0,0.0,0.0,0.0,0.0,0.0,0.0,0.0,0.0,0.0,0.0,-1.5778,-1.4961,-1.4701,-1.4701,-1.4701,-1.4701,-1.4701,0.0,0.0,0.0,0.0,0.0,0.0,0.0,0.0,0.0,0.0,0.0,0.0,0.0,-2.9661,-2.9696,-2.973,-3.2127,-3.4093,-3.4093,-3.3455,-3.2955,-3.2955,-3.1748,-3.0869,-3.0869,-3.0903,-3.092,-3.092,-3.1558,-3.1679,-3.0972,-3.1541,-3.1282,-2.9834,-3.0133,-3.034,-3.0268,-2.9906,-2.9452,-2.8955,-2.7573,-2.7027,-2.7186,-2.7905,-2.8427,-2.8818,-2.9512,-3.0206,-3.0856,-3.1212,-3.1413,-3.149,-3.2136,-3.2398,-3.2398,-3.2247,-3.2492,-3.2895,-3.2641,-3.2895,-3.3287,0.0,0.0,0.0,0.0,0.0,0.0,0.0,0.0,0.0,0.0,0.0,0.0,0.0,-1.9884,-1.9955,-2.0079,-1.9676,-1.9682,-2.0315,-1.9832,-1.9799,-2.036,-2.0399,-2.0399,-2.0399,0.0,0.0,0.0,0.0,-1.8858,-1.7523,-1.8606,-1.8626,-1.7813,-1.8374,-1.8626,-1.8697,-1.9516,0.0,0.0,0.0,0.0,0.0,0.0,0.0,0.0,0.0,0.0,0.0,-1.7783,-1.7133,-1.6242,-1.6242,-1.5536,-1.4701,0.0,0.0,0.0,0.0,0.0,0.0,0.0,0.0,0.0,0.0,0.0,0.0,-2.5695,-2.704,-2.823,-2.8713,-3.0075,-3.1145,-3.1145,-3.092,-3.0731,-3.0731,-3.0265,-2.992,-2.992,-3.0386,-3.0696,-3.0696,-3.0938,-3.0972,-3.0713,-3.0472,-3.0075,-2.9541,-2.9467,-2.9423,-2.9406,-2.9127,-2.8743,-2.8347,-2.7695,-2.7358,-2.74,-2.7656,-2.8078,-2.8725,-2.8984,-2.9502,-3.0186,-3.0783,-3.1244,-3.172,-3.2403,-3.2739,-3.2787,-3.3196,-3.3407,-3.3495,-3.3391,-3.3443,-3.3547,0.0,0.0,0.0,0.0,0.0,0.0,0.0,0.0,0.0,0.0,0.0,0.0,0.0,0.0,-2.0089,-2.0214,-1.9812,-1.978,-2.036,-1.9857,-1.978,-2.036,-2.0399,-2.0399,-2.0399,-2.0109,0.0,0.0,0.0,0.0,0.0,0.0,-1.8355,-1.7833,-1.8703,0.0,0.0,0.0,0.0,-1.9869,0.0,0.0,-2.0268,0.0,0.0,0.0,0.0,0.0,0.0,0.0,-1.8488,-1.7096,0.0,0.0,0.0,0.0,0.0,0.0,0.0,0.0,0.0,0.0,0.0,0.0,0.0,0.0,0.0,-2.3281,-2.5092,-2.6678,-2.7178,-2.7868,-2.861,-2.9386,-2.9506,-2.9506,-2.9506,-2.9299,-2.9127,-2.9127,-2.9386,-2.9558,-2.9558,-2.9558,-2.9558,-2.9558,-2.9058,-2.8765,-2.8765,-2.8545,-2.8425,-2.8425,-2.8144,-2.7855,-2.7519,-2.7273,-2.7101,-2.7118,-2.7362,-2.78,-2.8434,-2.8927,-2.942,-2.9929,-3.0635,-3.1136,-3.153,-3.2224,-3.2692,-3.2951,-3.3436,-3.3859,-3.4153,-3.4119,-3.4006,-3.3828,0.0,0.0,0.0,0.0,0.0,0.0,0.0,0.0,0.0,0.0,0.0,0.0,0.0,0.0,0.0,-2.0296,-2.0334,-2.036,-2.0399,-2.0379,-2.036,-2.0399,-2.0379,-2.036,-2.0399,-1.9515,0.0,0.0,0.0,0.0,0.0,0.0,-1.7813,0.0,-1.8761,-1.9148,-1.9148,0.0,-1.9128,-1.9186,0.0,-2.0418,-2.0592,0.0,0.0,0.0,-2.2505,-2.2322,0.0,-2.0284,0.0,0.0,0.0,0.0,0.0,0.0,0.0,0.0,0.0,0.0,0.0,0.0,0.0,0.0,0.0,0.0,-2.1742,-2.2505,-2.3867,-2.4919,-2.4988,-2.5592,-2.6799,-2.9023,-2.942,-2.9437,-2.9437,-2.8799,-2.8334,-2.8368,-2.7713,-2.7247,-2.7247,-2.7282,-2.7282,-2.7264,-2.7282,-2.7299,-2.7299,-2.7299,-2.7299,-2.7299,-2.6973,-2.6691,-2.6418,-2.6156,-2.6068,-2.6139,-2.6869,-2.7417,-2.784,-2.9381,-3.0091,-3.0142,-3.0886,-3.1075,-3.0878,-3.1544,-3.2239,-3.2886,-3.2919,-3.3695,-3.4767,-3.4673,-3.4492,-3.428,0.0,0.0,0.0,0.0,0.0,0.0,0.0,0.0,0.0,0.0,0.0,0.0,0.0,0.0,-2.0289,-2.0353,-1.9812,-1.9722,-2.036,-1.9799,-1.9741,-2.036,-1.9799,-1.9741,-2.0379,-1.8935,0.0,0.0,0.0,0.0,0.0,0.0,0.0,0.0,-1.9645,-2.0031,-2.0031,-2.0031,0.0,0.0,-2.0734,-2.0966,0.0,0.0,0.0,0.0,0.0,-2.3245,-2.3168,0.0,-2.125,-1.8488,0.0,0.0,0.0,0.0,0.0,0.0,-1.464,0.0,0.0,0.0,0.0,0.0,0.0,0.0,0.0,-2.1322,-2.2246,-2.3039,-2.4695,-2.5178,-2.5523,-2.6143,-2.7178,-2.7902,-2.7902,-2.723,-2.6954,-2.754,-2.6902,-2.6437,-2.6437,-2.6954,-2.7057,0.0,-2.6971,-2.7299,-2.7299,-2.7299,-2.7299,-2.7299,-2.7218,-2.7087,-2.6923,-2.6775,-2.6725,-2.6691,-2.6809,-2.7179,-2.7823,-2.8839,-2.96,-3.0142,-3.0886,-3.1133,-3.1165,-3.1884,-3.2285,-3.2536,-3.3071,-3.3466,-3.3782,-3.3755,-3.3708,-3.3736,0.0,0.0,0.0,0.0,0.0,0.0,0.0,0.0,0.0,0.0,0.0,0.0,0.0,0.0,-1.9265,-1.9316,-1.8858,-1.878,-1.9283,-1.8838,-1.878,-1.9283,-1.8838,-1.88,-1.9302,-1.7987,-1.7291,0.0,0.0,0.0,0.0,0.0,0.0,0.0,0.0,0.0,0.0,0.0,0.0,0.0,-2.0888,0.0,0.0,-2.3288,-2.3884,0.0,0.0,0.0,-2.5009,-2.4703,-2.2818,0.0,0.0,0.0,0.0,0.0,0.0,0.0,0.0,0.0,0.0,0.0,0.0,0.0,-1.5084,-1.5643,-1.6827,0.0,-2.0194,-2.078,-2.2729,-2.2832,-2.2832,-2.3488,-2.4591,-2.5609,-2.6247,-2.5937,-2.5833,-2.6281,-2.5937,-2.5643,-2.5643,-2.6074,-2.6143,-2.5678,-2.6368,-2.6954,-2.7282,-2.7299,-2.7299,-2.7299,-2.7299,-2.7233,-2.7103,-2.7055,-2.699,-2.6893,-2.6825,-2.6979,-2.7385,-2.8146,-2.8738,-2.9211,-3.0277,-3.0734,-3.0801,-3.1529,-3.2002,-3.2324,-3.2763,-3.3136,-3.3406,-3.3406,-3.322,-3.3,0.0,0.0,0.0,0.0,0.0,0.0,0.0,0.0,0.0,0.0,0.0,0.0,0.0,0.0,0.0,0.0,-1.7987,-1.8045,-1.7949,-1.7949,-1.7987,-1.8084,-1.7891,-1.7852,-1.7949,-1.7064,-1.6638,-1.6735,0.0,0.0,0.0,0.0,0.0,0.0,0.0,0.0,0.0,0.0,0.0,-2.1649,-2.0946,-2.1623,0.0,0.0,-2.5495,-2.5592,-2.7048,-2.7338,-2.6733,-2.4895,-2.3269,0.0,0.0,0.0,0.0,0.0,-1.4751,0.0,0.0,0.0,0.0,0.0,0.0,0.0,-1.431,-1.5161,-1.6394,-1.7907,-1.8073,-1.8396,-1.9878,-1.9619,-1.9619,-2.1004,-2.1918,-2.3057,-2.4764,-2.4919,-2.4902,-2.4988,-2.4919,-2.4867,-2.4867,-2.4954,-2.4971,-2.4885,-2.5643,-2.6419,-2.7126,-2.7247,-2.7299,-2.7299,-2.7299,-2.7233,-2.7135,-2.7103,-2.7038,-2.6909,-2.6926,-2.6842,-2.6759,-2.7486,-2.7789,-2.7874,-2.9347,-2.9989,-3.004,-3.0768,-3.1495,-3.2195,-3.2195,-3.2577,-3.3169,-3.3169,-3.273,-3.2171,-1.7605,0.0,0.0,0.0,0.0,0.0,0.0,0.0,0.0,0.0,0.0,0.0,0.0,0.0,0.0,0.0,-1.909,-1.9587,-1.8896,-1.8858,-1.9167,-1.9857,-1.8548,-1.8123,-1.8838,-1.7368,-1.6929,-1.7562,0.0,0.0,0.0,0.0,0.0,0.0,0.0,0.0,0.0,0.0,0.0,-2.1746,-2.2223,0.0,-2.4138,-2.5818,-2.6824,-2.7286,-2.6818,-2.6607,-2.604,-2.2809,-2.1849,-2.1476,0.0,0.0,0.0,0.0,0.0,0.0,0.0,0.0,0.0,0.0,0.0,0.0,-1.5842,-1.5563,-1.5801,-1.785,-1.725,-1.6812,-1.8345,-1.85,-1.85,-1.8792,-1.9964,-2.1807,-2.4609,-2.4453,-2.4253,-2.4919,-2.4436,-2.4012,-2.4012,-2.4626,-2.4747,-2.4063,-2.5333,-2.6178,-2.6333,-2.6954,-2.7299,-2.7299,-2.7299,-2.7282,-2.725,-2.7152,-2.7103,-2.707,-2.6942,-2.6893,-2.6876,-2.7521,-2.7789,-2.784,-2.8789,-2.9194,-2.9262,-3.0006,-3.0751,-3.141,-3.141,-3.1495,-3.163,-3.163,-3.1529,-3.1495,-1.6946,0.0,0.0,0.0,0.0,0.0,0.0,0.0,0.0,0.0,0.0,0.0,0.0,0.0,0.0,0.0,0.0,0.0,0.0,-1.8084,-1.8045,-1.849,-1.7252,-1.6755,-1.7194,-1.6813,-1.6793,-1.7194,0.0,0.0,0.0,0.0,0.0,0.0,0.0,0.0,0.0,0.0,-2.1494,-2.2293,-2.23,0.0,-2.4935,-2.6204,-2.72,-2.7826,-2.733,-2.6496,-2.5304,-2.3021,-2.2391,0.0,0.0,-1.8673,-1.8265,0.0,-1.6793,-1.5806,0.0,0.0,0.0,-1.5203,0.0,0.0,0.0,-1.4893,-1.5006,-1.6737,-1.5849,-1.5227,-1.676,-1.6435,-1.6159,-1.6915,-1.7673,-1.8987,-2.1312,-2.2583,-2.3392,-2.3815,-2.3505,-2.3237,-2.3237,-2.3626,-2.385,-2.3788,-2.454,-2.5143,-2.554,-2.6281,-2.6695,-2.6695,-2.7092,-2.7299,-2.7299,-2.7233,-2.7184,-2.7103,-2.7023,-2.6975,-2.691,-2.7233,-2.7317,-2.73,-2.8078,-2.8399,-2.8467,-2.9228,-2.977,-3.0159,-3.0903,-3.119,-3.119,-3.119,-3.119,-3.1241,-1.6483,0.0,0.0,0.0,0.0,0.0,0.0,0.0,0.0,0.0,0.0,0.0,0.0,0.0,0.0,0.0,0.0,0.0,0.0,0.0,-1.7083,-1.7083,-1.6251,-1.571,-1.5555,-1.6387,-1.6832,-1.6832,0.0,0.0,0.0,0.0,0.0,0.0,0.0,0.0,0.0,0.0,0.0,-2.311,0.0,-2.3717,-2.5768,-2.6783,-2.7595,-2.8173,-2.8154,-2.6857,-2.5034,-2.4266,-2.3768,-2.3073,-2.0957,-2.0084,0.0,0.0,0.0,0.0,0.0,0.0,0.0,0.0,0.0,-1.4829,0.0,0.0,0.0,-1.54,-1.4705,0.0,0.0,0.0,0.0,0.0,0.0,0.0,0.0,-2.0142,0.0,-2.1883,-2.1849,-2.1953,-2.2272,-2.2539,-2.2953,-2.3529,-2.3719,-2.4063,-2.4747,-2.5488,-2.5902,-2.5902,-2.6661,-2.7057,-2.7057,-2.7213,-2.725,-2.7135,-2.7103,-2.7038,-2.6942,-2.7062,-2.6978,-2.6775,-2.7503,-2.7705,-2.7672,-2.8433,-2.8755,-2.889,-3.0243,-3.0852,-3.0987,-3.0987,-3.1072,-3.119,-1.656,-1.7151,0.0,0.0,0.0,0.0,0.0,0.0,0.0,0.0,0.0,0.0,0.0,0.0,0.0,0.0,0.0,0.0,-1.8993,0.0,0.0,-1.8819,-1.7987,-1.7175,-1.6464,-1.7252,-1.7658,-1.7658,0.0,0.0,0.0,0.0,0.0,0.0,-2.0399,0.0,0.0,0.0,-2.2554,0.0,-2.4725,-2.5614,0.0,-2.8309,-2.9014,-2.913,-2.907,-2.775,-2.6037,0.0,-2.5223,-2.4184,0.0,-2.181,-2.0493,-1.9694,0.0,0.0,0.0,0.0,0.0,0.0,-1.627,0.0,0.0,0.0,-1.5103,-1.4589,0.0,0.0,0.0,0.0,0.0,0.0,0.0,0.0,-1.5611,-1.7577,-1.9034,-1.8909,-1.878,-1.9268,-2.0709,-2.1986,-2.272,-2.2832,-2.3426,-2.3822,-2.3926,-2.4695,-2.5126,-2.5126,-2.585,-2.6247,-2.6247,-2.6937,-2.7282,-2.7282,-2.7152,-2.7103,-2.7087,-2.764,-2.7505,-2.6927,-2.7538,-2.7435,-2.6877,-2.7638,-2.796,-2.8027,-2.8907,-2.9634,-3.0226,-3.0226,-3.0632,-3.119,-1.7273,-1.7934,0.0,0.0,0.0,0.0,0.0,0.0,0.0,0.0,0.0,0.0,0.0,0.0,0.0,0.0,0.0,-2.2126,0.0,0.0,0.0,0.0,-1.8877,-1.7639,-1.878,-1.8142,-1.8045,-1.8548,-1.9438,0.0,0.0,0.0,0.0,0.0,-2.0908,0.0,-2.1673,0.0,-2.3528,0.0,0.0,0.0,0.0,-2.8405,-2.8937,-2.8425,-2.7923,-2.7166,-2.6275,0.0,-2.5102,0.0,0.0,0.0,0.0,0.0,0.0,0.0,0.0,0.0,0.0,0.0,0.0,0.0,-1.4841,0.0,-1.4719,0.0,0.0,0.0,0.0,0.0,0.0,0.0,-1.4409,0.0,0.0,0.0,-1.6637,-1.8372,0.0,0.0,-2.0516,-2.0378,-2.0529,-2.1315,-2.1752,-2.1967,-2.1824,-2.3392,-2.4315,-2.4315,-2.5488,-2.6109,-2.6109,-2.6902,-2.7299,-2.7299,-2.7233,-2.7184,-2.712,-2.7759,-2.764,-2.6961,-2.8029,-2.7807,-2.6759,-2.752,-2.7571,-2.7199,-2.752,-2.8653,-3.0108,-3.0108,-3.0565,-3.119,-1.7799,0.0,0.0,0.0,0.0,0.0,0.0,0.0,0.0,0.0,0.0,0.0,-2.2075,-2.1256,0.0,0.0,-2.495,-2.4486,0.0,0.0,-2.2675,0.0,0.0,0.0,0.0,-1.9515,-1.9051,-1.9457,-2.0328,0.0,0.0,0.0,0.0,0.0,0.0,-2.1694,-2.2361,0.0,0.0,-2.5691,-2.6919,-2.717,-2.6955,-2.8134,-2.8318,-2.7875,-2.7547,-2.7006,-2.6447,-2.6066,-2.5575,0.0,-2.464,0.0,0.0,0.0,0.0,0.0,-2.168,0.0,0.0,0.0,0.0,0.0,0.0,0.0,0.0,0.0,0.0,0.0,0.0,0.0,0.0,0.0,0.0,-1.4154,0.0,-1.4124,0.0,0.0,0.0,0.0,0.0,-1.8871,-1.8839,-1.9779,-1.9995,-2.0164,-2.0401,-2.1962,-2.3047,-2.3478,-2.5005,-2.5816,-2.5816,-2.6799,-2.7299,-2.7299,-2.7299,-2.725,-2.7169,-2.7792,-2.7674,-2.6994,-2.8182,-2.7909,-2.6742,-2.7283,-2.7182,-2.6691,-2.6691,-2.7824,-2.9516,-2.9719,-3.026,-3.092,-1.7787,-1.8493,0.0,0.0,0.0,0.0,0.0,0.0,0.0,0.0,0.0,0.0,0.0,0.0,0.0,0.0,0.0,-2.6605,-2.6663,0.0,-2.3267,0.0,0.0,-2.1572,0.0,-2.1591,-2.1179,-2.036,-2.1237,0.0,0.0,0.0,0.0,0.0,0.0,-2.177,-2.4025,-2.4157,-2.6105,-2.9139,-2.9197,-2.9709,-3.0172,0.0,-2.729,-2.8103,-2.8926,0.0,0.0,-2.8103,-2.738,-2.5708,-2.4793,0.0,0.0,0.0,0.0,0.0,0.0,0.0,0.0,-2.0752,0.0,0.0,0.0,0.0,-1.4701,0.0,0.0,0.0,0.0,0.0,0.0,0.0,0.0,0.0,0.0,0.0,0.0,0.0,0.0,0.0,0.0,-1.7754,-1.8563,-1.8475,-1.8473,-1.9056,-2.0325,-2.0463,-2.1187,-2.2694,-2.4229,-2.504,-2.504,-2.654,-2.7299,-2.7299,-2.7299,-2.7299,-2.7316,-2.7843,-2.7708,-2.7026,-2.7606,-2.7418,-2.6691,-2.6725,-2.6708,-2.6691,-2.6691,-2.7182,-2.7958,-2.8738,-2.9499,-3.0243,0.0,0.0,0.0,0.0,0.0,0.0,0.0,-1.7349,0.0,0.0,0.0,0.0,0.0,-2.9108,-2.9573,0.0,0.0,-3.0066,-3.0066,-2.7696,0.0,0.0,0.0,-2.3035,0.0,-2.2559,-2.1275,-2.0399,-2.065,0.0,0.0,0.0,0.0,0.0,0.0,-2.2284,0.0,0.0,0.0,0.0,0.0,-2.7437,-2.7194,0.0,-2.7232,-2.789,-2.7089,-2.6725,-2.6583,-2.6339,-2.617,-2.5901,-2.4841,-2.4092,-2.3535,-2.2961,-2.2423,-2.2237,-2.3349,-2.3033,-2.2386,-2.2386,0.0,0.0,0.0,0.0,0.0,0.0,0.0,0.0,0.0,0.0,0.0,0.0,0.0,0.0,0.0,0.0,0.0,0.0,0.0,0.0,0.0,0.0,-1.5968,-1.6816,-1.6867,-1.7472,-1.8866,-1.986,-2.1101,-2.266,-2.4212,-2.5005,-2.5005,-2.6523,-2.7299,-2.7299,-2.7299,-2.7299,-2.7316,-2.7909,-2.7757,-2.7124,-2.8219,-2.7945,-2.6876,-2.7249,-2.7148,-2.6691,-2.6691,-2.6843,-2.7165,-2.7943,-2.8704,-2.9465,-1.7761,0.0,0.0,0.0,0.0,0.0,0.0,0.0,0.0,0.0,-2.5376,0.0,-3.1816,0.0,-3.2068,0.0,-3.3557,-3.2454,-3.1835,-2.9708,0.0,-3.0095,-2.6652,0.0,0.0,0.0,-2.261,-2.1759,-2.0798,-2.0173,0.0,0.0,0.0,0.0,0.0,0.0,-2.3755,0.0,-2.6652,0.0,0.0,-2.6845,0.0,0.0,-2.6807,-2.7406,-2.6304,-2.6257,-2.6571,-2.5803,-2.5837,-2.6018,-2.4936,-2.4551,-2.4408,-2.3832,-2.3498,-2.3498,-2.4276,-2.3869,-2.3277,-2.3591,-2.2219,-2.0455,-1.9137,0.0,-1.7059,0.0,0.0,0.0,0.0,0.0,0.0,0.0,0.0,0.0,0.0,-1.4522,0.0,0.0,0.0,0.0,0.0,-1.4851,-1.4534,-1.5222,-1.5588,-1.6483,-1.8107,-1.9344,-2.0825,-2.2634,-2.3936,-2.4712,-2.5005,-2.6247,-2.7023,-2.7299,-2.7299,-2.7299,-2.7299,-2.765,-2.7566,-2.7154,-2.7998,-2.7811,-2.6927,-2.7318,-2.7182,-2.6691,-2.6691,-2.6691,-2.6793,-2.7554,-2.8315,-2.9093,0.0,0.0,0.0,0.0,-1.6739,0.0,0.0,0.0,-2.3654,0.0,-2.6343,-2.9843,-3.081,-3.1681,-3.317,-3.5607,-3.5027,-3.3789,-3.2048,-3.0366,0.0,0.0,-2.8548,-2.8431,-2.9224,0.0,0.0,-2.4138,-2.1668,-1.9999,0.0,0.0,0.0,0.0,-1.8731,0.0,-2.3076,-2.4722,-2.6904,-2.9166,-2.8373,-2.8053,-2.784,-2.6227,-2.6111,-2.6741,-2.6663,-2.6674,-2.6659,-2.6505,-2.63,-2.5977,-2.4986,-2.566,-2.6488,-2.4946,-2.5039,-2.5466,-2.4704,-2.3906,-2.3462,-2.4295,-2.268,-2.1105,-2.1829,-2.079,-1.9639,0.0,0.0,0.0,0.0,0.0,0.0,0.0,0.0,0.0,0.0,0.0,-1.4499,0.0,0.0,0.0,0.0,-1.4441,-1.4337,-1.3848,-1.4659,-1.6026,0.0,-1.8832,-2.028,-2.2539,-2.3374,-2.4195,-2.4988,-2.573,-2.6506,-2.7299,-2.7299,-2.7299,-2.7299,-2.7184,-2.7103,-2.7103,-2.704,-2.6992,-2.6926,-2.6893,-2.6842,-2.6725,-2.6691,-2.6691,-2.6776,-2.7503,-2.8247,-2.9025,-1.8549,-1.8672,-1.884,0.0,-1.9342,-1.9226,0.0,0.0,0.0,0.0,-2.934,-3.2938,-3.5046,-3.6613,-3.7522,-3.756,-3.6767,0.0,0.0,0.0,0.0,-3.1159,-2.9747,-2.876,-2.8335,-2.7058,0.0,-2.3229,-2.1924,-2.0539,-1.9111,0.0,0.0,0.0,0.0,0.0,-2.3813,-2.4316,-2.5994,-2.8373,-2.8799,-2.8567,-2.7956,0.0,-2.7484,-2.7503,-2.6265,-2.6199,-2.658,-2.5793,-2.544,-2.524,-2.4821,-2.4877,-2.5039,-2.4611,-2.4648,-2.476,-2.4555,-2.4351,-2.4221,-2.4444,-2.3535,-2.2479,-2.2089,-2.1216,-2.0325,-1.9713,-1.9249,-1.8636,-1.7597,-1.7393,0.0,0.0,0.0,0.0,0.0,0.0,0.0,-1.4517,0.0,-1.5018,-1.4496,-1.4805,-1.4731,-1.4062,-1.4665,-1.5469,-1.6452,-1.7847,-1.9356,-2.0928,-2.2806,-2.4195,-2.4988,-2.573,-2.6506,-2.7299,-2.7299,-2.7299,-2.7299,-2.725,-2.725,-2.7233,-2.712,-2.707,-2.7038,-2.7007,-2.6942,-2.6942,-2.6876,-2.6792,-2.6708,-2.6911,-2.7469,-2.8146,-1.9542,0.0,0.0,-2.0212,0.0,0.0,-2.1859,0.0,0.0,-2.818,-3.1816,0.0,-3.5684,-3.7019,-3.7773,-3.7638,-3.6864,0.0,-3.3944,0.0,0.0,-3.1816,-3.0559,-2.9805,-2.965,-2.8083,0.0,-2.3987,0.0,0.0,-1.9046,0.0,0.0,0.0,0.0,-2.0325,0.0,-2.449,-2.5917,-2.7039,-2.8644,-2.878,0.0,-2.7995,-2.8247,-2.8393,-2.7078,-2.6633,-2.6558,-2.5601,-2.516,-2.5038,-2.5286,-2.5185,-2.502,-2.502,-2.502,-2.4946,-2.4592,-2.45,-2.45,-2.45,-2.4129,-2.3646,-2.3201,-2.2736,-2.229,-2.1845,-2.1157,-2.0474,-1.988,-1.897,0.0,0.0,0.0,0.0,0.0,0.0,0.0,0.0,-1.5178,-1.5349,-1.4607,-1.4981,-1.4963,-1.4167,-1.4769,-1.5707,0.0,-1.7972,-1.9105,-2.0343,-2.2375,-2.3292,-2.3005,-2.5074,-2.6178,-2.6299,-2.6971,-2.7299,-2.7299,-2.7299,-2.7299,-2.7299,-2.7233,-2.7152,-2.7103,-2.7055,-2.704,-2.6975,-2.6926,-2.6842,-2.6792,-2.6742,-2.6962,-2.7385,0.0,0.0,0.0,0.0,0.0,0.0,0.0,-2.767,0.0,-3.0424,0.0,-3.5491,-3.4505,-3.5259,-3.6091,-3.669,0.0,-3.4969,-3.3198,-3.3102,-3.2715,-3.1835,-3.1139,-3.1043,-3.1642,-2.9476,-2.7437,0.0,0.0,-2.0981,0.0,0.0,0.0,0.0,0.0,0.0,0.0,-2.5147,-2.6536,-2.6207,-2.8528,-2.9012,-2.8335,-2.8335,-2.8741,-2.9205,-2.8431,-2.7677,-2.6887,-2.5904,-2.5388,-2.5304,-2.6013,-2.6007,-2.5762,-2.5855,-2.5875,-2.5708,-2.5001,-2.4816,-2.4797,-2.4685,-2.4667,-2.463,-2.4518,-2.45,-2.45,-2.45,-2.3331,-2.246,-2.2943,-2.0437,0.0,0.0,0.0,0.0,0.0,0.0,0.0,0.0,0.0,0.0,-1.4689,-1.5273,-1.526,-1.4208,-1.5012,-1.6268,-1.7904,-1.8268,-1.8917,-1.9987,-2.1847,-2.216,-2.0753,-2.4298,-2.5833,-2.5316,-2.6661,-2.7299,-2.7299,-2.7299,-2.7299,-2.7299,-2.7299,-2.7233,-2.7135,-2.7135,-2.7087,-2.7007,-2.6959,-2.6926,-2.6893,-2.6742,-2.6691,-2.6793,0.0,0.0,0.0,0.0,0.0,-2.5216,-3.1744,-3.1834,-3.1023,-3.0656,-3.4156,-3.611,-3.4563,-3.5762,-3.6477,-3.5955,-3.5781,0.0,0.0,0.0,0.0,-3.1835,-3.1661,-3.1352,-3.083,-3.0366,-2.8934,0.0,-2.4601,-2.2435,-2.0055,0.0,0.0,0.0,0.0,0.0,-2.3702,-2.6566,0.0,-2.8741,-2.9901,-3.0288,-3.0133,-3.0133,-2.9785,-2.9282,-2.9128,-2.8983,-2.8608,-2.7006,-2.6322,-2.6178,-2.6314,-2.6124,-2.601,-2.672,-2.6821,-2.6674,-2.6526,-2.6488,-2.6321,-2.5671,-2.5485,-2.5317,-2.4648,-2.45,-2.45,-2.45,-2.4276,-2.3665,-2.2442,-2.0066,-1.8209,0.0,0.0,0.0,0.0,0.0,0.0,0.0,0.0,-1.753,-1.4779,-1.626,-1.6504,-1.4427,0.0,0.0,-1.5864,-1.6568,-1.7287,-1.8002,-2.06,-2.2143,-2.2467,-2.4873,-2.6368,-2.6902,-2.7161,-2.7299,-2.7299,-2.7299,-2.7299,-2.7299,-2.7299,-2.7282,-2.725,-2.725,-2.7201,-2.707,-2.7007,-2.6959,-2.6893,-2.6742,-2.6691,-2.6708,0.0,0.0,0.0,0.0,0.0,0.0,0.0,-3.4052,-3.4268,-3.3914,-3.4872,-3.5298,-3.4485,-3.551,-3.5936,-3.5104,-3.5027,-3.4485,-3.3179,-3.2676,-3.2444,-3.2464,-3.2048,-3.1623,-3.1236,-3.1217,-2.9737,-2.6696,-2.5404,-2.3458,-2.0901,0.0,0.0,0.0,0.0,-2.196,0.0,0.0,-2.7987,-2.8103,-2.9882,-3.0598,-3.0598,-3.0598,-3.0346,-2.9959,-2.9959,-2.9951,-2.967,-2.7904,-2.7217,-2.7139,-2.758,-2.7229,-2.6827,-2.7612,-2.7453,-2.7027,-2.6935,-2.6916,-2.6823,-2.6433,-2.6321,-2.6117,-2.5317,-2.5113,-2.5001,-2.4592,-2.45,-2.4128,-2.285,-2.1643,-2.0567,-1.9731,0.0,0.0,0.0,0.0,0.0,0.0,0.0,0.0,0.0,0.0,0.0,0.0,0.0,0.0,-1.6558,-1.6298,-1.6895,-1.8531,-2.078,-2.1522,-2.063,-2.4687,-2.6169,-2.509,-2.6584,-2.7299,-2.7299,-2.7299,-2.7299,-2.7299,-2.7299,-2.7299,-2.7299,-2.7299,-2.725,-2.7184,-2.7087,-2.7007,-2.6942,-2.6842,-2.6742,-2.6691,0.0,-2.4476,0.0,0.0,-2.7736,0.0,-3.3103,-3.5244,-3.6697,-3.7123,-3.5878,-3.4872,-3.4679,-3.5278,-3.5356,-3.4466,-3.4389,-3.3944,-3.2889,-3.2174,-3.2029,-3.2541,-3.2261,-3.1913,-3.1545,-3.1894,-3.0482,-2.7257,-2.6195,-2.4433,-2.204,-2.1216,0.0,0.0,0.0,0.0,0.0,-2.7136,-2.8083,-2.7939,-2.9843,-3.0598,-3.0598,-3.0598,-3.0598,-3.0598,-3.0569,-3.054,-3.0297,-2.8927,-2.8247,-2.8114,-2.8747,-2.8387,-2.7846,-2.8508,-2.8252,-2.7675,-2.7494,-2.7436,-2.7399,-2.7213,-2.7176,-2.6953,-2.6135,-2.5968,-2.5726,-2.4927,-2.4611,-2.4295,-2.3609,-2.3184,-2.2423,-2.0808,-1.9137,0.0,0.0,0.0,0.0,0.0,0.0,0.0,-1.7219,-1.7464,0.0,0.0,0.0,0.0,-1.7765,-1.6328,-1.6617,-1.919,-2.0504,-2.048,-1.9034,-2.4066,-2.5692,-2.3946,-2.6217,-2.7299,-2.7299,-2.7299,-2.7299,-2.7299,-2.7299,-2.7299,-2.7299,-2.7299,-2.7299,-2.7282,-2.7152,-2.7087,-2.7007,-2.6926,-2.6842,-2.6742,0.0,0.0,0.0,0.0,0.0,0.0,-3.4751,-3.5521,-3.6272,-3.7878,-3.7251,-3.6381,-3.5665,-3.5646,-3.5356,-3.4466,-3.4389,-3.3692,-3.2029,-3.1855,-3.1507,-3.0868,-3.2222,-3.228,-3.0752,-3.2203,-3.169,0.0,-2.7382,-2.5637,-2.3843,-2.2973,-2.2983,0.0,0.0,-2.5788,-2.8714,-2.9041,-3.0017,-3.1275,-3.081,-3.0598,-3.0598,-3.0598,-3.0598,-3.0598,-3.053,-3.052,-3.0491,-3.0316,-2.9666,-2.8975,-2.9052,-2.8938,-2.8888,-2.9558,-2.9581,-2.9345,-2.9187,-2.9184,-2.8979,-2.8179,-2.7974,-2.779,-2.6972,-2.6804,-2.6563,-2.5745,-2.502,-2.4481,-2.4388,-2.3145,-2.1588,-1.9973,-1.8302,-1.6687,0.0,0.0,-1.8803,-1.7281,0.0,0.0,-1.7331,-1.6448,-1.563,0.0,-1.5938,0.0,-1.8031,-1.5881,-1.574,-1.817,-1.8153,-1.8948,-2.0664,-2.3142,-2.5247,-2.6899,-2.7161,-2.7299,-2.7299,-2.7299,-2.7299,-2.7299,-2.7299,-2.7299,-2.7299,-2.7299,-2.7299,-2.7282,-2.7152,-2.7103,-2.707,-2.6942,-2.6893,-2.6842,0.0,0.0,0.0,0.0,0.0,0.0,0.0,-3.7057,-3.7315,-3.8041,-3.6965,-3.601,-3.5723,-3.5654,-3.5295,-3.4425,-3.3903,-3.3111,-3.1883,-3.1303,-3.0888,-3.0617,-3.2222,-3.2541,-3.1352,-3.2996,-3.2599,0.0,-2.7777,-2.6331,-2.5618,-2.373,-2.4144,-2.6485,-2.7526,-2.9023,-3.084,-3.1362,-3.1971,-3.2541,-3.2242,-3.1797,-3.1313,-3.1313,-3.1023,-3.0598,-3.0569,-3.053,-3.0491,-3.05,-3.0218,-2.9886,-2.9886,-2.9829,-2.9839,-2.999,-2.9899,-2.9751,-2.957,-2.9451,-2.9332,-2.8979,-2.8886,-2.8663,-2.7827,-2.7622,-2.7399,-2.66,-2.5782,-2.5076,-2.4592,-2.396,-2.2959,-2.1309,-2.0474,-1.9305,-1.7151,0.0,0.0,-1.8079,0.0,-1.9643,0.0,-1.691,-1.5917,0.0,0.0,-1.5858,-1.6673,-1.6224,-1.6982,-1.9281,-1.9217,-2.0261,-2.2611,-2.3768,-2.5006,-2.6342,-2.7163,-2.7452,-2.7299,-2.7299,-2.7299,-2.7299,-2.7299,-2.7299,-2.7299,-2.7299,-2.7299,-2.7282,-2.7233,-2.7184,-2.7103,-2.7038,-2.6975,-2.6893,-3.4391,0.0,-3.4295,0.0,-3.6295,-3.7137,-3.7319,-3.7704,-3.7833,-3.7392,-3.6318,-3.5492,-3.5314,-3.5253,-3.4874,-3.3986,-3.3175,-3.2461,-3.1843,-3.0993,-3.052,-3.0579,-3.2202,0.0,-3.1826,-3.3518,-3.3383,-3.1255,-2.9197,-2.8067,-2.7778,-2.5462,-2.6088,-2.9158,-3.0115,-3.1304,-3.259,-3.2947,-3.3237,-3.346,-3.3198,-3.2734,-3.2154,-3.1913,-3.1449,-3.0926,-3.0666,-3.0559,-3.053,-3.052,-3.0471,-3.0428,-3.0417,-3.0394,-3.0355,-3.0169,-3.0007,-2.9853,-2.9644,-2.9492,-2.9407,-2.9407,-2.9407,-2.924,-2.8626,-2.8496,-2.8254,-2.7436,-2.6619,-2.5819,-2.5001,-2.4853,-2.4239,-2.2312,-2.1996,-2.1049,-1.8339,-2.0288,0.0,-1.8265,-1.8933,-1.9583,-1.9518,-1.7529,0.0,0.0,0.0,-1.5514,-1.6122,-1.6182,-1.7146,-1.9191,-1.8743,-1.9939,-2.3032,-2.3374,-2.451,-2.6409,-2.7384,-2.773,-2.7509,-2.7434,-2.7359,-2.7299,-2.7299,-2.7299,-2.7299,-2.7299,-2.7299,-2.7299,-2.7299,-2.7233,-2.7152,-2.7103,-2.7038,-2.6942,-3.8719,-3.7834,-3.693,-3.7796,-3.7969,-3.743,-3.5776,-3.6939,-3.7409,-3.5753,-3.5515,-3.52,-3.4395,-3.433,-3.3952,-3.3084,-3.2284,-3.1821,-3.1802,-3.0992,-3.0509,0.0,0.0,-3.2694,-3.1825,-3.3508,-3.3963,-3.3063,0.0,-3.1303,-3.0414,-2.8733,-2.9294,-3.1728,-3.0936,-3.199,-3.4311,-3.346,-3.3596,-3.4311,-3.346,-3.3082,-3.2986,-3.2126,-3.1797,-3.1671,-3.081,-3.053,-3.0588,-3.052,-3.05,-3.0499,-3.0428,-3.0394,-3.0355,-3.0169,-3.0007,-2.9853,-2.9644,-2.9492,-2.9407,-2.9407,-2.9407,-2.9407,-2.9388,-2.9388,-2.9147,-2.8273,-2.7455,-2.6637,-2.5838,-2.5689,-2.4872,-2.2404,-2.1996,-2.0864,-1.7578,-1.9936,0.0,-1.7504,-1.8581,-1.9602,-1.9602,-1.8061,0.0,0.0,0.0,-1.7046,-1.6995,-1.5423,-1.53,-1.6993,-1.5429,-1.6743,-2.1291,-2.1345,-2.3598,-2.8066,-2.8084,-2.8102,-2.8075,-2.7829,-2.7539,-2.7299,-2.7299,-2.7299,-2.7299,-2.7299,-2.7299,-2.7299,-2.7299,-2.7299,-2.7282,-2.7152,-2.7103,-2.7103,-3.9719,-3.9662,-3.9373,-3.9662,-3.97,-3.9335,-3.8257,-3.8041,-3.7599,-3.6463,-3.5309,-3.4283,-3.3448,-3.3865,-3.4121,0.0,-3.254,-3.1719,0.0,-3.091,-3.0719,-3.136,-3.2431,-3.3194,-3.3566,-3.4657,-3.4812,-3.3982,-3.2522,-3.1381,-3.0588,-3.1787,-3.2803,-3.3585,-3.3924,-3.4524,-3.5259,-3.4988,-3.5027,-3.5259,-3.4988,-3.4156,-3.3063,-3.2792,-3.199,-3.0946,-3.0666,-3.0569,-3.0598,-3.052,-3.05,-3.0499,-3.0428,-3.0394,-3.0398,-3.0311,-3.0169,-3.0022,-2.9958,-2.975,-2.9532,-2.9532,-2.9471,-2.9407,-2.9407,-2.9407,-2.9165,-2.8272,-2.7881,-2.7474,-2.6674,-2.608,-2.5058,-2.3128,-2.3331,-2.2755,-2.001,-2.0994,-2.1402,-1.9806,-1.9602,-2.0028,-2.1124,-1.975,-1.8803,-1.8803,-1.8771,-1.8231,-1.7051,-1.8047,-1.9415,-2.105,-2.1088,-2.2594,-2.5698,-2.4639,-2.5572,-2.843,-2.843,-2.8308,-2.8102,-2.802,-2.7829,-2.7569,-2.7569,-2.7465,-2.7299,-2.7299,-2.7299,-2.7299,-2.7299,-2.7299,-2.7282,-2.725,-2.7184,-2.7103,-4.0277,-4.0489,-4.0392,-4.0085,-4.0046,-3.9662,-3.8507,-3.7853,-3.7219,-3.6372,-3.5334,-3.4353,-3.3487,-3.359,-3.3467,-3.2832,-3.1819,-3.1338,-3.1665,-3.1184,-3.1284,-3.2177,-3.3014,-3.372,-3.4306,-3.5156,-3.5342,-3.4861,-3.3789,-3.3015,-3.2551,-3.4137,-3.4891,-3.4911,-3.5452,-3.5704,-3.5704,-3.5704,-3.5704,-3.5704,-3.5704,-3.5046,-3.404,-3.3712,-3.2938,-3.1932,-3.1294,-3.1043,-3.0994,-3.0617,-3.05,-3.0499,-3.0428,-3.0394,-3.0398,-3.0398,-3.0254,-3.0109,-3.0109,-2.9848,-2.9608,-2.9608,-2.9492,-2.9407,-2.9407,-2.9407,-2.9258,-2.87,-2.8608,-2.8347,-2.7511,-2.6693,-2.5726,-2.4371,-2.4334,-2.3737,-2.1551,-2.2235,-2.229,-2.0548,-2.0437,-2.0901,-2.1903,-2.1087,-2.0493,-2.0493,-1.9903,-1.9485,-1.9331,-2.0139,-2.1083,-2.2113,-2.2886,-2.4447,-2.6869,-2.5917,-2.653,-2.8743,-2.8743,-2.8601,-2.8281,-2.8281,-2.812,-2.784,-2.784,-2.7742,-2.76,-2.76,-2.76,-2.76,-2.76,-2.7539,-2.7465,-2.7569,-2.7491,-2.7338,-4.0489,-4.0489,-4.0258,-3.9508,-3.9373,-3.8796,-3.7065,-3.6796,-3.6488,-3.5622,-3.5449,-3.5084,-3.4199,-3.3333,-3.2199,-3.0629,-3.0417,-3.0775,-3.1641,-3.1698,-3.2083,-3.2949,-3.3775,-3.4231,-3.4301,-3.514,-3.5601,-3.5601,-3.5673,-3.5704,-3.5704,-3.5704,-3.5704,-3.5704,-3.5704,-3.5704,-3.5704,-3.5704,-3.5704,-3.5704,-3.5704,-3.5665,-3.551,-3.4698,-3.435,-3.4098,-3.2474,-3.1884,-3.1768,-3.0945,-3.0635,-3.0576,-3.0524,-3.0452,-3.041,-3.0398,-3.0267,-3.0122,-3.0122,-2.988,-2.9626,-2.9626,-2.9531,-2.9427,-2.9407,-2.9407,-2.9407,-2.9407,-2.9407,-2.9165,-2.8347,-2.7548,-2.673,-2.5912,-2.5113,-2.3979,-2.2253,-2.3386,-2.3291,-2.0228,-2.1232,-2.22,-2.2256,-2.2256,-2.2182,-2.2015,0.0,-2.0812,-2.2838,-2.1719,-2.1094,-2.12,-2.191,-2.3382,-2.5642,-2.566,-2.6778,-2.8994,-2.8994,-2.8881,-2.8644,-2.8644,-2.8456,-2.8129,-2.8129,-2.8129,-2.8102,-2.8102,-2.8102,-2.8102,-2.8102,-2.7954,-2.7771,-2.7992,-2.7936,-2.7771,-4.0489,-4.0489,-4.0431,-4.0239,-4.0219,-3.9642,-3.795,-3.77,-3.7161,-3.5699,-3.493,-3.418,-3.3295,-3.2487,-3.1814,-3.1429,-3.0794,-3.0775,-3.1641,-3.1698,-3.2365,-3.3833,-3.409,-3.4526,-3.5251,-3.5444,-3.5553,-3.5601,-3.5673,-3.5704,-3.5704,-3.5704,-3.5704,-3.5704,-3.5704,-3.5704,-3.5704,-3.5704,-3.5704,-3.5704,-3.5704,-3.5298,-3.4679,-3.4466,-3.3982,-3.3353,-3.2946,-3.278,-3.2761,-3.2494,-3.1962,-3.1403,-3.1395,-3.0953,-3.0394,-3.039,-3.0367,-3.0323,-3.0323,-3.0155,-2.9973,-2.9973,-2.9767,-2.9531,-2.9409,-2.9407,-2.9407,-2.9407,-2.9407,-2.9351,-2.9128,-2.8403,-2.7567,-2.6749,-2.5949,-2.4628,-2.238,-2.2896,-2.327,-2.2581,-2.334,-2.4165,-2.4761,-2.4817,-2.4036,-2.2145,-2.2829,-2.2495,-2.0552,-2.3543,-2.5595,-2.6182,-2.6972,-2.761,-2.8154,-2.8154,-2.8448,-2.8994,-2.8994,-2.897,-2.8905,-2.8905,-2.8743,-2.8482,-2.8482,-2.8334,-2.8102,-2.8102,-2.8102,-2.8102,-2.8102,-2.8075,-2.802,-2.8075,-2.8075,-2.802,-4.0489,-4.0489,-4.0258,-3.9488,-3.9354,-3.8796,-3.7103,-3.6873,-3.6526,-3.5622,-3.5084,-3.4468,-3.3583,-3.3103,-3.2679,-3.2275,-3.1487,-3.1525,-3.2756,-3.2833,-3.3442,-3.4745,-3.4789,-3.502,-3.5541,-3.5522,-3.5521,-3.5601,-3.5643,-3.5673,-3.5704,-3.5704,-3.5704,-3.5704,-3.5704,-3.5704,-3.5704,-3.5704,-3.5704,-3.5704,-3.5704,-3.5414,-3.4988,-3.4988,-3.4668,-3.4193,-3.3785,-3.3658,-3.3577,-3.3149,-3.2694,-3.2278,-3.2293,-3.1954,-3.1549,-3.1545,-3.1006,-3.0475,-3.0891,-3.0561,-3.0061,-2.9912,-2.9713,-2.9551,-2.9429,-2.9407,-2.9407,-2.9407,-2.9407,-2.9407,-2.9407,-2.87,-2.7845,-2.7046,-2.5632,-2.4043,-2.2331,-2.279,-2.3316,-2.3378,-2.4381,-2.5224,-2.5671,-2.5708,-2.5001,-2.3275,-2.3628,-2.3628,-2.2978,-2.4725,-2.5893,-2.6237,-2.8095,-2.9085,-2.8994,-2.8994,-2.8994,-2.8994,-2.8994,-2.8994,-2.8994,-2.8994,-2.8905,-2.8767,-2.8767,-2.8676,-2.8489,-2.8489,-2.8489,-2.8489,-2.8489,-2.8438,-2.8334,-2.8482,-2.8438,-2.8334,-4.0489,-4.0489,-4.0046,-3.8623,-3.8277,-3.7661,-3.6122,-3.5776,-3.568,-3.568,-3.568,-3.5353,-3.4487,-3.4391,-3.4045,-3.316,-3.2468,-3.2679,-3.4103,-3.4199,-3.4584,-3.5468,-3.5493,-3.5493,-3.5493,-3.5509,-3.554,-3.557,-3.5601,-3.5631,-3.5684,-3.5704,-3.5704,-3.5704,-3.5704,-3.5704,-3.5704,-3.5704,-3.5704,-3.5704,-3.5704,-3.5704,-3.5704,-3.5704,-3.5654,-3.5516,-3.477,-3.4496,-3.4376,-3.3624,-3.3292,-3.3203,-3.3191,-3.3051,-3.2942,-3.3064,-3.2006,-3.0948,-3.1679,-3.1207,-3.0424,-2.9975,-2.9868,-2.9795,-2.9548,-2.945,-2.9429,-2.9429,-2.9409,-2.9407,-2.9407,-2.8812,-2.7957,-2.6916,-2.4974,-2.3244,-2.2262,-2.2978,-2.3637,-2.3749,-2.5257,-2.621,-2.608,-2.6061,-2.5726,-2.4927,-2.4185,-2.4575,-2.6451,-2.5578,-2.4856,-2.4487,-2.749,-2.9085,-2.8994,-2.8994,-2.8994,-2.8994,-2.8994,-2.8994,-2.8994,-2.8994,-2.8994,-2.8994,-2.8994,-2.8994,-2.8994,-2.8994,-2.8994,-2.8994,-2.8994,-2.8858,-2.8694,-2.8905,-2.8858,-2.8694,-4.0489,-4.0489,-4.0412,-4.0162,-3.9546,-3.8757,-3.7757,-3.6988,-3.6507,-3.6507,-3.6507,-3.6199,-3.5391,-3.5295,-3.4949,-3.4064,-3.3872,-3.391,-3.418,-3.4199,-3.4584,-3.5468,-3.5493,-3.5493,-3.5493,-3.5509,-3.5515,-3.5528,-3.5577,-3.5601,-3.5612,-3.5673,-3.5704,-3.5704,-3.5704,-3.5704,-3.5704,-3.5704,-3.5704,-3.5704,-3.5704,-3.5704,-3.5704,-3.5704,-3.5684,-3.5654,-3.5477,-3.5407,-3.5377,-3.5193,-3.466,-3.4082,-3.4032,-3.3532,-3.3121,-3.3808,-3.3295,-3.2545,-3.2679,-3.259,-3.225,-3.1355,-3.1119,-3.0883,-3.0023,-2.9681,-2.957,-2.957,-2.9491,-2.9407,-2.9407,-2.9295,-2.8517,-2.6408,-2.5134,-2.3911,-2.248,-2.351,-2.4669,-2.5361,-2.7438,-2.8552,-2.7808,-2.7734,-2.7399,-2.66,-2.6395,-2.5912,-2.4927,-2.6525,-2.6799,-2.5354,-2.7827,-2.913,-2.8994,-2.8994,-2.8994,-2.8994,-2.8994,-2.8994,-2.8994,-2.8994,-2.8994,-2.8994,-2.8994,-2.8994,-2.8994,-2.8994,-2.8994,-2.8994,-2.8994,-2.8952,-2.8929,-2.8975,-2.8952,-2.8929,-4.0489,-4.0489,-4.0354,-3.9931,-3.9161,-3.8315,-3.743,-3.6603,-3.6065,-3.6065,-3.6065,-3.5911,-3.5532,-3.5493,-3.5353,-3.4949,-3.4911,-3.4911,-3.4911,-3.4911,-3.5084,-3.5488,-3.5493,-3.5493,-3.5493,-3.5501,-3.5509,-3.5515,-3.5572,-3.5608,-3.5601,-3.5673,-3.5704,-3.5704,-3.5704,-3.5704,-3.5704,-3.5704,-3.5704,-3.5704,-3.5704,-3.5704,-3.5704,-3.5704,-3.5673,-3.5643,-3.5608,-3.5584,-3.5553,-3.5515,-3.5252,-3.495,-3.4912,-3.4648,-3.4424,-3.4795,-3.4276,-3.3506,-3.3026,-3.2891,-3.2769,-3.2216,-3.1747,-3.1245,-3.0674,-3.0053,-2.9608,-2.9608,-2.9492,-2.9407,-2.9407,-2.9407,-2.8629,-2.6293,-2.5527,-2.4567,-2.2582,-2.3994,-2.5379,-2.5755,-2.7512,-2.8552,-2.8123,-2.8086,-2.7771,-2.6972,-2.7306,-2.7232,-2.6488,-2.7432,-2.7894,-2.7598,-2.8584,-2.9044,-2.8994,-2.8994,-2.8994,-2.8994,-2.8994,-2.8994,-2.8994,-2.8994,-2.8994,-2.8994,-2.8994,-2.8994,-2.8994,-2.8994,-2.8994,-2.8994,-2.8994,-2.8994,-2.8994,-2.8994,-2.8994,-2.8994,-4.0489,-4.0489,-4.0296,-3.9681,-3.8873,-3.8007,-3.7142,-3.6315,-3.5795,-3.5795,-3.5795,-3.5795,-3.5795,-3.5795,-3.5699,-3.5526,-3.5493,-3.5493,-3.5493,-3.5493,-3.5493,-3.5493,-3.5493,-3.5493,-3.5493,-3.5493,-3.5501,-3.5489,-3.5579,-3.5584,-3.5589,-3.5662,-3.5684,-3.5673,-3.5684,-3.5684,-3.5673,-3.5684,-3.5704,-3.5681,-3.5673,-3.5673,-3.5681,-3.5681,-3.5631,-3.5589,-3.5604,-3.556,-3.5515,-3.5515,-3.5509,-3.5463,-3.5258,-3.5341,-3.5468,-3.5257,-3.4872,-3.4353,-3.3699,-3.3506,-3.3423,-3.3121,-3.2398,-3.1647,-3.1318,-3.044,-2.9681,-2.9681,-2.9531,-2.9407,-2.9407,-2.9407,-2.8685,-2.6536,-2.5976,-2.5244,-2.3653,-2.4789,-2.6017,-2.6561,-2.768,-2.8403,-2.8403,-2.8403,-2.8161,-2.7529,-2.805,-2.8403,-2.8403,-2.8322,-2.8616,-2.9307,-2.9152,-2.904,-2.8994,-2.8994,-2.8994,-2.8994,-2.8994,-2.8994,-2.8994,-2.8994,-2.8994,-2.8994,-2.8994,-2.8994,-2.8994,-2.8994,-2.8994,-2.8994,-2.8994,-2.8994,-2.8994,-2.8994,-2.8994,-2.8994,-4.0489,-4.0489,-4.0469,-4.0412,-3.9738,-3.8911,-3.8046,-3.718,-3.6622,-3.6622,-3.6622,-3.6622,-3.6622,-3.6622,-3.6315,-3.5584,-3.5493,-3.5493,-3.5493,-3.5493,-3.5493,-3.5493,-3.5493,-3.5493,-3.5493,-3.5493,-3.5507,-3.5507,-3.5566,-3.556,-3.5515,-3.5651,-3.5673,-3.5612,-3.5673,-3.5673,-3.5612,-3.5673,-3.5651,-3.5604,-3.562,-3.5608,-3.5604,-3.5604,-3.5604,-3.5604,-3.5604,-3.5591,-3.5591,-3.5515,-3.5502,-3.5368,-3.4539,-3.4853,-3.5353,-3.4526,-3.4814,-3.5391,-3.5334,-3.5315,-3.5109,-3.4282,-3.3436,-3.259,-3.1827,-3.0729,-2.9886,-2.9886,-2.9626,-2.9407,-2.9407,-2.9407,-2.8871,-2.7267,-2.6332,-2.6015,-2.6666,-2.6201,-2.6635,-2.8869,-2.924,-2.9314,-2.9314,-2.9314,-2.9277,-2.9221,-2.9277,-2.9314,-2.9314,-2.9251,-2.9185,-2.9112,-2.9156,-2.913,-2.8994,-2.8994,-2.8994,-2.8994,-2.8994,-2.8994,-2.8994,-2.8994,-2.8994,-2.8994,-2.8994,-2.8994,-2.8994,-2.8994,-2.8994,-2.8994,-2.8994,-2.8994,-2.8994,-2.8994,-2.8994,-2.8994,-4.0489,-4.0489,-4.0335,-3.9835,-3.9065,-3.82,-3.7334,-3.6488,-3.5968,-3.5968,-3.5968,-3.5968,-3.5968,-3.5968,-3.5834,-3.5545,-3.5493,-3.5493,-3.5493,-3.5493,-3.5493,-3.5493,-3.5493,-3.5493,-3.5493,-3.5493,-3.5493,-3.5493,-3.5541,-3.5515,-3.5496,-3.5584,-3.5628,-3.5596,-3.5628,-3.5628,-3.5596,-3.5628,-3.5616,-3.5604,-3.5596,-3.5604,-3.5591,-3.5591,-3.5591,-3.5591,-3.556,-3.5547,-3.5528,-3.5495,-3.5501,-3.5443,-3.5103,-3.5238,-3.543,-3.5103,-3.4853,-3.4699,-3.4699,-3.4699,-3.4737,-3.4949,-3.3564,-3.2173,-3.2305,-3.1047,-2.9869,-2.9751,-2.9551,-2.9407,-2.9407,-2.9407,-2.889,-2.7342,-2.7696,-2.7937,-2.7323,-2.7865,-2.8695,-2.9604,-2.9717,-2.9717,-2.9717,-2.9717,-2.9663,-2.9532,-2.9513,-2.9491,-2.9407,-2.9386,-2.9061,-2.8371,-2.8898,-2.9152,-2.8994,-2.8994,-2.8994,-2.8994,-2.8994,-2.8994,-2.8994,-2.8994,-2.8994,-2.8994,-2.8994,-2.8994,-2.8994,-2.8994,-2.8994,-2.8994,-2.8994,-2.8994,-2.8994,-2.8994,-2.8994,-2.8994,-4.0489,-4.0489,-4.0239,-3.9431,-3.8815,-3.8027,-3.6873,-3.6238,-3.5795,-3.5532,-3.5493,-3.5493,-3.5493,-3.5738,-3.5795,-3.5512,-3.5738,-3.5776,-3.5526,-3.5493,-3.5493,-3.5493,-3.5493,-3.5493,-3.5493,-3.5493,-3.5493,-3.5493,-3.5509,-3.5502,-3.5509,-3.5579,-3.5591,-3.556,-3.5591,-3.5591,-3.556,-3.5584,-3.5591,-3.5566,-3.5591,-3.5579,-3.5566,-3.5566,-3.5566,-3.5554,-3.5522,-3.5509,-3.5509,-3.5488,-3.5493,-3.5449,-3.518,-3.5084,-3.5084,-3.5084,-3.4661,-3.4141,-3.3872,-3.3795,-3.393,-3.4526,-3.3333,-3.2051,-3.224,-3.1007,-2.9769,-2.9626,-2.9492,-2.9407,-2.9407,-2.9611,-2.945,-2.8446,-2.9232,-2.9625,-2.8626,-2.9317,-2.9902,-2.9902,-2.9902,-2.9902,-2.9902,-2.9902,-2.982,-2.9626,-2.9662,-2.9645,-2.9471,-2.9409,-2.9042,-2.8341,-2.8879,-2.9112,-2.8994,-2.8994,-2.8994,-2.8994,-2.8994,-2.8994,-2.8994,-2.8994,-2.8994,-2.8994,-2.8994,-2.8994,-2.8994,-2.8994,-2.8994,-2.8994,-2.8994,-2.8994,-2.8994,-2.8994,-2.8994,-2.8994,-4.0489,-4.0489,-4.0239,-3.9431,-3.9277,-3.87,-3.6969,-3.6699,-3.6411,-3.5603,-3.5493,-3.5493,-3.5493,-3.6219,-3.6372,-3.557,-3.6238,-3.6353,-3.5551,-3.5493,-3.5493,-3.5493,-3.5493,-3.5493,-3.5493,-3.5493,-3.5493,-3.5493,-3.5509,-3.5509,-3.5507,-3.5566,-3.556,-3.5496,-3.556,-3.556,-3.5496,-3.5577,-3.556,-3.5507,-3.5566,-3.5554,-3.5493,-3.5493,-3.5493,-3.5493,-3.5493,-3.5493,-3.5493,-3.5493,-3.5493,-3.5353,-3.4468,-3.4199,-3.4199,-3.4199,-3.418,-3.3987,-3.3122,-3.2891,-3.2891,-3.2891,-3.2804,-3.2473,-3.1594,-3.0473,-2.9608,-2.9608,-2.9511,-2.9425,-2.9407,-3.0076,-3.0681,-3.0847,-3.0866,-3.0866,-3.1082,-3.0414,-2.9902,-2.9902,-2.9902,-2.9902,-2.9902,-2.9902,-2.982,-2.9626,-2.9767,-2.982,-2.9589,-2.9411,-2.9262,-2.92,-2.9134,-2.9085,-2.8994,-2.8994,-2.8994,-2.8994,-2.8994,-2.8994,-2.8994,-2.8994,-2.8994,-2.8994,-2.8994,-2.8994,-2.8994,-2.8994,-2.8994,-2.8994,-2.8994,-2.8994,-2.8994,-2.8994,-2.8994,-2.8994,-4.0286,-4.0389,-4.0046,-3.8642,-3.8392,-3.7815,-3.6122,-3.5872,-3.5776,-3.5532,-3.5493,-3.5493,-3.5493,-3.5718,-3.5776,-3.5526,-3.5718,-3.5757,-3.5526,-3.5493,-3.5493,-3.5493,-3.5493,-3.5493,-3.5493,-3.5493,-3.5493,-3.5493,-3.5488,-3.5488,-3.5507,-3.552,-3.5515,-3.5501,-3.5515,-3.5515,-3.5501,-3.5528,-3.5515,-3.5507,-3.552,-3.552,-3.5493,-3.5493,-3.5493,-3.5493,-3.5493,-3.5493,-3.5493,-3.5493,-3.5493,-3.5449,-3.5199,-3.4699,-3.4199,-3.4199,-3.3372,-3.2391,-3.2122,-3.2468,-3.2891,-3.2891,-3.2462,-3.1878,-3.1489,-3.1119,-3.082,-3.0669,-3.1108,-3.1335,-3.0713,-3.1279,-3.1486,-3.0387,-3.1284,-3.1933,-3.1386,-3.1226,-3.1161,-3.1161,-3.0624,-3.0247,-3.0247,-3.0128,-2.9977,-2.9836,-2.9645,-2.9269,-2.8575,-2.9054,-2.9066,-2.8392,-2.8904,-2.9152,-2.9085,-2.9017,-2.8994,-2.8994,-2.8994,-2.8994,-2.8994,-2.8994,-2.8994,-2.8994,-2.8994,-2.8994,-2.8994,-2.8994,-2.8994,-2.8994,-2.8994,-2.8994,-2.8994,-2.8994,-2.8994,-2.8994,-4.0042,-3.9964,-3.9451,-3.8073,-3.7636,-3.7046,-3.5699,-3.5493,-3.5493,-3.5493,-3.5493,-3.5493,-3.5493,-3.5795,-3.5853,-3.5532,-3.5493,-3.5493,-3.5493,-3.5493,-3.5493,-3.5493,-3.5493,-3.5493,-3.5493,-3.5493,-3.5493,-3.5493,-3.5493,-3.5493,-3.5493,-3.5493,-3.5493,-3.5493,-3.5493,-3.5315,-3.4988,-3.4982,-3.4789,-3.4468,-3.4501,-3.4501,-3.4507,-3.4853,-3.4988,-3.5026,-3.5391,-3.5493,-3.5493,-3.5493,-3.5493,-3.5493,-3.5493,-3.4911,-3.4199,-3.4199,-3.3006,-3.1698,-3.1698,-3.2064,-3.2429,-3.2429,-3.2506,-3.244,-3.201,-3.1855,-3.1759,-3.1642,-3.2024,-3.2233,-3.172,-3.2026,-3.2212,-3.1575,-3.2165,-3.2507,-3.2048,-3.1821,-3.1564,-3.1237,-3.0717,-3.0367,-3.0299,-3.0182,-3.0052,-2.9918,-2.9589,-2.9186,-2.8706,-2.915,-2.9124,-2.8542,-2.8963,-2.9156,-2.9089,-2.904,-2.8994,-2.8994,-2.8994,-2.8994,-2.8994,-2.8994,-2.8994,-2.8994,-2.8994,-2.8994,-2.8994,-2.8994,-2.8994,-2.8994,-2.8994,-2.8994,-2.8994,-2.8994,-2.8994,-2.8994,-3.9775,-3.9355,-3.8725,-3.7771,-3.7175,-3.6526,-3.5641,-3.5493,-3.5493,-3.5493,-3.5493,-3.5493,-3.5493,-3.6161,-3.6315,-3.5551,-3.5493,-3.5493,-3.5493,-3.5493,-3.5493,-3.5493,-3.5493,-3.5493,-3.5493,-3.5493,-3.5493,-3.5493,-3.5493,-3.5493,-3.5493,-3.5493,-3.5493,-3.5493,-3.5493,-3.5026,-3.4212,-3.4199,-3.3686,-3.291,-3.2967,-3.2954,-3.3006,-3.3872,-3.4199,-3.4295,-3.5103,-3.5391,-3.5372,-3.5295,-3.5334,-3.5391,-3.5391,-3.4834,-3.418,-3.4103,-3.2949,-3.1698,-3.1698,-3.1814,-3.1948,-3.2025,-3.3105,-3.3899,-3.2928,-3.2629,-3.2549,-3.2549,-3.2626,-3.2645,-3.2568,-3.2627,-3.2928,-3.3697,-3.3291,-3.29,-3.3013,-3.2314,-3.1506,-3.0717,-3.0475,-3.0299,-3.0122,-3.0061,-3.0007,-2.9869,-2.957,-2.9451,-2.9589,-2.9471,-2.9365,-2.9323,-2.924,-2.9156,-2.913,-2.904,-2.8994,-2.8994,-2.8994,-2.8994,-2.8994,-2.8994,-2.8994,-2.8994,-2.8994,-2.8994,-2.8994,-2.8994,-2.8994,-2.8994,-2.8994,-2.8994,-2.8994,-2.8994,-2.8994,-2.8975,-3.958,-3.9766,-3.9431,-3.7866,-3.7674,-3.7219,-3.5738,-3.5493,-3.5493,-3.5493,-3.5493,-3.5493,-3.5493,-3.5661,-3.5699,-3.5526,-3.5493,-3.5493,-3.5493,-3.5493,-3.5493,-3.5493,-3.5493,-3.5493,-3.5493,-3.5493,-3.5493,-3.5493,-3.5493,-3.5493,-3.5493,-3.5493,-3.5493,-3.5493,-3.5493,-3.5026,-3.4199,-3.4193,-3.3712,-3.2891,-3.2923,-3.2923,-3.3006,-3.3872,-3.4199,-3.4218,-3.441,-3.4468,-3.4372,-3.3699,-3.391,-3.4468,-3.4468,-3.4353,-3.4064,-3.3372,-3.2487,-3.1698,-3.1698,-3.266,-3.3814,-3.4507,-3.5383,-3.5523,-3.3352,-3.3344,-3.381,-3.381,-3.4347,-3.4616,-3.3944,-3.4386,-3.4462,-3.33,-3.4087,-3.4639,-3.4007,-3.3179,-3.2564,-3.2372,-3.1072,-3.0136,-3.0089,-2.9864,-2.9662,-2.9511,-2.9429,-2.9409,-2.945,-2.9427,-2.9386,-2.9386,-2.9262,-2.9218,-2.9259,-2.9085,-2.8994,-2.8994,-2.8994,-2.8994,-2.8994,-2.8994,-2.8994,-2.8994,-2.8994,-2.8994,-2.8994,-2.8994,-2.8994,-2.8994,-2.8994,-2.8994,-2.8994,-2.8994,-2.8994,-2.8902,-3.9245,-3.9242,-3.8873,-3.768,-3.733,-3.6826,-3.5685,-3.5493,-3.5493,-3.5493,-3.5493,-3.5493,-3.5493,-3.5493,-3.5493,-3.5493,-3.5493,-3.5493,-3.5493,-3.5493,-3.5493,-3.5493,-3.5493,-3.5315,-3.4891,-3.5295,-3.5493,-3.5493,-3.5493,-3.5493,-3.5474,-3.5064,-3.4872,-3.4853,-3.4449,-3.3795,-3.3006,-3.3006,-3.2506,-3.1718,-3.1718,-3.1968,-3.2429,-3.3256,-3.3583,-3.3622,-3.4045,-3.4199,-3.4122,-3.366,-3.4103,-3.4757,-3.4334,-3.391,-3.341,-3.2564,-3.1737,-3.1179,-3.1583,-3.2333,-3.3314,-3.4564,-3.5199,-3.5372,-3.4834,-3.5064,-3.5276,-3.4891,-3.5488,-3.5834,-3.4968,-3.4853,-3.4718,-3.4218,-3.4564,-3.4718,-3.4257,-3.3814,-3.3327,-3.2818,-3.1891,-3.1111,-3.062,-3.0335,-2.9964,-2.953,-2.9492,-2.9492,-2.9492,-2.9492,-2.9531,-2.9645,-2.9551,-2.9494,-2.9532,-2.9394,-2.9332,-2.9332,-2.9112,-2.8994,-2.8994,-2.8994,-2.8994,-2.8994,-2.8994,-2.8994,-2.8994,-2.8994,-2.8755,-2.8429,-2.8429,-2.8429,-2.8393,-2.8007,-2.786,-2.7783,-3.8979,-3.8678,-3.8188,-3.7546,-3.6958,-3.6339,-3.5699,-3.5528,-3.5446,-3.5446,-3.5479,-3.5493,-3.5493,-3.5493,-3.5493,-3.5493,-3.5493,-3.5493,-3.5493,-3.5372,-3.5276,-3.5276,-3.5141,-3.4718,-3.3987,-3.4699,-3.5141,-3.5276,-3.5276,-3.5353,-3.5488,-3.4468,-3.4064,-3.416,-3.3295,-3.2449,-3.1698,-3.1698,-3.1198,-3.0398,-3.0552,-3.0968,-3.1583,-3.2545,-3.2891,-3.2987,-3.3718,-3.3968,-3.3949,-3.3814,-3.4334,-3.493,-3.4199,-3.3583,-3.2968,-3.2141,-3.1602,-3.1417,-3.216,-3.2449,-3.2929,-3.4468,-3.4737,-3.4988,-3.6392,-3.6603,-3.6315,-3.5641,-3.6045,-3.6295,-3.5622,-3.4911,-3.4661,-3.5391,-3.4891,-3.441,-3.441,-3.4295,-3.3871,-3.2981,-3.2707,-3.2267,-3.1419,-3.1053,-3.0641,-3.0114,-2.9945,-2.9926,-3.0057,-2.9945,-2.9922,-3.0094,-2.991,-2.9801,-2.9801,-2.9734,-2.9717,-2.9699,-2.9291,-2.9093,-2.9093,-2.9093,-2.9093,-2.9093,-2.9093,-2.9093,-2.9093,-2.892,-2.8437,-2.7834,-2.7662,-2.7585,-2.7512,-2.6851,-2.6521,-2.6392,-3.8892,-3.909,-3.8971,-3.8134,-3.7524,-3.6919,-3.6141,-3.5564,-3.5242,-3.5242,-3.5383,-3.5493,-3.5493,-3.5493,-3.5493,-3.5493,-3.5493,-3.5493,-3.5493,-3.4795,-3.4372,-3.4372,-3.3641,-3.3199,-3.3083,-3.3199,-3.3622,-3.4372,-3.4372,-3.4757,-3.5455,-3.3833,-3.3468,-3.416,-3.3295,-3.2449,-3.1698,-3.1698,-3.1198,-3.0456,-3.1218,-3.1141,-3.0756,-3.2314,-3.2891,-3.291,-3.3026,-3.3083,-3.2968,-3.2275,-3.2583,-3.3237,-3.3103,-3.3506,-3.3853,-3.2987,-3.3718,-3.4853,-3.4949,-3.5488,-3.6257,-3.7238,-3.693,-3.643,-3.6661,-3.6161,-3.5641,-3.5512,-3.5603,-3.5641,-3.5526,-3.5411,-3.5372,-3.5488,-3.5411,-3.5334,-3.5334,-3.468,-3.416,-3.3999,-3.3216,-3.2565,-3.225,-3.1516,-3.1328,-3.197,-3.1309,-3.1233,-3.1989,-3.1309,-3.0911,-3.0945,-3.0213,-2.9801,-2.9801,-2.9734,-2.9717,-2.9699,-2.957,-2.9513,-2.9513,-2.9513,-2.9513,-2.9513,-2.9513,-2.9513,-2.9457,-2.859,-2.8157,-2.797,-2.7101,-2.6759,-2.6759,-2.6649,-2.6153,-2.5568,-3.8833,-3.8637,-3.8234,-3.7555,-3.6855,-3.6182,-3.5532,-3.53,-3.5209,-3.5209,-3.5388,-3.5493,-3.5493,-3.5493,-3.5493,-3.5493,-3.5493,-3.5493,-3.5493,-3.468,-3.4199,-3.4199,-3.3372,-3.2699,-3.2237,-3.2679,-3.2872,-3.2795,-3.3256,-3.391,-3.4737,-3.3026,-3.2429,-3.2776,-3.1891,-3.1314,-3.0968,-3.0968,-3.0756,-3.0417,-3.0833,-3.1044,-3.1218,-3.1948,-3.2237,-3.2179,-3.1679,-3.2102,-3.2852,-3.2487,-3.2602,-3.2987,-3.3468,-3.3564,-3.3487,-3.3603,-3.416,-3.4988,-3.593,-3.6103,-3.6238,-3.7065,-3.6661,-3.6045,-3.6045,-3.5757,-3.5493,-3.5493,-3.6238,-3.6622,-3.568,-3.5493,-3.5493,-3.5493,-3.5493,-3.5493,-3.5493,-3.518,-3.4883,-3.4779,-3.4279,-3.376,-3.328,-3.2899,-3.2651,-3.2556,-3.2213,-3.2156,-3.2537,-3.2194,-3.2031,-3.2087,-3.1728,-3.1293,-3.082,-3.078,-3.0506,-2.9981,-3.0427,-3.0292,-2.9608,-2.9608,-2.9608,-2.9608,-2.9608,-2.9551,-2.936,-2.846,-2.7766,-2.7182,-2.6268,-2.5658,-2.5309,-2.575,-2.5419,-2.4722]}]]